Wetterdaten: Dienstag, 29.01.2019
Datum Zeit Temp. A. Pool Temp. Temp. 5cm Feuchte A. Luftdruck Regen Wind Richtung Richtung Sonnenschein ET UV Solar Taupunkt Windchill Windben Empfang
29.01.2019 00:00 1,1 C 3,3 C 0,6 C 89 % 1002,1 hPa 0,0 l/m 22,8 km/h (4 Bft) SW 216 0 min 0,000 mm 0,0 UV-I 0 W/m -0,5 C -9,4 C 30,6 km/h (5 Bft) 95,83 %
29.01.2019 00:02 1,1 C 3,3 C 0,6 C 89 % 1002,1 hPa 0,0 l/m 26,1 km/h (4 Bft) SW 227 0 min 0,000 mm 0,0 UV-I 0 W/m -0,5 C -10,6 C 43,5 km/h (6 Bft) 90,91 %
29.01.2019 00:04 1,1 C 3,3 C 0,6 C 89 % 1002,2 hPa 0,0 l/m 27,3 km/h (4 Bft) W-SW 240 0 min 0,000 mm 0,0 UV-I 0 W/m -0,5 C -11,0 C 45,1 km/h (6 Bft) 93,62 %
29.01.2019 00:06 1,1 C 3,3 C 0,6 C 89 % 1002,2 hPa 0,0 l/m 23,4 km/h (4 Bft) W-SW 246 0 min 0,000 mm 0,0 UV-I 0 W/m -0,5 C -9,6 C 33,8 km/h (5 Bft) 95,74 %
29.01.2019 00:08 1,1 C 3,3 C 0,6 C 89 % 1002,2 hPa 0,0 l/m 23,7 km/h (4 Bft) W-SW 258 0 min 0,000 mm 0,0 UV-I 0 W/m -0,5 C -9,7 C 38,6 km/h (5 Bft) 94,74 %
29.01.2019 00:10 1,1 C 3,3 C 0,6 C 89 % 1002,2 hPa 0,0 l/m 21,4 km/h (4 Bft) W-SW 240 0 min 0,000 mm 0,0 UV-I 0 W/m -0,5 C -8,8 C 30,6 km/h (5 Bft) 97,92 %
29.01.2019 00:12 1,1 C 3,3 C 0,6 C 90 % 1002,3 hPa 0,0 l/m 25,8 km/h (4 Bft) SW 232 0 min 0,000 mm 0,0 UV-I 0 W/m -0,4 C -10,5 C 41,8 km/h (6 Bft) 98,00 %
29.01.2019 00:14 1,1 C 3,3 C 0,6 C 90 % 1002,3 hPa 0,0 l/m 23,8 km/h (4 Bft) W-SW 238 0 min 0,000 mm 0,0 UV-I 0 W/m -0,4 C -9,8 C 35,4 km/h (5 Bft) 100,00 %
29.01.2019 00:16 1,1 C 3,3 C 0,6 C 90 % 1002,4 hPa 0,0 l/m 25,8 km/h (4 Bft) SW 228 0 min 0,000 mm 0,0 UV-I 0 W/m -0,4 C -10,5 C 33,8 km/h (5 Bft) 97,87 %
29.01.2019 00:18 1,1 C 3,3 C 0,6 C 90 % 1002,4 hPa 0,0 l/m 23,3 km/h (4 Bft) SW 227 0 min 0,000 mm 0,0 UV-I 0 W/m -0,4 C -9,6 C 35,4 km/h (5 Bft) 97,22 %
29.01.2019 00:20 1,1 C 3,3 C 0,6 C 90 % 1002,4 hPa 0,0 l/m 19,8 km/h (3 Bft) SW 234 0 min 0,000 mm 0,0 UV-I 0 W/m -0,4 C -8,1 C 27,4 km/h (4 Bft) 100,00 %
29.01.2019 00:22 1,1 C 3,3 C 0,6 C 90 % 1002,4 hPa 0,0 l/m 22,9 km/h (4 Bft) W 259 0 min 0,000 mm 0,0 UV-I 0 W/m -0,4 C -9,4 C 32,2 km/h (5 Bft) 100,00 %
29.01.2019 00:24 1,1 C 3,3 C 0,6 C 90 % 1002,4 hPa 0,0 l/m 18,2 km/h (3 Bft) W-SW 255 0 min 0,000 mm 0,0 UV-I 0 W/m -0,4 C -7,4 C 27,4 km/h (4 Bft) 98,11 %
29.01.2019 00:26 1,1 C 3,3 C 0,6 C 90 % 1002,4 hPa 0,0 l/m 21,2 km/h (4 Bft) SW 233 0 min 0,000 mm 0,0 UV-I 0 W/m -0,4 C -8,7 C 32,2 km/h (5 Bft) 100,00 %
29.01.2019 00:28 1,1 C 3,3 C 0,6 C 90 % 1002,4 hPa 0,0 l/m 20,4 km/h (4 Bft) W-SW 243 0 min 0,000 mm 0,0 UV-I 0 W/m -0,4 C -8,4 C 40,2 km/h (6 Bft) 98,00 %
29.01.2019 00:30 1,1 C 3,3 C 0,6 C 90 % 1002,4 hPa 0,0 l/m 20,1 km/h (4 Bft) W 262 0 min 0,000 mm 0,0 UV-I 0 W/m -0,4 C -8,3 C 29,0 km/h (5 Bft) 100,00 %
29.01.2019 00:32 1,1 C 3,3 C 0,6 C 90 % 1002,5 hPa 0,0 l/m 22,5 km/h (4 Bft) SW 235 0 min 0,000 mm 0,0 UV-I 0 W/m -0,4 C -9,3 C 30,6 km/h (5 Bft) 100,00 %
29.01.2019 00:34 1,2 C 3,3 C 0,6 C 90 % 1002,4 hPa 0,0 l/m 21,7 km/h (4 Bft) W-SW 238 0 min 0,000 mm 0,0 UV-I 0 W/m -0,3 C -8,8 C 33,8 km/h (5 Bft) 100,00 %
29.01.2019 00:36 1,2 C 3,3 C 0,6 C 90 % 1002,4 hPa 0,0 l/m 24,7 km/h (4 Bft) W-SW 240 0 min 0,000 mm 0,0 UV-I 0 W/m -0,3 C -10,0 C 33,8 km/h (5 Bft) 100,00 %
29.01.2019 00:38 1,2 C 3,3 C 0,6 C 90 % 1002,4 hPa 0,0 l/m 24,5 km/h (4 Bft) W-SW 254 0 min 0,000 mm 0,0 UV-I 0 W/m -0,3 C -9,9 C 32,2 km/h (5 Bft) 100,00 %
29.01.2019 00:40 1,2 C 3,3 C 0,6 C 90 % 1002,4 hPa 0,0 l/m 18,4 km/h (3 Bft) SW 236 0 min 0,000 mm 0,0 UV-I 0 W/m -0,3 C -7,3 C 35,4 km/h (5 Bft) 100,00 %
29.01.2019 00:42 1,2 C 3,3 C 0,6 C 90 % 1002,5 hPa 0,0 l/m 19,4 km/h (3 Bft) SW 234 0 min 0,000 mm 0,0 UV-I 0 W/m -0,3 C -7,8 C 27,4 km/h (4 Bft) 100,00 %
29.01.2019 00:44 1,2 C 3,3 C 0,6 C 90 % 1002,4 hPa 0,0 l/m 23,3 km/h (4 Bft) W-SW 240 0 min 0,000 mm 0,0 UV-I 0 W/m -0,3 C -9,5 C 32,2 km/h (5 Bft) 100,00 %
29.01.2019 00:46 1,2 C 3,3 C 0,6 C 90 % 1002,4 hPa 0,0 l/m 24,2 km/h (4 Bft) W-SW 239 0 min 0,000 mm 0,0 UV-I 0 W/m -0,3 C -9,8 C 33,8 km/h (5 Bft) 100,00 %
29.01.2019 00:48 1,1 C 3,3 C 0,6 C 90 % 1002,4 hPa 0,0 l/m 24,4 km/h (4 Bft) W-SW 244 0 min 0,000 mm 0,0 UV-I 0 W/m -0,4 C -10,0 C 37,0 km/h (5 Bft) 98,00 %
29.01.2019 00:50 1,1 C 3,3 C 0,6 C 90 % 1002,4 hPa 0,0 l/m 22,9 km/h (4 Bft) W-SW 254 0 min 0,000 mm 0,0 UV-I 0 W/m -0,4 C -9,4 C 38,6 km/h (5 Bft) 100,00 %
29.01.2019 00:52 1,1 C 3,3 C 0,6 C 90 % 1002,4 hPa 0,0 l/m 24,6 km/h (4 Bft) W-SW 240 0 min 0,000 mm 0,0 UV-I 0 W/m -0,4 C -10,1 C 37,0 km/h (5 Bft) 97,87 %
29.01.2019 00:54 1,1 C 3,3 C 0,6 C 91 % 1002,4 hPa 0,0 l/m 21,5 km/h (4 Bft) SW 226 0 min 0,000 mm 0,0 UV-I 0 W/m -0,2 C -8,9 C 33,8 km/h (5 Bft) 100,00 %
29.01.2019 00:56 1,0 C 3,3 C 0,6 C 91 % 1002,4 hPa 0,0 l/m 22,4 km/h (4 Bft) W-SW 238 0 min 0,000 mm 0,0 UV-I 0 W/m -0,3 C -9,4 C 32,2 km/h (5 Bft) 100,00 %
29.01.2019 00:58 1,0 C 3,3 C 0,6 C 91 % 1002,5 hPa 0,0 l/m 21,4 km/h (4 Bft) SW 224 0 min 0,000 mm 0,0 UV-I 0 W/m -0,3 C -9,0 C 33,8 km/h (5 Bft) 95,74 %
29.01.2019 01:00 0,9 C 3,3 C 0,6 C 91 % 1002,5 hPa 0,0 l/m 22,7 km/h (4 Bft) SW 234 0 min 0,025 mm 0,0 UV-I 0 W/m -0,4 C -9,6 C 35,4 km/h (5 Bft) 100,00 %
29.01.2019 01:02 0,9 C 3,3 C 0,6 C 91 % 1002,5 hPa 0,0 l/m 27,7 km/h (4 Bft) SW 227 0 min 0,000 mm 0,0 UV-I 0 W/m -0,4 C -11,4 C 41,8 km/h (6 Bft) 100,00 %
29.01.2019 01:04 0,9 C 3,3 C 0,6 C 92 % 1002,4 hPa 0,0 l/m 22,2 km/h (4 Bft) W-SW 242 0 min 0,000 mm 0,0 UV-I 0 W/m -0,2 C -9,4 C 37,0 km/h (5 Bft) 100,00 %
29.01.2019 01:06 0,9 C 3,3 C 0,6 C 92 % 1002,5 hPa 0,0 l/m 24,0 km/h (4 Bft) W-SW 247 0 min 0,000 mm 0,0 UV-I 0 W/m -0,2 C -10,1 C 35,4 km/h (5 Bft) 97,87 %
29.01.2019 01:08 0,9 C 3,3 C 0,6 C 92 % 1002,5 hPa 0,0 l/m 22,1 km/h (4 Bft) W 259 0 min 0,000 mm 0,0 UV-I 0 W/m -0,2 C -9,4 C 30,6 km/h (5 Bft) 97,87 %
29.01.2019 01:10 0,9 C 3,3 C 0,6 C 92 % 1002,5 hPa 0,0 l/m 21,5 km/h (4 Bft) S-SW 205 0 min 0,000 mm 0,0 UV-I 0 W/m -0,2 C -9,1 C 32,2 km/h (5 Bft) 98,00 %
29.01.2019 01:12 0,9 C 3,3 C 0,6 C 92 % 1002,6 hPa 0,0 l/m 23,6 km/h (4 Bft) SW 236 0 min 0,000 mm 0,0 UV-I 0 W/m -0,2 C -10,0 C 37,0 km/h (5 Bft) 96,00 %
29.01.2019 01:14 0,9 C 3,3 C 0,6 C 92 % 1002,5 hPa 0,0 l/m 25,7 km/h (4 Bft) W 271 0 min 0,000 mm 0,0 UV-I 0 W/m -0,2 C -10,7 C 37,0 km/h (5 Bft) 95,12 %
29.01.2019 01:16 0,9 C 3,3 C 0,6 C 92 % 1002,6 hPa 0,0 l/m 22,9 km/h (4 Bft) W 269 0 min 0,000 mm 0,0 UV-I 0 W/m -0,2 C -9,7 C 30,6 km/h (5 Bft) 93,62 %
29.01.2019 01:18 0,9 C 3,3 C 0,6 C 92 % 1002,7 hPa 0,0 l/m 21,6 km/h (4 Bft) SW 231 0 min 0,000 mm 0,0 UV-I 0 W/m -0,2 C -9,2 C 32,2 km/h (5 Bft) 95,74 %
29.01.2019 01:20 0,9 C 3,3 C 0,6 C 92 % 1002,7 hPa 0,0 l/m 22,1 km/h (4 Bft) W 259 0 min 0,000 mm 0,0 UV-I 0 W/m -0,2 C -9,4 C 35,4 km/h (5 Bft) 93,62 %
29.01.2019 01:22 0,9 C 3,3 C 0,6 C 92 % 1002,7 hPa 0,0 l/m 21,8 km/h (4 Bft) S-SW 209 0 min 0,000 mm 0,0 UV-I 0 W/m -0,2 C -9,3 C 33,8 km/h (5 Bft) 93,62 %
29.01.2019 01:24 0,9 C 3,3 C 0,6 C 92 % 1002,7 hPa 0,0 l/m 19,2 km/h (3 Bft) W-SW 241 0 min 0,000 mm 0,0 UV-I 0 W/m -0,2 C -8,1 C 25,7 km/h (4 Bft) 91,49 %
29.01.2019 01:26 1,0 C 3,3 C 0,6 C 92 % 1002,8 hPa 0,0 l/m 24,0 km/h (4 Bft) W-SW 240 0 min 0,000 mm 0,0 UV-I 0 W/m -0,2 C -10,0 C 38,6 km/h (5 Bft) 94,12 %
29.01.2019 01:28 1,0 C 3,3 C 0,6 C 92 % 1002,8 hPa 0,0 l/m 20,5 km/h (4 Bft) SW 234 0 min 0,000 mm 0,0 UV-I 0 W/m -0,2 C -8,6 C 32,2 km/h (5 Bft) 98,00 %
29.01.2019 01:30 1,0 C 3,3 C 0,6 C 92 % 1002,9 hPa 0,0 l/m 16,6 km/h (3 Bft) W-SW 238 0 min 0,000 mm 0,0 UV-I 0 W/m -0,2 C -6,7 C 25,7 km/h (4 Bft) 97,37 %
29.01.2019 01:32 1,0 C 3,3 C 0,6 C 92 % 1002,9 hPa 0,0 l/m 20,7 km/h (4 Bft) W-SW 245 0 min 0,000 mm 0,0 UV-I 0 W/m -0,2 C -8,7 C 29,0 km/h (5 Bft) 97,87 %
29.01.2019 01:34 1,1 C 3,3 C 0,6 C 92 % 1002,9 hPa 0,0 l/m 20,9 km/h (4 Bft) W-SW 249 0 min 0,000 mm 0,0 UV-I 0 W/m -0,1 C -8,6 C 30,6 km/h (5 Bft) 95,74 %
29.01.2019 01:36 1,1 C 3,3 C 0,6 C 91 % 1002,9 hPa 0,0 l/m 18,9 km/h (3 Bft) SW 229 0 min 0,000 mm 0,0 UV-I 0 W/m -0,2 C -7,7 C 32,2 km/h (5 Bft) 95,83 %
29.01.2019 01:38 1,1 C 3,3 C 0,6 C 91 % 1003,0 hPa 0,0 l/m 21,9 km/h (4 Bft) W-SW 246 0 min 0,000 mm 0,0 UV-I 0 W/m -0,2 C -9,0 C 29,0 km/h (5 Bft) 95,74 %
29.01.2019 01:40 1,1 C 3,3 C 0,6 C 91 % 1003,0 hPa 0,0 l/m 20,6 km/h (4 Bft) SW 223 0 min 0,000 mm 0,0 UV-I 0 W/m -0,2 C -8,5 C 27,4 km/h (4 Bft) 95,74 %
29.01.2019 01:42 1,1 C 3,3 C 0,6 C 91 % 1003,0 hPa 0,0 l/m 20,4 km/h (4 Bft) S-SW 208 0 min 0,000 mm 0,0 UV-I 0 W/m -0,2 C -8,4 C 33,8 km/h (5 Bft) 95,74 %
29.01.2019 01:44 1,1 C 3,3 C 0,6 C 91 % 1003,0 hPa 0,0 l/m 18,1 km/h (3 Bft) W-SW 253 0 min 0,000 mm 0,0 UV-I 0 W/m -0,2 C -7,3 C 32,2 km/h (5 Bft) 98,00 %
29.01.2019 01:46 1,2 C 3,3 C 0,6 C 91 % 1003,1 hPa 0,0 l/m 19,6 km/h (3 Bft) SW 228 0 min 0,000 mm 0,0 UV-I 0 W/m -0,1 C -7,9 C 27,4 km/h (4 Bft) 97,87 %
29.01.2019 01:48 1,2 C 3,3 C 0,6 C 91 % 1003,1 hPa 0,0 l/m 21,8 km/h (4 Bft) W-SW 250 0 min 0,000 mm 0,0 UV-I 0 W/m -0,1 C -8,9 C 27,4 km/h (4 Bft) 97,87 %
29.01.2019 01:50 1,2 C 3,3 C 0,6 C 90 % 1003,1 hPa 0,0 l/m 20,6 km/h (4 Bft) SW 223 0 min 0,000 mm 0,0 UV-I 0 W/m -0,3 C -8,3 C 30,6 km/h (5 Bft) 100,00 %
29.01.2019 01:52 1,2 C 3,3 C 0,6 C 90 % 1003,2 hPa 0,0 l/m 18,3 km/h (3 Bft) W-SW 243 0 min 0,000 mm 0,0 UV-I 0 W/m -0,3 C -7,3 C 25,7 km/h (4 Bft) 100,00 %
29.01.2019 01:54 1,2 C 3,3 C 0,6 C 90 % 1003,2 hPa 0,0 l/m 19,5 km/h (3 Bft) SW 225 0 min 0,000 mm 0,0 UV-I 0 W/m -0,3 C -7,9 C 30,6 km/h (5 Bft) 100,00 %
29.01.2019 01:56 1,2 C 3,3 C 0,6 C 90 % 1003,3 hPa 0,0 l/m 21,1 km/h (4 Bft) SW 230 0 min 0,000 mm 0,0 UV-I 0 W/m -0,3 C -8,6 C 33,8 km/h (5 Bft) 100,00 %
29.01.2019 01:58 1,2 C 3,3 C 0,6 C 90 % 1003,3 hPa 0,0 l/m 20,1 km/h (4 Bft) SW 214 0 min 0,000 mm 0,0 UV-I 0 W/m -0,3 C -8,1 C 29,0 km/h (5 Bft) 100,00 %
29.01.2019 02:00 1,2 C 3,3 C 0,6 C 90 % 1003,3 hPa 0,0 l/m 23,8 km/h (4 Bft) W-SW 239 0 min 0,000 mm 0,0 UV-I 0 W/m -0,3 C -9,6 C 38,6 km/h (5 Bft) 100,00 %
29.01.2019 02:02 1,2 C 3,3 C 0,6 C 90 % 1003,4 hPa 0,0 l/m 23,3 km/h (4 Bft) SW 233 0 min 0,026 mm 0,0 UV-I 0 W/m -0,3 C -9,5 C 37,0 km/h (5 Bft) 92,11 %
29.01.2019 02:04 1,2 C 3,3 C 0,6 C 90 % 1003,4 hPa 0,0 l/m 17,6 km/h (3 Bft) W-SW 250 0 min 0,000 mm 0,0 UV-I 0 W/m -0,3 C -6,9 C 24,1 km/h (4 Bft) 100,00 %
29.01.2019 02:06 1,2 C 3,3 C 0,6 C 90 % 1003,5 hPa 0,0 l/m 21,3 km/h (4 Bft) SW 225 0 min 0,000 mm 0,0 UV-I 0 W/m -0,3 C -8,6 C 30,6 km/h (5 Bft) 98,00 %
29.01.2019 02:08 1,1 C 3,3 C 0,6 C 91 % 1003,5 hPa 0,0 l/m 22,1 km/h (4 Bft) SW 214 0 min 0,000 mm 0,0 UV-I 0 W/m -0,2 C -9,1 C 35,4 km/h (5 Bft) 91,49 %
29.01.2019 02:10 1,1 C 3,3 C 0,6 C 91 % 1003,6 hPa 0,0 l/m 24,1 km/h (4 Bft) W-SW 244 0 min 0,000 mm 0,0 UV-I 0 W/m -0,2 C -9,9 C 30,6 km/h (5 Bft) 97,87 %
29.01.2019 02:12 1,1 C 3,3 C 0,6 C 91 % 1003,6 hPa 0,0 l/m 18,9 km/h (3 Bft) W-SW 240 0 min 0,000 mm 0,0 UV-I 0 W/m -0,2 C -7,7 C 24,1 km/h (4 Bft) 96,00 %
29.01.2019 02:14 1,1 C 3,3 C 0,6 C 91 % 1003,6 hPa 0,0 l/m 21,4 km/h (4 Bft) W-SW 243 0 min 0,000 mm 0,0 UV-I 0 W/m -0,2 C -8,8 C 30,6 km/h (5 Bft) 97,87 %
29.01.2019 02:16 1,0 C 3,3 C 0,6 C 91 % 1003,6 hPa 0,0 l/m 20,0 km/h (4 Bft) W-SW 248 0 min 0,000 mm 0,0 UV-I 0 W/m -0,3 C -8,3 C 30,6 km/h (5 Bft) 95,74 %
29.01.2019 02:18 1,0 C 3,3 C 0,6 C 92 % 1003,6 hPa 0,0 l/m 23,1 km/h (4 Bft) SW 236 0 min 0,000 mm 0,0 UV-I 0 W/m -0,2 C -9,6 C 33,8 km/h (5 Bft) 97,87 %
29.01.2019 02:20 0,9 C 3,3 C 0,6 C 92 % 1003,7 hPa 0,0 l/m 19,7 km/h (3 Bft) W 270 0 min 0,000 mm 0,0 UV-I 0 W/m -0,2 C -8,3 C 32,2 km/h (5 Bft) 95,83 %
29.01.2019 02:22 0,9 C 3,3 C 0,6 C 92 % 1003,7 hPa 0,0 l/m 20,6 km/h (4 Bft) SW 222 0 min 0,000 mm 0,0 UV-I 0 W/m -0,2 C -8,7 C 30,6 km/h (5 Bft) 93,62 %
29.01.2019 02:24 0,9 C 3,3 C 0,6 C 92 % 1003,7 hPa 0,0 l/m 15,3 km/h (3 Bft) W-SW 252 0 min 0,000 mm 0,0 UV-I 0 W/m -0,2 C -6,1 C 20,9 km/h (4 Bft) 97,87 %
29.01.2019 02:26 0,9 C 3,3 C 0,6 C 92 % 1003,7 hPa 0,0 l/m 18,1 km/h (3 Bft) W-SW 240 0 min 0,000 mm 0,0 UV-I 0 W/m -0,2 C -7,6 C 29,0 km/h (5 Bft) 92,11 %
29.01.2019 02:28 0,9 C 3,3 C 0,6 C 92 % 1003,8 hPa 0,0 l/m 19,6 km/h (3 Bft) W-SW 253 0 min 0,000 mm 0,0 UV-I 0 W/m -0,2 C -8,3 C 29,0 km/h (5 Bft) 92,00 %
29.01.2019 02:30 0,9 C 3,3 C 0,6 C 92 % 1003,8 hPa 0,0 l/m 15,9 km/h (3 Bft) W 263 0 min 0,000 mm 0,0 UV-I 0 W/m -0,2 C -6,4 C 24,1 km/h (4 Bft) 89,36 %
29.01.2019 02:32 0,9 C 3,3 C 0,6 C 92 % 1003,7 hPa 0,0 l/m 16,3 km/h (3 Bft) W-SW 246 0 min 0,000 mm 0,0 UV-I 0 W/m -0,2 C -6,6 C 24,1 km/h (4 Bft) 95,74 %
29.01.2019 02:34 0,9 C 3,3 C 0,6 C 92 % 1003,8 hPa 0,0 l/m 16,4 km/h (3 Bft) W-SW 249 0 min 0,000 mm 0,0 UV-I 0 W/m -0,2 C -6,7 C 29,0 km/h (5 Bft) 93,62 %
29.01.2019 02:36 0,9 C 3,3 C 0,6 C 92 % 1003,8 hPa 0,0 l/m 15,7 km/h (3 Bft) W 267 0 min 0,000 mm 0,0 UV-I 0 W/m -0,2 C -6,3 C 24,1 km/h (4 Bft) 95,74 %
29.01.2019 02:38 0,8 C 3,3 C 0,6 C 93 % 1003,8 hPa 0,0 l/m 19,7 km/h (3 Bft) W-SW 242 0 min 0,000 mm 0,0 UV-I 0 W/m -0,2 C -8,5 C 27,4 km/h (4 Bft) 95,74 %
29.01.2019 02:40 0,8 C 3,3 C 0,6 C 93 % 1003,8 hPa 0,0 l/m 18,9 km/h (3 Bft) SW 235 0 min 0,000 mm 0,0 UV-I 0 W/m -0,2 C -8,1 C 25,7 km/h (4 Bft) 95,74 %
29.01.2019 02:42 0,8 C 3,3 C 0,6 C 93 % 1003,8 hPa 0,0 l/m 17,5 km/h (3 Bft) W-SW 245 0 min 0,000 mm 0,0 UV-I 0 W/m -0,2 C -7,4 C 24,1 km/h (4 Bft) 93,62 %
29.01.2019 02:44 0,8 C 3,3 C 0,6 C 93 % 1003,8 hPa 0,0 l/m 16,4 km/h (3 Bft) W-SW 246 0 min 0,000 mm 0,0 UV-I 0 W/m -0,2 C -6,8 C 25,7 km/h (4 Bft) 93,62 %
29.01.2019 02:46 0,8 C 3,3 C 0,6 C 93 % 1003,9 hPa 0,0 l/m 19,6 km/h (3 Bft) W 281 0 min 0,000 mm 0,0 UV-I 0 W/m -0,2 C -8,4 C 27,4 km/h (4 Bft) 97,87 %
29.01.2019 02:48 0,8 C 3,3 C 0,0 C 93 % 1003,9 hPa 0,0 l/m 14,9 km/h (3 Bft) W 269 0 min 0,000 mm 0,0 UV-I 0 W/m -0,2 C -6,0 C 22,5 km/h (4 Bft) 93,62 %
29.01.2019 02:50 0,8 C 3,3 C 0,0 C 93 % 1003,9 hPa 0,0 l/m 14,6 km/h (3 Bft) W 275 0 min 0,000 mm 0,0 UV-I 0 W/m -0,2 C -5,8 C 19,3 km/h (3 Bft) 96,00 %
29.01.2019 02:52 0,8 C 3,3 C 0,0 C 93 % 1003,9 hPa 0,0 l/m 14,1 km/h (3 Bft) W 271 0 min 0,000 mm 0,0 UV-I 0 W/m -0,2 C -5,5 C 19,3 km/h (3 Bft) 97,87 %
29.01.2019 02:54 0,8 C 3,3 C 0,0 C 93 % 1003,9 hPa 0,0 l/m 16,2 km/h (3 Bft) W-SW 250 0 min 0,000 mm 0,0 UV-I 0 W/m -0,2 C -6,7 C 22,5 km/h (4 Bft) 97,44 %
29.01.2019 02:56 0,7 C 3,3 C 0,0 C 93 % 1003,9 hPa 0,0 l/m 16,0 km/h (3 Bft) W-SW 257 0 min 0,000 mm 0,0 UV-I 0 W/m -0,3 C -6,7 C 22,5 km/h (4 Bft) 95,74 %
29.01.2019 02:58 0,7 C 3,3 C 0,0 C 93 % 1003,9 hPa 0,0 l/m 13,3 km/h (3 Bft) W-SW 252 0 min 0,000 mm 0,0 UV-I 0 W/m -0,3 C -5,1 C 22,5 km/h (4 Bft) 97,87 %
29.01.2019 03:00 0,7 C 3,3 C 0,0 C 93 % 1003,9 hPa 0,0 l/m 15,5 km/h (3 Bft) S-SW 205 0 min 0,000 mm 0,0 UV-I 0 W/m -0,3 C -6,4 C 25,7 km/h (4 Bft) 97,87 %
29.01.2019 03:02 0,7 C 3,3 C 0,0 C 93 % 1003,9 hPa 0,0 l/m 15,8 km/h (3 Bft) SW 234 0 min 0,000 mm 0,0 UV-I 0 W/m -0,3 C -6,6 C 22,5 km/h (4 Bft) 95,74 %
29.01.2019 03:04 0,7 C 3,3 C 0,0 C 94 % 1003,9 hPa 0,0 l/m 14,2 km/h (3 Bft) W 265 0 min 0,000 mm 0,0 UV-I 0 W/m -0,2 C -5,7 C 22,5 km/h (4 Bft) 95,74 %
29.01.2019 03:06 0,7 C 3,3 C 0,0 C 94 % 1003,9 hPa 0,0 l/m 14,7 km/h (3 Bft) SW 229 0 min 0,000 mm 0,0 UV-I 0 W/m -0,2 C -6,0 C 20,9 km/h (4 Bft) 97,87 %
29.01.2019 03:08 0,7 C 3,3 C 0,0 C 94 % 1003,9 hPa 0,0 l/m 13,7 km/h (3 Bft) W 259 0 min 0,000 mm 0,0 UV-I 0 W/m -0,2 C -5,3 C 22,5 km/h (4 Bft) 95,74 %
29.01.2019 03:10 0,7 C 3,3 C 0,0 C 94 % 1003,8 hPa 0,0 l/m 15,6 km/h (3 Bft) W-SW 242 0 min 0,000 mm 0,0 UV-I 0 W/m -0,2 C -6,5 C 22,5 km/h (4 Bft) 96,00 %
29.01.2019 03:12 0,7 C 3,3 C 0,0 C 94 % 1003,9 hPa 0,0 l/m 14,5 km/h (3 Bft) W-SW 256 0 min 0,000 mm 0,0 UV-I 0 W/m -0,2 C -5,8 C 22,5 km/h (4 Bft) 96,00 %
29.01.2019 03:14 0,7 C 3,3 C 0,0 C 94 % 1003,9 hPa 0,0 l/m 15,4 km/h (3 Bft) SW 231 0 min 0,000 mm 0,0 UV-I 0 W/m -0,2 C -6,4 C 22,5 km/h (4 Bft) 95,74 %
29.01.2019 03:16 0,7 C 3,3 C 0,0 C 94 % 1003,9 hPa 0,0 l/m 16,1 km/h (3 Bft) W-SW 253 0 min 0,000 mm 0,0 UV-I 0 W/m -0,2 C -6,8 C 25,7 km/h (4 Bft) 97,87 %
29.01.2019 03:18 0,7 C 3,3 C 0,0 C 94 % 1003,9 hPa 0,0 l/m 18,3 km/h (3 Bft) W 263 0 min 0,000 mm 0,0 UV-I 0 W/m -0,2 C -7,9 C 29,0 km/h (5 Bft) 97,87 %
29.01.2019 03:20 0,8 C 3,3 C 0,0 C 94 % 1003,9 hPa 0,0 l/m 16,7 km/h (3 Bft) W-SW 238 0 min 0,000 mm 0,0 UV-I 0 W/m -0,1 C -7,0 C 22,5 km/h (4 Bft) 100,00 %
29.01.2019 03:22 0,8 C 3,3 C 0,0 C 94 % 1003,9 hPa 0,0 l/m 16,8 km/h (3 Bft) W-NW 290 0 min 0,000 mm 0,0 UV-I 0 W/m -0,1 C -7,0 C 22,5 km/h (4 Bft) 97,87 %
29.01.2019 03:24 0,8 C 3,3 C 0,6 C 94 % 1004,0 hPa 0,0 l/m 14,7 km/h (3 Bft) W 259 0 min 0,000 mm 0,0 UV-I 0 W/m -0,1 C -5,8 C 24,1 km/h (4 Bft) 94,74 %
29.01.2019 03:26 0,8 C 3,3 C 0,6 C 94 % 1004,1 hPa 0,0 l/m 17,7 km/h (3 Bft) W 265 0 min 0,000 mm 0,0 UV-I 0 W/m -0,1 C -7,5 C 27,4 km/h (4 Bft) 97,87 %
29.01.2019 03:28 0,8 C 3,3 C 0,6 C 93 % 1004,1 hPa 0,0 l/m 17,2 km/h (3 Bft) W-NW 292 0 min 0,000 mm 0,0 UV-I 0 W/m -0,2 C -7,2 C 27,4 km/h (4 Bft) 95,74 %
29.01.2019 03:30 0,9 C 3,3 C 0,6 C 93 % 1004,1 hPa 0,0 l/m 15,8 km/h (3 Bft) W-SW 256 0 min 0,000 mm 0,0 UV-I 0 W/m -0,1 C -6,4 C 22,5 km/h (4 Bft) 93,62 %
29.01.2019 03:32 0,9 C 3,3 C 0,6 C 93 % 1004,2 hPa 0,0 l/m 11,1 km/h (2 Bft) W 273 0 min 0,000 mm 0,0 UV-I 0 W/m -0,1 C -3,3 C 19,3 km/h (3 Bft) 97,87 %
29.01.2019 03:34 0,9 C 3,3 C 0,6 C 93 % 1004,2 hPa 0,0 l/m 13,1 km/h (3 Bft) W 273 0 min 0,000 mm 0,0 UV-I 0 W/m -0,1 C -4,7 C 19,3 km/h (3 Bft) 93,75 %
29.01.2019 03:36 0,9 C 3,3 C 0,6 C 93 % 1004,4 hPa 0,0 l/m 9,9 km/h (2 Bft) W 269 0 min 0,000 mm 0,0 UV-I 0 W/m -0,1 C -2,4 C 16,1 km/h (3 Bft) 97,87 %
29.01.2019 03:38 0,9 C 3,3 C 0,6 C 93 % 1004,4 hPa 0,0 l/m 7,7 km/h (2 Bft) W-NW 292 0 min 0,000 mm 0,0 UV-I 0 W/m -0,1 C -0,4 C 14,5 km/h (3 Bft) 95,74 %
29.01.2019 03:40 0,9 C 3,3 C 0,6 C 93 % 1004,4 hPa 0,0 l/m 8,8 km/h (2 Bft) W-NW 296 0 min 0,000 mm 0,0 UV-I 0 W/m -0,1 C -1,4 C 17,7 km/h (3 Bft) 93,62 %
29.01.2019 03:42 0,9 C 3,3 C 0,6 C 93 % 1004,5 hPa 0,0 l/m 8,2 km/h (2 Bft) NW 304 0 min 0,000 mm 0,0 UV-I 0 W/m -0,1 C -0,9 C 12,9 km/h (3 Bft) 97,87 %
29.01.2019 03:44 0,9 C 3,3 C 0,6 C 93 % 1004,5 hPa 0,0 l/m 4,2 km/h (1 Bft) W 263 0 min 0,000 mm 0,0 UV-I 0 W/m -0,1 C 0,9 C 6,4 km/h (2 Bft) 96,00 %
29.01.2019 03:46 0,8 C 3,3 C 0,6 C 93 % 1004,5 hPa 0,0 l/m 6,4 km/h (2 Bft) W-NW 290 0 min 0,000 mm 0,0 UV-I 0 W/m -0,2 C 0,8 C 11,3 km/h (2 Bft) 95,74 %
29.01.2019 03:48 0,8 C 3,3 C 0,6 C 93 % 1004,6 hPa 0,0 l/m 11,3 km/h (2 Bft) W-NW 288 0 min 0,000 mm 0,0 UV-I 0 W/m -0,2 C -3,6 C 16,1 km/h (3 Bft) 96,00 %
29.01.2019 03:50 0,8 C 3,3 C 0,0 C 93 % 1004,5 hPa 0,0 l/m 20,4 km/h (4 Bft) W 270 0 min 0,000 mm 0,0 UV-I 0 W/m -0,2 C -8,8 C 32,2 km/h (5 Bft) 94,74 %
29.01.2019 03:52 0,8 C 3,3 C 0,0 C 92 % 1004,5 hPa 0,0 l/m 14,6 km/h (3 Bft) W 267 0 min 0,000 mm 0,0 UV-I 0 W/m -0,3 C -5,8 C 24,1 km/h (4 Bft) 93,62 %
29.01.2019 03:54 0,8 C 3,3 C 0,0 C 92 % 1004,6 hPa 0,0 l/m 16,2 km/h (3 Bft) W 275 0 min 0,000 mm 0,0 UV-I 0 W/m -0,3 C -6,7 C 29,0 km/h (5 Bft) 96,00 %
29.01.2019 03:56 0,7 C 3,3 C 0,0 C 93 % 1004,6 hPa 0,0 l/m 16,9 km/h (3 Bft) W 270 0 min 0,000 mm 0,0 UV-I 0 W/m -0,3 C -7,2 C 22,5 km/h (4 Bft) 97,87 %
29.01.2019 03:58 0,7 C 3,3 C 0,0 C 93 % 1004,6 hPa 0,0 l/m 15,7 km/h (3 Bft) W 279 0 min 0,000 mm 0,0 UV-I 0 W/m -0,3 C -6,5 C 24,1 km/h (4 Bft) 97,87 %
29.01.2019 04:00 0,7 C 3,3 C 0,0 C 93 % 1004,6 hPa 0,0 l/m 14,5 km/h (3 Bft) W-NW 282 0 min 0,000 mm 0,0 UV-I 0 W/m -0,3 C -5,8 C 20,9 km/h (4 Bft) 100,00 %
29.01.2019 04:02 0,7 C 3,3 C 0,0 C 93 % 1004,6 hPa 0,0 l/m 14,1 km/h (3 Bft) W-SW 243 0 min 0,000 mm 0,0 UV-I 0 W/m -0,3 C -5,6 C 20,9 km/h (4 Bft) 100,00 %
29.01.2019 04:04 0,8 C 3,3 C 0,0 C 92 % 1004,7 hPa 0,0 l/m 14,4 km/h (3 Bft) W-SW 257 0 min 0,000 mm 0,0 UV-I 0 W/m -0,3 C -5,7 C 19,3 km/h (3 Bft) 97,22 %
29.01.2019 04:06 0,8 C 3,3 C 0,0 C 92 % 1004,7 hPa 0,0 l/m 13,6 km/h (3 Bft) W 278 0 min 0,000 mm 0,0 UV-I 0 W/m -0,3 C -5,2 C 22,5 km/h (4 Bft) 100,00 %
29.01.2019 04:08 0,8 C 3,3 C 0,0 C 92 % 1004,7 hPa 0,0 l/m 13,9 km/h (3 Bft) NW 312 0 min 0,000 mm 0,0 UV-I 0 W/m -0,3 C -5,3 C 20,9 km/h (4 Bft) 100,00 %
29.01.2019 04:10 0,9 C 3,3 C 0,0 C 92 % 1004,8 hPa 0,0 l/m 11,4 km/h (2 Bft) W 260 0 min 0,000 mm 0,0 UV-I 0 W/m -0,2 C -3,5 C 20,9 km/h (4 Bft) 100,00 %
29.01.2019 04:13 0,9 C 3,3 C 0,0 C 91 % 1004,9 hPa 0,0 l/m 12,2 km/h (2 Bft) W 275 0 min 0,000 mm 0,0 UV-I 0 W/m -0,4 C -4,1 C 19,3 km/h (3 Bft) 100,00 %
29.01.2019 04:14 0,9 C 3,3 C 0,0 C 91 % 1004,9 hPa 0,0 l/m 12,3 km/h (3 Bft) W-NW 284 0 min 0,000 mm 0,0 UV-I 0 W/m -0,4 C -4,2 C 16,1 km/h (3 Bft) 100,00 %
29.01.2019 04:16 0,9 C 3,3 C 0,0 C 91 % 1004,9 hPa 0,0 l/m 12,3 km/h (3 Bft) W 263 0 min 0,000 mm 0,0 UV-I 0 W/m -0,4 C -4,2 C 20,9 km/h (4 Bft) 100,00 %
29.01.2019 04:18 0,9 C 3,3 C 0,0 C 91 % 1005,0 hPa 0,0 l/m 10,1 km/h (2 Bft) W-NW 288 0 min 0,000 mm 0,0 UV-I 0 W/m -0,4 C -2,5 C 20,9 km/h (4 Bft) 100,00 %
29.01.2019 04:20 0,8 C 3,3 C 0,0 C 91 % 1005,0 hPa 0,0 l/m 11,8 km/h (2 Bft) W 279 0 min 0,000 mm 0,0 UV-I 0 W/m -0,5 C -3,9 C 20,9 km/h (4 Bft) 100,00 %
29.01.2019 04:22 0,8 C 3,3 C 0,0 C 91 % 1004,9 hPa 0,0 l/m 10,6 km/h (2 Bft) W-NW 284 0 min 0,000 mm 0,0 UV-I 0 W/m -0,5 C -3,0 C 20,9 km/h (4 Bft) 100,00 %
29.01.2019 04:25 0,8 C 3,3 C 0,0 C 91 % 1005,0 hPa 0,0 l/m 16,9 km/h (3 Bft) W 262 0 min 0,000 mm 0,0 UV-I 0 W/m -0,5 C -7,1 C 27,4 km/h (4 Bft) 98,63 %
29.01.2019 04:26 0,8 C 3,3 C 0,0 C 91 % 1005,0 hPa 0,0 l/m 12,3 km/h (3 Bft) W 273 0 min 0,000 mm 0,0 UV-I 0 W/m -0,5 C -4,3 C 24,1 km/h (4 Bft) 100,00 %
29.01.2019 04:28 0,8 C 3,3 C 0,0 C 91 % 1005,0 hPa 0,0 l/m 15,3 km/h (3 Bft) W-SW 255 0 min 0,000 mm 0,0 UV-I 0 W/m -0,5 C -6,2 C 19,3 km/h (3 Bft) 100,00 %
29.01.2019 04:30 0,9 C 3,3 C 0,0 C 91 % 1005,0 hPa 0,0 l/m 16,2 km/h (3 Bft) W 265 0 min 0,000 mm 0,0 UV-I 0 W/m -0,4 C -6,6 C 22,5 km/h (4 Bft) 97,14 %
29.01.2019 04:32 0,9 C 3,3 C 0,0 C 91 % 1005,0 hPa 0,0 l/m 15,3 km/h (3 Bft) W-SW 256 0 min 0,000 mm 0,0 UV-I 0 W/m -0,4 C -6,1 C 22,5 km/h (4 Bft) 100,00 %
29.01.2019 04:34 0,9 C 3,3 C 0,0 C 90 % 1005,0 hPa 0,0 l/m 15,4 km/h (3 Bft) W 260 0 min 0,000 mm 0,0 UV-I 0 W/m -0,6 C -6,1 C 20,9 km/h (4 Bft) 98,00 %
29.01.2019 04:36 1,0 C 3,3 C 0,0 C 90 % 1005,1 hPa 0,0 l/m 16,0 km/h (3 Bft) W 271 0 min 0,000 mm 0,0 UV-I 0 W/m -0,5 C -6,3 C 22,5 km/h (4 Bft) 100,00 %
29.01.2019 04:38 1,1 C 3,3 C 0,6 C 89 % 1005,1 hPa 0,0 l/m 19,5 km/h (3 Bft) W 267 0 min 0,000 mm 0,0 UV-I 0 W/m -0,5 C -8,0 C 27,4 km/h (4 Bft) 100,00 %
29.01.2019 04:40 1,2 C 3,3 C 0,6 C 88 % 1005,1 hPa 0,0 l/m 17,5 km/h (3 Bft) W-SW 250 0 min 0,000 mm 0,0 UV-I 0 W/m -0,6 C -6,9 C 25,7 km/h (4 Bft) 100,00 %
29.01.2019 04:42 1,2 C 3,3 C 0,6 C 87 % 1005,2 hPa 0,0 l/m 16,2 km/h (3 Bft) W-SW 257 0 min 0,000 mm 0,0 UV-I 0 W/m -0,7 C -6,2 C 25,7 km/h (4 Bft) 100,00 %
29.01.2019 04:44 1,2 C 3,3 C 0,6 C 87 % 1005,2 hPa 0,0 l/m 15,9 km/h (3 Bft) W 269 0 min 0,000 mm 0,0 UV-I 0 W/m -0,7 C -6,0 C 25,7 km/h (4 Bft) 100,00 %
29.01.2019 04:46 1,3 C 3,3 C 0,6 C 86 % 1005,3 hPa 0,0 l/m 16,7 km/h (3 Bft) SW 217 0 min 0,000 mm 0,0 UV-I 0 W/m -0,8 C -6,3 C 24,1 km/h (4 Bft) 97,87 %
29.01.2019 04:48 1,3 C 3,3 C 0,6 C 86 % 1005,4 hPa 0,0 l/m 16,9 km/h (3 Bft) W-NW 284 0 min 0,000 mm 0,0 UV-I 0 W/m -0,8 C -6,5 C 29,0 km/h (5 Bft) 100,00 %
29.01.2019 04:50 1,3 C 3,3 C 0,6 C 85 % 1005,4 hPa 0,0 l/m 19,3 km/h (3 Bft) W-NW 290 0 min 0,000 mm 0,0 UV-I 0 W/m -0,9 C -7,6 C 25,7 km/h (4 Bft) 100,00 %
29.01.2019 04:52 1,3 C 3,3 C 0,0 C 85 % 1005,4 hPa 0,0 l/m 18,7 km/h (3 Bft) W 281 0 min 0,000 mm 0,0 UV-I 0 W/m -0,9 C -7,4 C 25,7 km/h (4 Bft) 97,87 %
29.01.2019 04:54 1,3 C 3,3 C 0,0 C 84 % 1005,5 hPa 0,0 l/m 13,0 km/h (3 Bft) W-SW 240 0 min 0,000 mm 0,0 UV-I 0 W/m -1,1 C -4,2 C 19,3 km/h (3 Bft) 97,87 %
29.01.2019 04:56 1,3 C 3,3 C 0,0 C 84 % 1005,4 hPa 0,0 l/m 22,4 km/h (4 Bft) SW 230 0 min 0,000 mm 0,0 UV-I 0 W/m -1,1 C -9,0 C 38,6 km/h (5 Bft) 97,87 %
29.01.2019 04:58 1,4 C 3,3 C 0,0 C 83 % 1005,5 hPa 0,0 l/m 23,1 km/h (4 Bft) W-SW 240 0 min 0,000 mm 0,0 UV-I 0 W/m -1,2 C -9,1 C 38,6 km/h (5 Bft) 97,87 %
29.01.2019 05:00 1,4 C 3,3 C 0,0 C 83 % 1005,5 hPa 0,0 l/m 21,6 km/h (4 Bft) W 274 0 min 0,025 mm 0,0 UV-I 0 W/m -1,2 C -8,5 C 38,6 km/h (5 Bft) 95,74 %
29.01.2019 05:02 1,4 C 3,3 C 0,0 C 83 % 1005,5 hPa 0,0 l/m 19,0 km/h (3 Bft) W-NW 294 0 min 0,000 mm 0,0 UV-I 0 W/m -1,2 C -7,4 C 25,7 km/h (4 Bft) 97,87 %
29.01.2019 05:04 1,4 C 3,3 C 0,0 C 83 % 1005,6 hPa 0,0 l/m 12,8 km/h (3 Bft) W-SW 253 0 min 0,000 mm 0,0 UV-I 0 W/m -1,2 C -3,9 C 20,9 km/h (4 Bft) 96,00 %
29.01.2019 05:06 1,4 C 3,3 C 0,0 C 83 % 1005,6 hPa 0,0 l/m 14,1 km/h (3 Bft) W-SW 251 0 min 0,000 mm 0,0 UV-I 0 W/m -1,2 C -4,8 C 19,3 km/h (3 Bft) 95,74 %
29.01.2019 05:08 1,4 C 3,3 C 0,0 C 83 % 1005,6 hPa 0,0 l/m 19,5 km/h (3 Bft) W 261 0 min 0,000 mm 0,0 UV-I 0 W/m -1,2 C -7,6 C 30,6 km/h (5 Bft) 98,00 %
29.01.2019 05:10 1,4 C 3,3 C 0,0 C 83 % 1005,7 hPa 0,0 l/m 21,7 km/h (4 Bft) W-NW 300 0 min 0,000 mm 0,0 UV-I 0 W/m -1,2 C -8,6 C 33,8 km/h (5 Bft) 97,87 %
29.01.2019 05:12 1,4 C 3,3 C 0,0 C 82 % 1005,7 hPa 0,0 l/m 19,4 km/h (3 Bft) W-SW 250 0 min 0,000 mm 0,0 UV-I 0 W/m -1,3 C -7,6 C 27,4 km/h (4 Bft) 97,87 %
29.01.2019 05:15 1,4 C 3,3 C 0,0 C 82 % 1005,7 hPa 0,0 l/m 19,4 km/h (3 Bft) W-SW 257 0 min 0,000 mm 0,0 UV-I 0 W/m -1,3 C -7,6 C 30,6 km/h (5 Bft) 100,00 %
29.01.2019 05:16 1,4 C 3,3 C 0,0 C 82 % 1005,7 hPa 0,0 l/m 18,4 km/h (3 Bft) W 261 0 min 0,000 mm 0,0 UV-I 0 W/m -1,3 C -7,1 C 24,1 km/h (4 Bft) 95,65 %
29.01.2019 05:18 1,4 C 3,3 C 0,0 C 82 % 1005,8 hPa 0,0 l/m 18,2 km/h (3 Bft) SW 215 0 min 0,000 mm 0,0 UV-I 0 W/m -1,3 C -7,0 C 25,7 km/h (4 Bft) 100,00 %
29.01.2019 05:20 1,4 C 3,3 C 0,0 C 82 % 1005,8 hPa 0,0 l/m 20,3 km/h (4 Bft) W 268 0 min 0,000 mm 0,0 UV-I 0 W/m -1,3 C -8,0 C 27,4 km/h (4 Bft) 100,00 %
29.01.2019 05:22 1,4 C 3,3 C 0,0 C 82 % 1005,8 hPa 0,0 l/m 17,3 km/h (3 Bft) W 259 0 min 0,000 mm 0,0 UV-I 0 W/m -1,3 C -6,5 C 22,5 km/h (4 Bft) 98,00 %
29.01.2019 05:24 1,4 C 3,3 C 0,0 C 82 % 1005,8 hPa 0,0 l/m 22,4 km/h (4 Bft) W 263 0 min 0,000 mm 0,0 UV-I 0 W/m -1,3 C -8,8 C 29,0 km/h (5 Bft) 100,00 %
29.01.2019 05:26 1,4 C 3,3 C 0,0 C 81 % 1005,8 hPa 0,0 l/m 21,0 km/h (4 Bft) W 277 0 min 0,000 mm 0,0 UV-I 0 W/m -1,5 C -8,3 C 33,8 km/h (5 Bft) 100,00 %
29.01.2019 05:28 1,4 C 3,3 C 0,0 C 81 % 1005,9 hPa 0,0 l/m 22,7 km/h (4 Bft) W 269 0 min 0,000 mm 0,0 UV-I 0 W/m -1,5 C -9,0 C 32,2 km/h (5 Bft) 100,00 %
29.01.2019 05:30 1,4 C 3,3 C 0,0 C 81 % 1005,9 hPa 0,0 l/m 17,2 km/h (3 Bft) SW 229 0 min 0,000 mm 0,0 UV-I 0 W/m -1,5 C -6,5 C 24,1 km/h (4 Bft) 97,92 %
29.01.2019 05:32 1,4 C 3,3 C 0,0 C 80 % 1005,9 hPa 0,0 l/m 19,8 km/h (3 Bft) W-SW 253 0 min 0,000 mm 0,0 UV-I 0 W/m -1,7 C -7,7 C 27,4 km/h (4 Bft) 97,87 %
29.01.2019 05:34 1,4 C 3,3 C 0,0 C 80 % 1005,9 hPa 0,0 l/m 22,2 km/h (4 Bft) W-NW 284 0 min 0,000 mm 0,0 UV-I 0 W/m -1,7 C -8,8 C 32,2 km/h (5 Bft) 93,62 %
29.01.2019 05:36 1,4 C 3,3 C 0,0 C 80 % 1006,0 hPa 0,0 l/m 17,6 km/h (3 Bft) W 271 0 min 0,000 mm 0,0 UV-I 0 W/m -1,7 C -6,7 C 33,8 km/h (5 Bft) 95,74 %
29.01.2019 05:38 1,4 C 3,3 C 0,0 C 80 % 1006,0 hPa 0,0 l/m 18,3 km/h (3 Bft) W-NW 284 0 min 0,000 mm 0,0 UV-I 0 W/m -1,7 C -7,0 C 24,1 km/h (4 Bft) 97,87 %
29.01.2019 05:40 1,4 C 3,3 C 0,0 C 80 % 1006,1 hPa 0,0 l/m 16,4 km/h (3 Bft) W-NW 288 0 min 0,000 mm 0,0 UV-I 0 W/m -1,7 C -6,1 C 32,2 km/h (5 Bft) 95,74 %
29.01.2019 05:42 1,4 C 3,3 C 0,0 C 80 % 1006,0 hPa 0,0 l/m 18,2 km/h (3 Bft) W-SW 257 0 min 0,000 mm 0,0 UV-I 0 W/m -1,7 C -7,0 C 27,4 km/h (4 Bft) 97,87 %
29.01.2019 05:44 1,4 C 3,3 C 0,0 C 80 % 1006,1 hPa 0,0 l/m 23,0 km/h (4 Bft) W 278 0 min 0,000 mm 0,0 UV-I 0 W/m -1,7 C -9,1 C 30,6 km/h (5 Bft) 97,87 %
29.01.2019 05:46 1,4 C 3,3 C 0,0 C 80 % 1006,2 hPa 0,0 l/m 16,4 km/h (3 Bft) W 267 0 min 0,000 mm 0,0 UV-I 0 W/m -1,7 C -6,1 C 27,4 km/h (4 Bft) 95,74 %
29.01.2019 05:48 1,4 C 3,3 C 0,0 C 80 % 1006,1 hPa 0,0 l/m 17,9 km/h (3 Bft) W 272 0 min 0,000 mm 0,0 UV-I 0 W/m -1,7 C -6,8 C 29,0 km/h (5 Bft) 95,74 %
29.01.2019 05:50 1,3 C 3,3 C 0,0 C 79 % 1006,1 hPa 0,0 l/m 18,4 km/h (3 Bft) W 275 0 min 0,000 mm 0,0 UV-I 0 W/m -1,9 C -7,2 C 25,7 km/h (4 Bft) 97,87 %
29.01.2019 05:52 1,3 C 3,3 C 0,0 C 79 % 1006,1 hPa 0,0 l/m 18,0 km/h (3 Bft) W 278 0 min 0,000 mm 0,0 UV-I 0 W/m -1,9 C -7,0 C 27,4 km/h (4 Bft) 95,74 %
29.01.2019 05:54 1,3 C 3,3 C 0,0 C 79 % 1006,1 hPa 0,0 l/m 23,3 km/h (4 Bft) W 263 0 min 0,000 mm 0,0 UV-I 0 W/m -1,9 C -9,3 C 32,2 km/h (5 Bft) 95,74 %
29.01.2019 05:56 1,3 C 3,3 C 0,0 C 79 % 1006,1 hPa 0,0 l/m 21,3 km/h (4 Bft) W 264 0 min 0,000 mm 0,0 UV-I 0 W/m -1,9 C -8,5 C 32,2 km/h (5 Bft) 97,87 %
29.01.2019 05:58 1,3 C 3,3 C 0,0 C 79 % 1006,1 hPa 0,0 l/m 17,1 km/h (3 Bft) W 274 0 min 0,000 mm 0,0 UV-I 0 W/m -1,9 C -6,6 C 32,2 km/h (5 Bft) 97,87 %
29.01.2019 06:00 1,3 C 3,3 C 0,0 C 79 % 1006,2 hPa 0,0 l/m 24,4 km/h (4 Bft) W-SW 252 0 min 0,026 mm 0,0 UV-I 0 W/m -1,9 C -9,7 C 37,0 km/h (5 Bft) 95,74 %
29.01.2019 06:02 1,3 C 3,3 C 0,0 C 79 % 1006,2 hPa 0,0 l/m 18,9 km/h (3 Bft) SW 231 0 min 0,000 mm 0,0 UV-I 0 W/m -1,9 C -7,4 C 32,2 km/h (5 Bft) 93,62 %
29.01.2019 06:04 1,2 C 3,3 C 0,0 C 79 % 1006,2 hPa 0,0 l/m 22,0 km/h (4 Bft) W 277 0 min 0,000 mm 0,0 UV-I 0 W/m -2,0 C -8,9 C 32,2 km/h (5 Bft) 95,74 %
29.01.2019 06:06 1,2 C 3,3 C 0,0 C 79 % 1006,3 hPa 0,0 l/m 19,7 km/h (3 Bft) W-SW 257 0 min 0,000 mm 0,0 UV-I 0 W/m -2,0 C -7,9 C 29,0 km/h (5 Bft) 95,83 %
29.01.2019 06:08 1,2 C 3,3 C 0,0 C 79 % 1006,3 hPa 0,0 l/m 19,9 km/h (4 Bft) W 275 0 min 0,000 mm 0,0 UV-I 0 W/m -2,0 C -8,0 C 32,2 km/h (5 Bft) 95,74 %
29.01.2019 06:10 1,2 C 3,3 C 0,0 C 78 % 1006,4 hPa 0,0 l/m 22,5 km/h (4 Bft) W 277 0 min 0,000 mm 0,0 UV-I 0 W/m -2,2 C -9,1 C 41,8 km/h (6 Bft) 97,87 %
29.01.2019 06:12 1,1 C 3,3 C -0,6 C 78 % 1006,4 hPa 0,0 l/m 20,2 km/h (4 Bft) W 263 0 min 0,000 mm 0,0 UV-I 0 W/m -2,3 C -8,3 C 30,6 km/h (5 Bft) 97,37 %
29.01.2019 06:14 1,1 C 3,3 C -0,6 C 78 % 1006,4 hPa 0,0 l/m 21,5 km/h (4 Bft) W 271 0 min 0,000 mm 0,0 UV-I 0 W/m -2,3 C -8,9 C 29,0 km/h (5 Bft) 95,74 %
29.01.2019 06:16 1,1 C 3,3 C -0,6 C 78 % 1006,5 hPa 0,0 l/m 15,1 km/h (3 Bft) W-SW 249 0 min 0,000 mm 0,0 UV-I 0 W/m -2,3 C -5,7 C 30,6 km/h (5 Bft) 97,87 %
29.01.2019 06:18 1,1 C 3,3 C 0,0 C 78 % 1006,6 hPa 0,0 l/m 16,8 km/h (3 Bft) W-SW 243 0 min 0,000 mm 0,0 UV-I 0 W/m -2,3 C -6,6 C 33,8 km/h (5 Bft) 97,87 %
29.01.2019 06:20 1,1 C 3,3 C 0,0 C 78 % 1006,6 hPa 0,0 l/m 16,8 km/h (3 Bft) W-SW 240 0 min 0,000 mm 0,0 UV-I 0 W/m -2,3 C -6,6 C 25,7 km/h (4 Bft) 95,74 %
29.01.2019 06:22 1,1 C 3,3 C 0,0 C 78 % 1006,6 hPa 0,0 l/m 20,1 km/h (4 Bft) W 273 0 min 0,000 mm 0,0 UV-I 0 W/m -2,3 C -8,3 C 30,6 km/h (5 Bft) 95,74 %
29.01.2019 06:24 1,1 C 3,3 C 0,0 C 78 % 1006,6 hPa 0,0 l/m 22,9 km/h (4 Bft) W 275 0 min 0,000 mm 0,0 UV-I 0 W/m -2,3 C -9,4 C 32,2 km/h (5 Bft) 94,00 %
29.01.2019 06:26 1,1 C 3,3 C 0,0 C 78 % 1006,7 hPa 0,0 l/m 15,2 km/h (3 Bft) W-SW 248 0 min 0,000 mm 0,0 UV-I 0 W/m -2,3 C -5,8 C 24,1 km/h (4 Bft) 94,00 %
29.01.2019 06:28 1,1 C 3,3 C 0,0 C 78 % 1006,6 hPa 0,0 l/m 16,4 km/h (3 Bft) SW 217 0 min 0,000 mm 0,0 UV-I 0 W/m -2,3 C -6,4 C 25,7 km/h (4 Bft) 95,74 %
29.01.2019 06:30 1,1 C 3,3 C 0,0 C 78 % 1006,6 hPa 0,0 l/m 21,1 km/h (4 Bft) W 272 0 min 0,000 mm 0,0 UV-I 0 W/m -2,3 C -8,7 C 30,6 km/h (5 Bft) 95,74 %
29.01.2019 06:32 1,1 C 3,3 C 0,0 C 78 % 1006,7 hPa 0,0 l/m 16,0 km/h (3 Bft) W-SW 250 0 min 0,000 mm 0,0 UV-I 0 W/m -2,3 C -6,2 C 20,9 km/h (4 Bft) 97,87 %
29.01.2019 06:34 1,1 C 3,3 C -0,6 C 78 % 1006,7 hPa 0,0 l/m 17,0 km/h (3 Bft) W 280 0 min 0,000 mm 0,0 UV-I 0 W/m -2,3 C -6,8 C 22,5 km/h (4 Bft) 95,74 %
29.01.2019 06:36 1,0 C 3,3 C -0,6 C 78 % 1006,8 hPa 0,0 l/m 21,4 km/h (4 Bft) W 265 0 min 0,000 mm 0,0 UV-I 0 W/m -2,4 C -9,0 C 32,2 km/h (5 Bft) 97,37 %
29.01.2019 06:38 1,0 C 3,3 C -0,6 C 78 % 1006,8 hPa 0,0 l/m 17,3 km/h (3 Bft) W-SW 255 0 min 0,000 mm 0,0 UV-I 0 W/m -2,4 C -7,0 C 24,1 km/h (4 Bft) 95,74 %
29.01.2019 06:40 1,0 C 3,3 C -0,6 C 78 % 1006,9 hPa 0,0 l/m 18,0 km/h (3 Bft) W 279 0 min 0,000 mm 0,0 UV-I 0 W/m -2,4 C -7,4 C 25,7 km/h (4 Bft) 97,87 %
29.01.2019 06:42 1,0 C 3,3 C -0,6 C 78 % 1006,9 hPa 0,0 l/m 16,0 km/h (3 Bft) W 276 0 min 0,000 mm 0,0 UV-I 0 W/m -2,4 C -6,3 C 25,7 km/h (4 Bft) 95,83 %
29.01.2019 06:44 1,0 C 3,3 C -0,6 C 78 % 1006,9 hPa 0,0 l/m 20,6 km/h (4 Bft) W 261 0 min 0,000 mm 0,0 UV-I 0 W/m -2,4 C -8,6 C 30,6 km/h (5 Bft) 95,74 %
29.01.2019 06:46 1,0 C 3,3 C 0,0 C 78 % 1006,9 hPa 0,0 l/m 19,6 km/h (3 Bft) W 259 0 min 0,000 mm 0,0 UV-I 0 W/m -2,4 C -8,2 C 30,6 km/h (5 Bft) 96,23 %
29.01.2019 06:48 1,0 C 3,3 C 0,0 C 78 % 1007,0 hPa 0,0 l/m 17,1 km/h (3 Bft) W-SW 252 0 min 0,000 mm 0,0 UV-I 0 W/m -2,4 C -6,9 C 25,7 km/h (4 Bft) 95,74 %
29.01.2019 06:50 1,0 C 3,3 C 0,0 C 78 % 1007,0 hPa 0,0 l/m 16,5 km/h (3 Bft) W-SW 248 0 min 0,000 mm 0,0 UV-I 0 W/m -2,4 C -6,6 C 24,1 km/h (4 Bft) 95,74 %
29.01.2019 06:52 1,0 C 3,3 C -0,6 C 78 % 1007,0 hPa 0,0 l/m 14,1 km/h (3 Bft) W 263 0 min 0,000 mm 0,0 UV-I 0 W/m -2,4 C -5,2 C 24,1 km/h (4 Bft) 97,87 %
29.01.2019 06:54 1,0 C 3,3 C -0,6 C 78 % 1007,1 hPa 0,0 l/m 18,1 km/h (3 Bft) W-NW 284 0 min 0,000 mm 0,0 UV-I 0 W/m -2,4 C -7,4 C 27,4 km/h (4 Bft) 97,37 %
29.01.2019 06:56 0,9 C 3,3 C -0,6 C 78 % 1007,0 hPa 0,0 l/m 13,0 km/h (3 Bft) W-SW 257 0 min 0,000 mm 0,0 UV-I 0 W/m -2,5 C -4,6 C 25,7 km/h (4 Bft) 93,62 %
29.01.2019 06:58 0,9 C 3,3 C -0,6 C 78 % 1007,1 hPa 0,0 l/m 17,7 km/h (3 Bft) W-SW 243 0 min 0,000 mm 0,0 UV-I 0 W/m -2,5 C -7,4 C 24,1 km/h (4 Bft) 97,87 %
29.01.2019 07:00 0,9 C 3,3 C -0,6 C 78 % 1007,1 hPa 0,0 l/m 17,4 km/h (3 Bft) W-SW 258 0 min 0,025 mm 0,0 UV-I 0 W/m -2,5 C -7,2 C 24,1 km/h (4 Bft) 95,92 %
29.01.2019 07:02 0,9 C 3,3 C -0,6 C 78 % 1007,1 hPa 0,0 l/m 17,1 km/h (3 Bft) W 275 0 min 0,000 mm 0,0 UV-I 0 W/m -2,5 C -7,1 C 22,5 km/h (4 Bft) 95,74 %
29.01.2019 07:04 0,9 C 3,3 C -0,6 C 78 % 1007,1 hPa 0,0 l/m 16,6 km/h (3 Bft) W 262 0 min 0,000 mm 0,0 UV-I 0 W/m -2,5 C -6,8 C 27,4 km/h (4 Bft) 98,00 %
29.01.2019 07:06 0,9 C 3,3 C -0,6 C 78 % 1007,1 hPa 0,0 l/m 16,3 km/h (3 Bft) W-SW 250 0 min 0,000 mm 0,0 UV-I 0 W/m -2,5 C -6,6 C 24,1 km/h (4 Bft) 95,74 %
29.01.2019 07:08 0,9 C 3,3 C -0,6 C 79 % 1007,2 hPa 0,0 l/m 16,3 km/h (3 Bft) W-SW 242 0 min 0,000 mm 0,0 UV-I 0 W/m -2,3 C -6,6 C 25,7 km/h (4 Bft) 100,00 %
29.01.2019 07:10 0,8 C 3,3 C 0,0 C 79 % 1007,2 hPa 0,0 l/m 16,2 km/h (3 Bft) W-SW 242 0 min 0,000 mm 0,0 UV-I 0 W/m -2,4 C -6,7 C 24,1 km/h (4 Bft) 91,84 %
29.01.2019 07:12 0,8 C 3,3 C -0,6 C 80 % 1007,2 hPa 0,0 l/m 17,4 km/h (3 Bft) W-SW 243 0 min 0,000 mm 0,0 UV-I 0 W/m -2,2 C -7,3 C 24,1 km/h (4 Bft) 97,87 %
29.01.2019 07:14 0,8 C 3,3 C -0,6 C 80 % 1007,2 hPa 0,0 l/m 17,4 km/h (3 Bft) SW 214 0 min 0,000 mm 0,0 UV-I 0 W/m -2,2 C -7,3 C 27,4 km/h (4 Bft) 94,44 %
29.01.2019 07:16 0,7 C 3,3 C -0,6 C 80 % 1007,3 hPa 0,0 l/m 15,2 km/h (3 Bft) W-SW 242 0 min 0,000 mm 0,0 UV-I 0 W/m -2,3 C -6,3 C 22,5 km/h (4 Bft) 96,00 %
29.01.2019 07:18 0,7 C 3,3 C -0,6 C 81 % 1007,3 hPa 0,0 l/m 14,6 km/h (3 Bft) SW 234 0 min 0,000 mm 0,0 UV-I 0 W/m -2,2 C -5,9 C 24,1 km/h (4 Bft) 97,87 %
29.01.2019 07:20 0,7 C 3,3 C -0,6 C 81 % 1007,3 hPa 0,0 l/m 15,2 km/h (3 Bft) W 259 0 min 0,000 mm 0,0 UV-I 0 W/m -2,2 C -6,3 C 22,5 km/h (4 Bft) 97,87 %
29.01.2019 07:22 0,7 C 3,3 C -0,6 C 81 % 1007,3 hPa 0,0 l/m 15,7 km/h (3 Bft) W-SW 256 0 min 0,000 mm 0,0 UV-I 0 W/m -2,2 C -6,5 C 20,9 km/h (4 Bft) 97,87 %
29.01.2019 07:24 0,7 C 3,3 C -0,6 C 81 % 1007,3 hPa 0,0 l/m 13,4 km/h (3 Bft) SW 229 0 min 0,000 mm 0,0 UV-I 0 W/m -2,2 C -5,1 C 17,7 km/h (3 Bft) 96,00 %
29.01.2019 07:26 0,6 C 3,3 C -0,6 C 81 % 1007,3 hPa 0,0 l/m 14,5 km/h (3 Bft) W-SW 249 0 min 0,000 mm 0,0 UV-I 3 W/m -2,3 C -6,0 C 20,9 km/h (4 Bft) 97,87 %
29.01.2019 07:28 0,6 C 3,3 C -0,6 C 82 % 1007,3 hPa 0,0 l/m 17,1 km/h (3 Bft) W-SW 242 0 min 0,000 mm 0,0 UV-I 5 W/m -2,1 C -7,4 C 22,5 km/h (4 Bft) 97,87 %
29.01.2019 07:30 0,6 C 3,3 C -0,6 C 81 % 1007,3 hPa 0,0 l/m 15,2 km/h (3 Bft) W 271 0 min 0,000 mm 0,0 UV-I 5 W/m -2,3 C -6,4 C 22,5 km/h (4 Bft) 95,74 %
29.01.2019 07:32 0,6 C 3,3 C -0,6 C 82 % 1007,4 hPa 0,0 l/m 15,9 km/h (3 Bft) W 269 0 min 0,000 mm 0,0 UV-I 5 W/m -2,1 C -6,8 C 22,5 km/h (4 Bft) 97,87 %
29.01.2019 07:34 0,6 C 3,3 C -0,6 C 82 % 1007,3 hPa 0,0 l/m 16,4 km/h (3 Bft) W 272 0 min 0,000 mm 0,0 UV-I 5 W/m -2,1 C -7,1 C 22,5 km/h (4 Bft) 96,23 %
29.01.2019 07:36 0,6 C 3,3 C -0,6 C 82 % 1007,5 hPa 0,0 l/m 14,8 km/h (3 Bft) W-SW 246 0 min 0,000 mm 0,0 UV-I 7 W/m -2,1 C -6,1 C 20,9 km/h (4 Bft) 97,37 %
29.01.2019 07:38 0,6 C 3,3 C -0,6 C 81 % 1007,5 hPa 0,0 l/m 15,7 km/h (3 Bft) W-SW 251 0 min 0,000 mm 0,0 UV-I 7 W/m -2,3 C -6,7 C 22,5 km/h (4 Bft) 98,11 %
29.01.2019 07:40 0,6 C 3,3 C -0,6 C 81 % 1007,5 hPa 0,0 l/m 15,8 km/h (3 Bft) W-SW 246 0 min 0,000 mm 0,0 UV-I 8 W/m -2,3 C -6,7 C 24,1 km/h (4 Bft) 97,87 %
29.01.2019 07:42 0,7 C 3,3 C -0,6 C 81 % 1007,5 hPa 0,0 l/m 18,7 km/h (3 Bft) W-SW 248 0 min 0,000 mm 0,0 UV-I 9 W/m -2,2 C -8,1 C 25,7 km/h (4 Bft) 93,62 %
29.01.2019 07:44 0,7 C 3,3 C -0,6 C 81 % 1007,5 hPa 0,0 l/m 14,8 km/h (3 Bft) W-SW 242 0 min 0,000 mm 0,0 UV-I 10 W/m -2,2 C -6,0 C 22,5 km/h (4 Bft) 97,96 %
29.01.2019 07:46 0,6 C 3,3 C -0,6 C 81 % 1007,5 hPa 0,0 l/m 16,7 km/h (3 Bft) SW 227 0 min 0,000 mm 0,0 UV-I 11 W/m -2,3 C -7,2 C 25,7 km/h (4 Bft) 100,00 %
29.01.2019 07:48 0,6 C 3,3 C -0,6 C 81 % 1007,5 hPa 0,0 l/m 23,6 km/h (4 Bft) W 260 2 min 0,000 mm 0,0 UV-I 12 W/m -2,3 C -10,4 C 29,0 km/h (5 Bft) 95,74 %
29.01.2019 07:50 0,6 C 3,3 C -0,6 C 81 % 1007,5 hPa 0,0 l/m 15,3 km/h (3 Bft) W-SW 257 2 min 0,000 mm 0,0 UV-I 13 W/m -2,3 C -6,4 C 22,5 km/h (4 Bft) 95,74 %
29.01.2019 07:52 0,7 C 3,3 C -0,6 C 81 % 1007,6 hPa 0,0 l/m 19,9 km/h (4 Bft) W-SW 242 2 min 0,000 mm 0,0 UV-I 15 W/m -2,2 C -8,7 C 29,0 km/h (5 Bft) 97,87 %
29.01.2019 07:54 0,7 C 3,3 C 0,0 C 81 % 1007,6 hPa 0,0 l/m 19,8 km/h (3 Bft) W-SW 258 2 min 0,000 mm 0,0 UV-I 18 W/m -2,2 C -8,6 C 29,0 km/h (5 Bft) 97,87 %
29.01.2019 07:56 0,7 C 3,3 C 0,0 C 81 % 1007,7 hPa 0,0 l/m 16,6 km/h (3 Bft) W 274 0 min 0,000 mm 0,0 UV-I 20 W/m -2,2 C -7,0 C 29,0 km/h (5 Bft) 95,83 %
29.01.2019 07:58 0,7 C 3,3 C -0,6 C 81 % 1007,7 hPa 0,0 l/m 18,8 km/h (3 Bft) W 266 0 min 0,000 mm 0,0 UV-I 23 W/m -2,2 C -8,2 C 32,2 km/h (5 Bft) 97,83 %
29.01.2019 08:00 0,7 C 3,3 C 0,0 C 81 % 1007,7 hPa 0,0 l/m 18,9 km/h (3 Bft) W 263 0 min 0,025 mm 0,0 UV-I 25 W/m -2,2 C -8,2 C 32,2 km/h (5 Bft) 95,83 %
29.01.2019 08:02 0,7 C 3,3 C 0,0 C 81 % 1007,8 hPa 0,0 l/m 16,1 km/h (3 Bft) S-SW 197 0 min 0,000 mm 0,0 UV-I 28 W/m -2,2 C -6,8 C 22,5 km/h (4 Bft) 97,87 %
29.01.2019 08:04 0,7 C 3,3 C 0,0 C 81 % 1007,8 hPa 0,0 l/m 17,4 km/h (3 Bft) W-SW 253 2 min 0,000 mm 0,0 UV-I 32 W/m -2,2 C -7,5 C 27,4 km/h (4 Bft) 97,87 %
29.01.2019 08:06 0,7 C 3,3 C 0,0 C 81 % 1007,9 hPa 0,0 l/m 17,9 km/h (3 Bft) W-SW 248 2 min 0,000 mm 0,0 UV-I 37 W/m -2,2 C -7,7 C 30,6 km/h (5 Bft) 95,74 %
29.01.2019 08:08 0,7 C 3,3 C 0,0 C 82 % 1007,9 hPa 0,0 l/m 17,9 km/h (3 Bft) W-SW 257 2 min 0,000 mm 0,0 UV-I 42 W/m -2,0 C -7,7 C 30,6 km/h (5 Bft) 97,87 %
29.01.2019 08:10 0,7 C 3,3 C 0,0 C 82 % 1007,9 hPa 0,0 l/m 15,0 km/h (3 Bft) W 278 2 min 0,000 mm 0,0 UV-I 48 W/m -2,0 C -6,1 C 22,5 km/h (4 Bft) 96,23 %
29.01.2019 08:12 0,7 C 3,3 C 0,0 C 82 % 1007,9 hPa 0,0 l/m 17,9 km/h (3 Bft) W-SW 244 2 min 0,000 mm 0,0 UV-I 51 W/m -2,0 C -7,7 C 24,1 km/h (4 Bft) 97,87 %
29.01.2019 08:14 0,6 C 3,3 C 0,0 C 82 % 1008,0 hPa 0,0 l/m 16,1 km/h (3 Bft) W-SW 258 2 min 0,000 mm 0,0 UV-I 51 W/m -2,1 C -6,9 C 24,1 km/h (4 Bft) 95,74 %
29.01.2019 08:16 0,6 C 3,3 C 0,0 C 83 % 1008,0 hPa 0,0 l/m 16,1 km/h (3 Bft) W-NW 290 2 min 0,000 mm 0,0 UV-I 57 W/m -1,9 C -6,9 C 22,5 km/h (4 Bft) 93,62 %
29.01.2019 08:18 0,6 C 3,3 C 0,0 C 83 % 1008,0 hPa 0,0 l/m 14,3 km/h (3 Bft) W-SW 248 2 min 0,000 mm 0,0 UV-I 67 W/m -1,9 C -5,8 C 20,9 km/h (4 Bft) 94,74 %
29.01.2019 08:20 0,6 C 3,3 C 0,0 C 83 % 1008,0 hPa 0,0 l/m 14,7 km/h (3 Bft) W-SW 240 2 min 0,000 mm 0,0 UV-I 69 W/m -1,9 C -6,1 C 22,5 km/h (4 Bft) 95,74 %
29.01.2019 08:22 0,6 C 3,3 C 0,0 C 83 % 1008,1 hPa 0,0 l/m 17,6 km/h (3 Bft) SW 236 2 min 0,000 mm 0,0 UV-I 71 W/m -1,9 C -7,7 C 24,1 km/h (4 Bft) 100,00 %
29.01.2019 08:24 0,6 C 3,3 C 0,0 C 83 % 1008,2 hPa 0,0 l/m 15,8 km/h (3 Bft) W-SW 248 2 min 0,000 mm 0,0 UV-I 68 W/m -1,9 C -6,7 C 25,7 km/h (4 Bft) 100,00 %
29.01.2019 08:26 0,6 C 3,3 C 0,0 C 83 % 1008,2 hPa 0,0 l/m 15,8 km/h (3 Bft) W-SW 250 2 min 0,000 mm 0,0 UV-I 72 W/m -1,9 C -6,7 C 22,5 km/h (4 Bft) 100,00 %
29.01.2019 08:28 0,6 C 3,3 C 0,0 C 83 % 1008,2 hPa 0,0 l/m 17,7 km/h (3 Bft) SW 229 2 min 0,000 mm 0,0 UV-I 75 W/m -1,9 C -7,7 C 30,6 km/h (5 Bft) 100,00 %
29.01.2019 08:30 0,6 C 3,3 C 0,0 C 83 % 1008,3 hPa 0,0 l/m 19,0 km/h (3 Bft) SW 232 2 min 0,000 mm 0,0 UV-I 75 W/m -1,9 C -8,4 C 29,0 km/h (5 Bft) 98,00 %
29.01.2019 08:32 0,6 C 3,3 C 0,0 C 83 % 1008,3 hPa 0,0 l/m 15,7 km/h (3 Bft) W 267 2 min 0,000 mm 0,0 UV-I 77 W/m -1,9 C -6,7 C 25,7 km/h (4 Bft) 100,00 %
29.01.2019 08:34 0,6 C 3,3 C 0,0 C 83 % 1008,3 hPa 0,0 l/m 15,9 km/h (3 Bft) W 262 2 min 0,000 mm 0,0 UV-I 85 W/m -1,9 C -6,8 C 24,1 km/h (4 Bft) 100,00 %
29.01.2019 08:36 0,6 C 3,3 C 0,6 C 83 % 1008,3 hPa 0,0 l/m 15,5 km/h (3 Bft) W-SW 257 2 min 0,000 mm 0,0 UV-I 92 W/m -1,9 C -6,5 C 20,9 km/h (4 Bft) 97,87 %
29.01.2019 08:38 0,6 C 3,3 C 0,6 C 83 % 1008,4 hPa 0,0 l/m 16,5 km/h (3 Bft) W-SW 248 2 min 0,000 mm 0,0 UV-I 97 W/m -1,9 C -7,1 C 27,4 km/h (4 Bft) 96,36 %
29.01.2019 08:40 0,6 C 3,3 C 0,6 C 84 % 1008,4 hPa 0,0 l/m 18,6 km/h (3 Bft) SW 227 2 min 0,000 mm 0,0 UV-I 104 W/m -1,8 C -8,2 C 25,7 km/h (4 Bft) 97,56 %
29.01.2019 08:42 0,6 C 3,3 C 0,6 C 84 % 1008,4 hPa 0,0 l/m 16,9 km/h (3 Bft) W 276 2 min 0,000 mm 0,0 UV-I 121 W/m -1,8 C -7,3 C 25,7 km/h (4 Bft) 93,62 %
29.01.2019 08:44 0,6 C 3,3 C 0,6 C 84 % 1008,4 hPa 0,0 l/m 17,3 km/h (3 Bft) W-NW 282 2 min 0,000 mm 0,0 UV-I 145 W/m -1,8 C -7,5 C 24,1 km/h (4 Bft) 98,00 %
29.01.2019 08:46 0,6 C 3,3 C 1,1 C 85 % 1008,4 hPa 0,0 l/m 21,6 km/h (4 Bft) SW 235 2 min 0,000 mm 0,0 UV-I 165 W/m -1,6 C -9,6 C 29,0 km/h (5 Bft) 95,74 %
29.01.2019 08:48 0,6 C 3,3 C 1,1 C 85 % 1008,5 hPa 0,0 l/m 17,6 km/h (3 Bft) SW 230 2 min 0,000 mm 0,0 UV-I 168 W/m -1,6 C -7,7 C 24,1 km/h (4 Bft) 93,62 %
29.01.2019 08:50 0,6 C 3,3 C 1,1 C 85 % 1008,5 hPa 0,0 l/m 19,2 km/h (3 Bft) SW 229 2 min 0,000 mm 0,0 UV-I 105 W/m -1,6 C -8,5 C 27,4 km/h (4 Bft) 97,50 %
29.01.2019 08:52 0,5 C 3,3 C 1,1 C 85 % 1008,5 hPa 0,0 l/m 17,7 km/h (3 Bft) SW 228 2 min 0,000 mm 0,0 UV-I 108 W/m -1,7 C -7,9 C 25,7 km/h (4 Bft) 97,87 %
29.01.2019 08:54 0,5 C 3,3 C 1,1 C 86 % 1008,6 hPa 0,0 l/m 17,3 km/h (3 Bft) W-SW 253 2 min 0,000 mm 0,0 UV-I 106 W/m -1,6 C -7,7 C 29,0 km/h (5 Bft) 97,87 %
29.01.2019 08:56 0,4 C 3,3 C 1,1 C 86 % 1008,6 hPa 0,0 l/m 18,8 km/h (3 Bft) W 271 2 min 0,000 mm 0,0 UV-I 111 W/m -1,7 C -8,5 C 25,7 km/h (4 Bft) 97,87 %
29.01.2019 08:58 0,4 C 3,3 C 0,6 C 86 % 1008,6 hPa 0,0 l/m 19,0 km/h (3 Bft) W-SW 249 2 min 0,000 mm 0,0 UV-I 110 W/m -1,7 C -8,6 C 24,1 km/h (4 Bft) 98,00 %
29.01.2019 09:00 0,4 C 3,3 C 0,6 C 86 % 1008,7 hPa 0,0 l/m 16,7 km/h (3 Bft) W-SW 247 2 min 0,051 mm 0,0 UV-I 110 W/m -1,7 C -7,5 C 24,1 km/h (4 Bft) 95,74 %
29.01.2019 09:02 0,4 C 3,3 C 0,6 C 86 % 1008,7 hPa 0,0 l/m 17,4 km/h (3 Bft) S-SW 211 0 min 0,000 mm 0,0 UV-I 95 W/m -1,7 C -7,8 C 24,1 km/h (4 Bft) 100,00 %
29.01.2019 09:04 0,3 C 3,3 C 0,6 C 87 % 1008,7 hPa 0,0 l/m 19,9 km/h (4 Bft) W 265 0 min 0,000 mm 0,0 UV-I 107 W/m -1,6 C -9,2 C 25,7 km/h (4 Bft) 100,00 %
29.01.2019 09:06 0,3 C 3,3 C 0,6 C 87 % 1008,6 hPa 0,0 l/m 15,3 km/h (3 Bft) SW 220 2 min 0,000 mm 0,0 UV-I 153 W/m -1,6 C -6,8 C 25,7 km/h (4 Bft) 100,00 %
29.01.2019 09:08 0,4 C 3,3 C 1,1 C 87 % 1008,6 hPa 0,0 l/m 16,9 km/h (3 Bft) W-SW 243 2 min 0,000 mm 0,0 UV-I 199 W/m -1,5 C -7,6 C 27,4 km/h (4 Bft) 100,00 %
29.01.2019 09:10 0,4 C 3,3 C 1,1 C 87 % 1008,6 hPa 0,0 l/m 20,5 km/h (4 Bft) SW 229 2 min 0,000 mm 0,0 UV-I 165 W/m -1,5 C -9,3 C 27,4 km/h (4 Bft) 100,00 %
29.01.2019 09:12 0,4 C 3,3 C 1,1 C 87 % 1008,7 hPa 0,0 l/m 16,8 km/h (3 Bft) W-SW 238 2 min 0,000 mm 0,0 UV-I 178 W/m -1,5 C -7,5 C 29,0 km/h (5 Bft) 100,00 %
29.01.2019 09:14 0,5 C 3,3 C 1,1 C 87 % 1008,6 hPa 0,0 l/m 20,0 km/h (4 Bft) W 265 2 min 0,000 mm 0,0 UV-I 143 W/m -1,4 C -9,0 C 27,4 km/h (4 Bft) 100,00 %
29.01.2019 09:16 0,5 C 3,3 C 1,1 C 87 % 1008,6 hPa 0,0 l/m 20,3 km/h (4 Bft) W 275 2 min 0,000 mm 0,0 UV-I 209 W/m -1,4 C -9,1 C 29,0 km/h (5 Bft) 100,00 %
29.01.2019 09:18 0,6 C 3,3 C 1,1 C 87 % 1008,7 hPa 0,0 l/m 16,8 km/h (3 Bft) W-SW 250 2 min 0,000 mm 0,0 UV-I 188 W/m -1,3 C -7,3 C 22,5 km/h (4 Bft) 97,87 %
29.01.2019 09:20 0,6 C 3,3 C 0,6 C 86 % 1008,7 hPa 0,0 l/m 12,9 km/h (3 Bft) W 265 0 min 0,000 mm 0,0 UV-I 107 W/m -1,5 C -4,9 C 19,3 km/h (3 Bft) 97,87 %
29.01.2019 09:22 0,6 C 3,3 C 0,6 C 86 % 1008,7 hPa 0,0 l/m 15,3 km/h (3 Bft) W-SW 248 0 min 0,000 mm 0,0 UV-I 96 W/m -1,5 C -6,4 C 22,5 km/h (4 Bft) 97,92 %
29.01.2019 09:24 0,6 C 3,3 C 1,1 C 86 % 1008,7 hPa 0,0 l/m 15,7 km/h (3 Bft) W 264 2 min 0,000 mm 0,0 UV-I 160 W/m -1,5 C -6,7 C 32,2 km/h (5 Bft) 100,00 %
29.01.2019 09:26 0,7 C 3,3 C 1,1 C 86 % 1008,7 hPa 0,0 l/m 15,8 km/h (3 Bft) W-SW 240 2 min 0,000 mm 0,0 UV-I 228 W/m -1,4 C -6,6 C 29,0 km/h (5 Bft) 100,00 %
29.01.2019 09:28 0,7 C 3,3 C 1,1 C 86 % 1008,7 hPa 0,0 l/m 14,1 km/h (3 Bft) S-SW 208 2 min 0,000 mm 0,0 UV-I 224 W/m -1,4 C -5,6 C 22,5 km/h (4 Bft) 93,62 %
29.01.2019 09:30 0,8 C 3,3 C 1,1 C 86 % 1008,7 hPa 0,0 l/m 15,1 km/h (3 Bft) W 269 2 min 0,000 mm 0,0 UV-I 227 W/m -1,3 C -6,1 C 20,9 km/h (4 Bft) 100,00 %
29.01.2019 09:32 0,8 C 3,3 C 1,1 C 85 % 1008,7 hPa 0,0 l/m 15,2 km/h (3 Bft) SW 234 2 min 0,000 mm 0,0 UV-I 244 W/m -1,4 C -6,1 C 20,9 km/h (4 Bft) 100,00 %
29.01.2019 09:34 0,9 C 3,3 C 1,7 C 85 % 1008,7 hPa 0,0 l/m 18,1 km/h (3 Bft) SW 235 2 min 0,000 mm 0,0 UV-I 261 W/m -1,3 C -7,6 C 24,1 km/h (4 Bft) 100,00 %
29.01.2019 09:36 1,0 C 3,3 C 1,7 C 85 % 1008,7 hPa 0,0 l/m 14,4 km/h (3 Bft) S-SW 194 2 min 0,000 mm 0,0 UV-I 249 W/m -1,2 C -5,4 C 22,5 km/h (4 Bft) 100,00 %
29.01.2019 09:38 1,0 C 3,3 C 1,7 C 85 % 1008,7 hPa 0,0 l/m 18,6 km/h (3 Bft) SW 236 2 min 0,000 mm 0,0 UV-I 185 W/m -1,2 C -7,7 C 25,7 km/h (4 Bft) 100,00 %
29.01.2019 09:40 1,0 C 3,3 C 2,2 C 85 % 1008,7 hPa 0,0 l/m 14,7 km/h (3 Bft) W 262 2 min 0,000 mm 0,0 UV-I 229 W/m -1,2 C -5,6 C 24,1 km/h (4 Bft) 100,00 %
29.01.2019 09:42 1,1 C 3,3 C 2,2 C 85 % 1008,8 hPa 0,0 l/m 13,6 km/h (3 Bft) W-SW 254 2 min 0,000 mm 0,0 UV-I 304 W/m -1,1 C -4,8 C 24,1 km/h (4 Bft) 100,00 %
29.01.2019 09:44 1,1 C 3,3 C 2,2 C 85 % 1008,8 hPa 0,0 l/m 17,5 km/h (3 Bft) SW 229 2 min 0,000 mm 0,0 UV-I 312 W/m -1,1 C -7,0 C 24,1 km/h (4 Bft) 97,87 %
29.01.2019 09:46 1,2 C 3,3 C 2,8 C 85 % 1008,8 hPa 0,0 l/m 19,5 km/h (3 Bft) W-SW 240 2 min 0,000 mm 0,0 UV-I 312 W/m -1,0 C -7,9 C 25,7 km/h (4 Bft) 97,87 %
29.01.2019 09:48 1,2 C 3,3 C 2,8 C 85 % 1008,8 hPa 0,0 l/m 18,4 km/h (3 Bft) S-SW 200 2 min 0,000 mm 0,0 UV-I 306 W/m -1,0 C -7,3 C 25,7 km/h (4 Bft) 96,00 %
29.01.2019 09:50 1,2 C 3,3 C 2,8 C 85 % 1008,8 hPa 0,0 l/m 15,5 km/h (3 Bft) W-SW 238 2 min 0,000 mm 0,0 UV-I 275 W/m -1,0 C -5,8 C 27,4 km/h (4 Bft) 94,00 %
29.01.2019 09:52 1,2 C 3,3 C 2,2 C 84 % 1008,9 hPa 0,0 l/m 15,9 km/h (3 Bft) W-SW 239 2 min 0,000 mm 0,0 UV-I 223 W/m -1,2 C -6,0 C 25,7 km/h (4 Bft) 95,74 %
29.01.2019 09:54 1,2 C 3,3 C 2,2 C 84 % 1008,9 hPa 0,0 l/m 17,7 km/h (3 Bft) W 267 2 min 0,000 mm 0,0 UV-I 220 W/m -1,2 C -7,0 C 30,6 km/h (5 Bft) 89,80 %
29.01.2019 09:56 1,2 C 3,3 C 2,8 C 84 % 1008,9 hPa 0,0 l/m 18,4 km/h (3 Bft) W 270 2 min 0,000 mm 0,0 UV-I 286 W/m -1,2 C -7,3 C 27,4 km/h (4 Bft) 91,49 %
29.01.2019 09:58 1,3 C 3,3 C 3,3 C 84 % 1008,9 hPa 0,0 l/m 18,0 km/h (3 Bft) SW 232 2 min 0,000 mm 0,0 UV-I 357 W/m -1,1 C -7,0 C 24,1 km/h (4 Bft) 97,44 %
29.01.2019 10:00 1,3 C 3,3 C 2,8 C 84 % 1008,9 hPa 0,0 l/m 16,4 km/h (3 Bft) SW 228 2 min 0,102 mm 0,0 UV-I 247 W/m -1,1 C -6,2 C 24,1 km/h (4 Bft) 90,00 %
29.01.2019 10:02 1,3 C 3,3 C 2,8 C 84 % 1008,9 hPa 0,0 l/m 16,4 km/h (3 Bft) SW 236 2 min 0,000 mm 0,0 UV-I 193 W/m -1,1 C -6,2 C 32,2 km/h (5 Bft) 96,00 %
29.01.2019 10:04 1,3 C 3,3 C 2,2 C 84 % 1008,9 hPa 0,0 l/m 19,5 km/h (3 Bft) SW 233 0 min 0,000 mm 0,0 UV-I 165 W/m -1,1 C -7,7 C 27,4 km/h (4 Bft) 92,11 %
29.01.2019 10:06 1,2 C 3,3 C 2,2 C 84 % 1009,0 hPa 0,0 l/m 18,7 km/h (3 Bft) W-SW 255 0 min 0,000 mm 0,0 UV-I 126 W/m -1,2 C -7,5 C 29,0 km/h (5 Bft) 93,62 %
29.01.2019 10:08 1,2 C 3,3 C 2,2 C 84 % 1008,9 hPa 0,0 l/m 17,1 km/h (3 Bft) S-SW 204 0 min 0,000 mm 0,0 UV-I 124 W/m -1,2 C -6,7 C 25,7 km/h (4 Bft) 98,00 %
29.01.2019 10:10 1,1 C 3,3 C 1,7 C 84 % 1009,0 hPa 0,0 l/m 12,9 km/h (3 Bft) W-SW 257 0 min 0,000 mm 0,0 UV-I 129 W/m -1,3 C -4,3 C 20,9 km/h (4 Bft) 95,74 %
29.01.2019 10:12 1,1 C 3,3 C 1,7 C 85 % 1009,0 hPa 0,0 l/m 15,4 km/h (3 Bft) SW 230 0 min 0,000 mm 0,0 UV-I 147 W/m -1,1 C -5,9 C 32,2 km/h (5 Bft) 100,00 %
29.01.2019 10:14 1,0 C 3,3 C 1,7 C 85 % 1009,0 hPa 0,0 l/m 17,6 km/h (3 Bft) W-SW 242 0 min 0,000 mm 0,0 UV-I 156 W/m -1,2 C -7,2 C 27,4 km/h (4 Bft) 97,87 %
29.01.2019 10:16 0,9 C 3,3 C 2,2 C 86 % 1009,0 hPa 0,0 l/m 14,2 km/h (3 Bft) SW 221 0 min 0,000 mm 0,0 UV-I 173 W/m -1,2 C -5,4 C 20,9 km/h (4 Bft) 97,87 %
29.01.2019 10:18 0,9 C 3,3 C 2,2 C 86 % 1009,0 hPa 0,0 l/m 19,2 km/h (3 Bft) W-SW 238 2 min 0,000 mm 0,0 UV-I 181 W/m -1,2 C -8,1 C 29,0 km/h (5 Bft) 100,00 %
29.01.2019 10:20 0,9 C 3,3 C 2,2 C 87 % 1009,0 hPa 0,0 l/m 18,3 km/h (3 Bft) W-SW 246 2 min 0,000 mm 0,0 UV-I 185 W/m -1,0 C -7,7 C 25,7 km/h (4 Bft) 97,87 %
29.01.2019 10:22 0,9 C 3,3 C 2,2 C 87 % 1009,0 hPa 0,0 l/m 19,3 km/h (3 Bft) SW 223 2 min 0,000 mm 0,0 UV-I 201 W/m -1,0 C -8,1 C 27,4 km/h (4 Bft) 100,00 %
29.01.2019 10:24 0,9 C 3,3 C 2,8 C 87 % 1008,9 hPa 0,0 l/m 21,1 km/h (4 Bft) W 265 2 min 0,000 mm 0,1 UV-I 262 W/m -1,0 C -9,0 C 30,6 km/h (5 Bft) 96,00 %
29.01.2019 10:26 1,0 C 3,3 C 2,8 C 88 % 1008,9 hPa 0,0 l/m 18,9 km/h (3 Bft) W 269 2 min 0,000 mm 0,1 UV-I 290 W/m -0,8 C -7,8 C 27,4 km/h (4 Bft) 100,00 %
29.01.2019 10:28 1,0 C 3,3 C 2,8 C 87 % 1009,0 hPa 0,0 l/m 20,8 km/h (4 Bft) W-SW 250 2 min 0,000 mm 0,0 UV-I 250 W/m -0,9 C -8,7 C 29,0 km/h (5 Bft) 100,00 %
29.01.2019 10:30 1,0 C 3,3 C 2,8 C 88 % 1009,0 hPa 0,0 l/m 18,3 km/h (3 Bft) SW 225 2 min 0,000 mm 0,0 UV-I 232 W/m -0,8 C -7,5 C 25,7 km/h (4 Bft) 100,00 %
29.01.2019 10:32 1,0 C 3,3 C 2,8 C 88 % 1009,0 hPa 0,0 l/m 19,5 km/h (3 Bft) SW 225 2 min 0,000 mm 0,0 UV-I 209 W/m -0,8 C -8,1 C 29,0 km/h (5 Bft) 100,00 %
29.01.2019 10:34 0,9 C 3,3 C 2,2 C 88 % 1009,1 hPa 0,0 l/m 17,8 km/h (3 Bft) SW 233 0 min 0,000 mm 0,0 UV-I 188 W/m -0,9 C -7,4 C 27,4 km/h (4 Bft) 95,74 %
29.01.2019 10:36 0,8 C 3,3 C 2,2 C 88 % 1009,1 hPa 0,0 l/m 21,5 km/h (4 Bft) W-SW 247 0 min 0,000 mm 0,0 UV-I 177 W/m -1,0 C -9,3 C 29,0 km/h (5 Bft) 100,00 %
29.01.2019 10:38 0,8 C 3,3 C 1,7 C 89 % 1009,1 hPa 0,0 l/m 14,8 km/h (3 Bft) SW 234 0 min 0,000 mm 0,0 UV-I 166 W/m -0,8 C -5,9 C 24,1 km/h (4 Bft) 100,00 %
29.01.2019 10:40 0,7 C 3,3 C 1,7 C 89 % 1009,2 hPa 0,0 l/m 18,0 km/h (3 Bft) W-SW 258 0 min 0,000 mm 0,0 UV-I 156 W/m -0,9 C -7,8 C 27,4 km/h (4 Bft) 100,00 %
29.01.2019 10:42 0,7 C 3,3 C 1,7 C 89 % 1009,2 hPa 0,0 l/m 15,2 km/h (3 Bft) SW 220 0 min 0,000 mm 0,0 UV-I 141 W/m -0,9 C -6,3 C 27,4 km/h (4 Bft) 100,00 %
29.01.2019 10:44 0,6 C 3,3 C 1,1 C 90 % 1009,2 hPa 0,0 l/m 20,0 km/h (4 Bft) W-SW 240 0 min 0,000 mm 0,0 UV-I 130 W/m -0,8 C -8,9 C 29,0 km/h (5 Bft) 100,00 %
29.01.2019 10:46 0,6 C 3,3 C 1,1 C 90 % 1009,2 hPa 0,0 l/m 19,7 km/h (3 Bft) W-SW 240 0 min 0,000 mm 0,0 UV-I 132 W/m -0,8 C -8,7 C 27,4 km/h (4 Bft) 100,00 %
29.01.2019 10:48 0,6 C 3,3 C 1,1 C 90 % 1009,2 hPa 0,0 l/m 16,1 km/h (3 Bft) SW 232 0 min 0,000 mm 0,0 UV-I 139 W/m -0,8 C -6,9 C 20,9 km/h (4 Bft) 100,00 %
29.01.2019 10:50 0,6 C 3,3 C 1,1 C 90 % 1009,1 hPa 0,0 l/m 15,6 km/h (3 Bft) W-SW 251 0 min 0,000 mm 0,0 UV-I 130 W/m -0,8 C -6,6 C 22,5 km/h (4 Bft) 100,00 %
29.01.2019 10:52 0,6 C 3,3 C 1,1 C 91 % 1009,1 hPa 0,0 l/m 13,8 km/h (3 Bft) W-SW 238 0 min 0,000 mm 0,0 UV-I 127 W/m -0,7 C -5,5 C 24,1 km/h (4 Bft) 100,00 %
29.01.2019 10:54 0,6 C 3,3 C 1,7 C 91 % 1009,1 hPa 0,0 l/m 15,9 km/h (3 Bft) W-SW 246 0 min 0,000 mm 0,5 UV-I 134 W/m -0,7 C -6,8 C 24,1 km/h (4 Bft) 98,00 %
29.01.2019 10:56 0,6 C 3,3 C 1,7 C 91 % 1009,1 hPa 0,0 l/m 16,2 km/h (3 Bft) W-SW 248 0 min 0,000 mm 0,5 UV-I 139 W/m -0,7 C -6,9 C 25,7 km/h (4 Bft) 100,00 %
29.01.2019 10:58 0,6 C 3,3 C 1,7 C 91 % 1009,0 hPa 0,0 l/m 15,0 km/h (3 Bft) SW 223 0 min 0,000 mm 0,5 UV-I 142 W/m -0,7 C -6,3 C 20,9 km/h (4 Bft) 97,87 %
29.01.2019 11:00 0,6 C 3,3 C 1,7 C 91 % 1009,0 hPa 0,0 l/m 12,1 km/h (2 Bft) SW 234 0 min 0,076 mm 0,5 UV-I 152 W/m -0,7 C -4,4 C 24,1 km/h (4 Bft) 98,00 %
29.01.2019 11:02 0,6 C 3,3 C 1,7 C 91 % 1008,9 hPa 0,0 l/m 11,3 km/h (2 Bft) W-SW 237 0 min 0,000 mm 0,5 UV-I 148 W/m -0,7 C -3,8 C 17,7 km/h (3 Bft) 97,87 %
29.01.2019 11:04 0,6 C 3,3 C 1,7 C 91 % 1008,9 hPa 0,0 l/m 13,3 km/h (3 Bft) W 263 0 min 0,000 mm 0,5 UV-I 134 W/m -0,7 C -5,2 C 20,9 km/h (4 Bft) 97,87 %
29.01.2019 11:06 0,6 C 3,3 C 1,7 C 91 % 1008,9 hPa 0,0 l/m 13,4 km/h (3 Bft) W-SW 248 0 min 0,000 mm 0,5 UV-I 134 W/m -0,7 C -5,3 C 19,3 km/h (3 Bft) 97,87 %
29.01.2019 11:08 0,5 C 3,3 C 1,1 C 91 % 1008,9 hPa 0,0 l/m 18,1 km/h (3 Bft) W-SW 248 0 min 0,000 mm 0,5 UV-I 137 W/m -0,8 C -8,1 C 24,1 km/h (4 Bft) 97,22 %
29.01.2019 11:10 0,6 C 3,3 C 1,7 C 91 % 1008,9 hPa 0,0 l/m 14,2 km/h (3 Bft) W-SW 250 0 min 0,000 mm 0,6 UV-I 174 W/m -0,7 C -5,8 C 25,7 km/h (4 Bft) 98,04 %
29.01.2019 11:12 0,6 C 3,3 C 1,7 C 91 % 1008,9 hPa 0,0 l/m 12,0 km/h (2 Bft) W-SW 255 2 min 0,000 mm 0,6 UV-I 272 W/m -0,7 C -4,3 C 20,9 km/h (4 Bft) 97,87 %
29.01.2019 11:14 0,7 C 3,3 C 1,7 C 91 % 1008,9 hPa 0,0 l/m 11,0 km/h (2 Bft) W-SW 244 2 min 0,000 mm 0,6 UV-I 274 W/m -0,6 C -3,5 C 22,5 km/h (4 Bft) 97,87 %
29.01.2019 11:16 0,8 C 3,3 C 1,7 C 91 % 1008,8 hPa 0,0 l/m 13,9 km/h (3 Bft) S-SW 213 2 min 0,000 mm 0,6 UV-I 259 W/m -0,5 C -5,3 C 22,5 km/h (4 Bft) 98,00 %
29.01.2019 11:18 0,8 C 3,3 C 2,2 C 91 % 1008,8 hPa 0,0 l/m 16,0 km/h (3 Bft) W-SW 250 2 min 0,000 mm 0,7 UV-I 303 W/m -0,5 C -6,6 C 27,4 km/h (4 Bft) 97,87 %
29.01.2019 11:20 0,9 C 3,3 C 2,2 C 91 % 1008,8 hPa 0,0 l/m 17,7 km/h (3 Bft) W-SW 253 2 min 0,000 mm 0,7 UV-I 364 W/m -0,4 C -7,4 C 25,7 km/h (4 Bft) 94,00 %
29.01.2019 11:22 1,1 C 3,3 C 2,2 C 91 % 1008,8 hPa 0,0 l/m 15,4 km/h (3 Bft) SW 236 2 min 0,000 mm 0,7 UV-I 369 W/m -0,2 C -5,9 C 22,5 km/h (4 Bft) 97,87 %
29.01.2019 11:24 1,2 C 3,3 C 2,2 C 90 % 1008,8 hPa 0,0 l/m 15,9 km/h (3 Bft) SW 236 2 min 0,000 mm 0,7 UV-I 372 W/m -0,3 C -6,0 C 25,7 km/h (4 Bft) 97,87 %
29.01.2019 11:26 1,2 C 3,3 C 2,8 C 90 % 1008,7 hPa 0,0 l/m 15,4 km/h (3 Bft) W-SW 254 2 min 0,000 mm 0,7 UV-I 374 W/m -0,3 C -5,8 C 24,1 km/h (4 Bft) 97,87 %
29.01.2019 11:28 1,3 C 3,3 C 2,8 C 90 % 1008,7 hPa 0,0 l/m 14,1 km/h (3 Bft) W-SW 244 2 min 0,000 mm 0,7 UV-I 377 W/m -0,2 C -4,9 C 22,5 km/h (4 Bft) 100,00 %
29.01.2019 11:30 1,4 C 3,3 C 2,8 C 89 % 1008,7 hPa 0,0 l/m 13,9 km/h (3 Bft) SW 236 2 min 0,000 mm 0,7 UV-I 379 W/m -0,2 C -4,6 C 25,7 km/h (4 Bft) 100,00 %
29.01.2019 11:32 1,5 C 3,3 C 3,3 C 89 % 1008,7 hPa 0,0 l/m 11,1 km/h (2 Bft) W 273 2 min 0,000 mm 0,7 UV-I 382 W/m -0,1 C -2,6 C 20,9 km/h (4 Bft) 97,87 %
29.01.2019 11:34 1,7 C 3,3 C 3,9 C 89 % 1008,7 hPa 0,0 l/m 10,7 km/h (2 Bft) W-SW 254 2 min 0,000 mm 0,7 UV-I 397 W/m 0,1 C -2,1 C 19,3 km/h (3 Bft) 98,00 %
29.01.2019 11:36 1,8 C 3,3 C 4,4 C 88 % 1008,7 hPa 0,0 l/m 15,0 km/h (3 Bft) SW 232 2 min 0,000 mm 0,7 UV-I 482 W/m 0,0 C -4,8 C 19,3 km/h (3 Bft) 97,87 %
29.01.2019 11:38 1,9 C 3,3 C 5,0 C 88 % 1008,6 hPa 0,0 l/m 13,9 km/h (3 Bft) W 281 2 min 0,000 mm 0,7 UV-I 549 W/m 0,1 C -4,0 C 22,5 km/h (4 Bft) 95,74 %
29.01.2019 11:40 2,0 C 3,3 C 5,0 C 87 % 1008,7 hPa 0,2 l/m 10,0 km/h (2 Bft) SW 225 2 min 0,000 mm 0,5 UV-I 424 W/m 0,1 C -1,2 C 16,1 km/h (3 Bft) 95,74 %
29.01.2019 11:42 2,1 C 3,3 C 4,4 C 87 % 1008,6 hPa 0,0 l/m 12,7 km/h (3 Bft) SW 229 2 min 0,000 mm 0,1 UV-I 303 W/m 0,2 C -3,0 C 24,1 km/h (4 Bft) 98,00 %
29.01.2019 11:44 2,0 C 3,3 C 3,9 C 86 % 1008,6 hPa 0,0 l/m 10,0 km/h (2 Bft) W-SW 257 0 min 0,000 mm 0,0 UV-I 190 W/m -0,1 C -1,2 C 20,9 km/h (4 Bft) 97,87 %
29.01.2019 11:46 2,0 C 3,3 C 4,4 C 86 % 1008,5 hPa 0,0 l/m 7,5 km/h (2 Bft) W-SW 249 2 min 0,000 mm 0,0 UV-I 246 W/m -0,1 C 0,9 C 12,9 km/h (3 Bft) 97,87 %
29.01.2019 11:48 2,1 C 3,3 C 4,4 C 86 % 1008,5 hPa 0,0 l/m 13,0 km/h (3 Bft) W-NW 287 0 min 0,000 mm 0,0 UV-I 215 W/m 0,0 C -3,2 C 20,9 km/h (4 Bft) 97,87 %
29.01.2019 11:50 1,9 C 3,3 C 4,4 C 85 % 1008,5 hPa 0,0 l/m 10,2 km/h (2 Bft) W 274 0 min 0,000 mm 0,0 UV-I 198 W/m -0,3 C -1,5 C 19,3 km/h (3 Bft) 97,87 %
29.01.2019 11:52 1,9 C 3,3 C 3,9 C 86 % 1008,5 hPa 0,0 l/m 11,3 km/h (2 Bft) SW 216 0 min 0,000 mm 0,0 UV-I 163 W/m -0,2 C -2,3 C 19,3 km/h (3 Bft) 95,83 %
29.01.2019 11:54 1,8 C 3,3 C 3,3 C 85 % 1008,5 hPa 0,0 l/m 13,0 km/h (3 Bft) W 261 0 min 0,000 mm 0,0 UV-I 101 W/m -0,4 C -3,6 C 19,3 km/h (3 Bft) 95,74 %
29.01.2019 11:56 1,7 C 3,3 C 2,8 C 85 % 1008,5 hPa 0,0 l/m 9,7 km/h (2 Bft) W 264 0 min 0,000 mm 0,0 UV-I 72 W/m -0,5 C -1,3 C 16,1 km/h (3 Bft) 100,00 %
29.01.2019 11:58 1,7 C 3,3 C 2,8 C 85 % 1008,4 hPa 0,0 l/m 14,7 km/h (3 Bft) W 269 0 min 0,000 mm 0,0 UV-I 57 W/m -0,5 C -4,7 C 17,7 km/h (3 Bft) 97,87 %
29.01.2019 12:00 1,6 C 3,3 C 2,2 C 85 % 1008,4 hPa 0,0 l/m 11,0 km/h (2 Bft) SW 228 0 min 0,102 mm 0,0 UV-I 56 W/m -0,6 C -2,4 C 17,7 km/h (3 Bft) 100,00 %
29.01.2019 12:02 1,6 C 3,3 C 2,2 C 85 % 1008,4 hPa 0,0 l/m 13,1 km/h (3 Bft) W-NW 287 0 min 0,000 mm 0,0 UV-I 61 W/m -0,6 C -3,9 C 17,7 km/h (3 Bft) 95,74 %
29.01.2019 12:04 1,5 C 3,3 C 2,2 C 85 % 1008,4 hPa 0,0 l/m 7,6 km/h (2 Bft) W-SW 253 0 min 0,000 mm 0,0 UV-I 79 W/m -0,7 C 0,3 C 14,5 km/h (3 Bft) 97,87 %
29.01.2019 12:06 1,6 C 3,3 C 2,8 C 85 % 1008,4 hPa 0,0 l/m 11,3 km/h (2 Bft) NW 313 0 min 0,000 mm 0,0 UV-I 132 W/m -0,6 C -2,7 C 14,5 km/h (3 Bft) 98,11 %
29.01.2019 12:08 1,6 C 3,3 C 2,8 C 85 % 1008,3 hPa 0,0 l/m 8,2 km/h (2 Bft) SW 232 0 min 0,000 mm 0,0 UV-I 148 W/m -0,6 C -0,2 C 19,3 km/h (3 Bft) 100,00 %
29.01.2019 12:10 1,7 C 3,3 C 3,3 C 85 % 1008,3 hPa 0,0 l/m 12,9 km/h (3 Bft) W 259 0 min 0,000 mm 0,0 UV-I 153 W/m -0,5 C -3,6 C 20,9 km/h (4 Bft) 95,74 %
29.01.2019 12:12 1,7 C 3,3 C 2,8 C 85 % 1008,3 hPa 0,0 l/m 13,6 km/h (3 Bft) W 279 0 min 0,000 mm 0,0 UV-I 142 W/m -0,5 C -4,1 C 19,3 km/h (3 Bft) 100,00 %
29.01.2019 12:15 1,7 C 3,3 C 2,8 C 84 % 1008,3 hPa 0,0 l/m 15,9 km/h (3 Bft) W 268 0 min 0,000 mm 0,0 UV-I 100 W/m -0,7 C -5,4 C 25,7 km/h (4 Bft) 98,46 %
29.01.2019 12:16 1,7 C 3,3 C 2,8 C 84 % 1008,3 hPa 0,0 l/m 11,8 km/h (2 Bft) W-SW 258 0 min 0,000 mm 0,0 UV-I 116 W/m -0,7 C -2,9 C 14,5 km/h (3 Bft) 95,65 %
29.01.2019 12:18 1,7 C 3,3 C 2,8 C 84 % 1008,3 hPa 0,0 l/m 9,8 km/h (2 Bft) W-NW 300 0 min 0,000 mm 0,0 UV-I 147 W/m -0,7 C -1,4 C 14,5 km/h (3 Bft) 97,87 %
29.01.2019 12:20 1,8 C 3,3 C 3,9 C 84 % 1008,3 hPa 0,0 l/m 11,5 km/h (2 Bft) W 279 2 min 0,000 mm 0,5 UV-I 243 W/m -0,6 C -2,6 C 22,5 km/h (4 Bft) 95,74 %
29.01.2019 12:22 1,9 C 3,3 C 4,4 C 83 % 1008,3 hPa 0,0 l/m 16,2 km/h (3 Bft) W 279 2 min 0,000 mm 0,6 UV-I 278 W/m -0,7 C -5,3 C 24,1 km/h (4 Bft) 98,00 %
29.01.2019 12:24 2,1 C 3,3 C 4,4 C 82 % 1008,2 hPa 0,0 l/m 14,2 km/h (3 Bft) W-SW 252 0 min 0,000 mm 0,5 UV-I 226 W/m -0,6 C -4,0 C 22,5 km/h (4 Bft) 97,62 %
29.01.2019 12:26 2,1 C 3,3 C 3,9 C 82 % 1008,3 hPa 0,0 l/m 15,7 km/h (3 Bft) W 263 0 min 0,000 mm 0,5 UV-I 131 W/m -0,6 C -4,8 C 22,5 km/h (4 Bft) 97,87 %
29.01.2019 12:28 1,9 C 3,3 C 3,3 C 80 % 1008,2 hPa 0,0 l/m 17,5 km/h (3 Bft) W 267 0 min 0,000 mm 0,2 UV-I 113 W/m -1,2 C -6,0 C 25,7 km/h (4 Bft) 96,00 %
29.01.2019 12:30 1,9 C 3,3 C 2,8 C 80 % 1008,2 hPa 0,0 l/m 18,1 km/h (3 Bft) W 274 0 min 0,000 mm 0,0 UV-I 105 W/m -1,2 C -6,3 C 30,6 km/h (5 Bft) 100,00 %
29.01.2019 12:32 1,8 C 3,3 C 3,3 C 80 % 1008,2 hPa 0,0 l/m 14,5 km/h (3 Bft) W-SW 243 0 min 0,000 mm 0,3 UV-I 162 W/m -1,3 C -4,5 C 22,5 km/h (4 Bft) 97,87 %
29.01.2019 12:34 1,8 C 3,3 C 3,3 C 80 % 1008,3 hPa 0,0 l/m 16,6 km/h (3 Bft) W 267 0 min 0,000 mm 0,5 UV-I 209 W/m -1,3 C -5,7 C 29,0 km/h (5 Bft) 97,37 %
29.01.2019 12:36 1,8 C 3,3 C 3,3 C 80 % 1008,2 hPa 0,0 l/m 14,1 km/h (3 Bft) W 276 0 min 0,000 mm 0,5 UV-I 203 W/m -1,3 C -4,3 C 19,3 km/h (3 Bft) 97,87 %
29.01.2019 12:38 1,8 C 3,3 C 3,9 C 81 % 1008,2 hPa 0,0 l/m 11,5 km/h (2 Bft) W-SW 253 0 min 0,000 mm 0,5 UV-I 159 W/m -1,1 C -2,6 C 16,1 km/h (3 Bft) 100,00 %
29.01.2019 12:40 1,9 C 3,3 C 3,9 C 81 % 1008,2 hPa 0,0 l/m 9,8 km/h (2 Bft) W-SW 250 0 min 0,000 mm 0,4 UV-I 149 W/m -1,0 C -1,2 C 16,1 km/h (3 Bft) 95,74 %
29.01.2019 12:42 1,9 C 3,3 C 3,9 C 81 % 1008,2 hPa 0,0 l/m 15,4 km/h (3 Bft) W-SW 242 0 min 0,000 mm 0,0 UV-I 146 W/m -1,0 C -4,9 C 22,5 km/h (4 Bft) 98,00 %
29.01.2019 12:44 1,8 C 3,3 C 3,3 C 81 % 1008,2 hPa 0,0 l/m 9,4 km/h (2 Bft) W-SW 254 0 min 0,000 mm 0,0 UV-I 114 W/m -1,1 C -1,0 C 17,7 km/h (3 Bft) 97,87 %
29.01.2019 12:46 1,8 C 3,3 C 2,8 C 81 % 1008,2 hPa 0,0 l/m 15,3 km/h (3 Bft) W-SW 257 0 min 0,000 mm 0,0 UV-I 75 W/m -1,1 C -5,0 C 25,7 km/h (4 Bft) 100,00 %
29.01.2019 12:48 1,7 C 3,3 C 2,2 C 82 % 1008,2 hPa 0,0 l/m 18,0 km/h (3 Bft) W 267 0 min 0,000 mm 0,0 UV-I 73 W/m -1,0 C -6,5 C 29,0 km/h (5 Bft) 100,00 %
29.01.2019 12:50 1,4 C 3,3 C 1,7 C 83 % 1008,2 hPa 0,0 l/m 15,8 km/h (3 Bft) W-NW 288 0 min 0,000 mm 0,0 UV-I 95 W/m -1,2 C -5,7 C 25,7 km/h (4 Bft) 98,00 %
29.01.2019 12:52 1,2 C 3,3 C 2,2 C 85 % 1008,3 hPa 0,0 l/m 14,8 km/h (3 Bft) W 267 0 min 0,000 mm 0,0 UV-I 166 W/m -1,0 C -5,4 C 24,1 km/h (4 Bft) 97,87 %
29.01.2019 12:54 1,1 C 3,3 C 2,8 C 86 % 1008,2 hPa 0,0 l/m 15,6 km/h (3 Bft) W-NW 292 2 min 0,000 mm 0,3 UV-I 307 W/m -1,0 C -6,0 C 20,9 km/h (4 Bft) 97,87 %
29.01.2019 12:56 1,1 C 3,3 C 3,3 C 87 % 1008,2 hPa 0,0 l/m 18,7 km/h (3 Bft) W 262 2 min 0,000 mm 0,6 UV-I 340 W/m -0,8 C -7,6 C 29,0 km/h (5 Bft) 95,12 %
29.01.2019 12:58 1,1 C 3,3 C 3,3 C 88 % 1008,2 hPa 0,0 l/m 13,6 km/h (3 Bft) W 277 2 min 0,000 mm 0,6 UV-I 242 W/m -0,7 C -4,8 C 19,3 km/h (3 Bft) 97,87 %
29.01.2019 13:00 1,2 C 3,3 C 3,9 C 88 % 1008,2 hPa 0,0 l/m 10,4 km/h (2 Bft) SW 230 0 min 0,076 mm 0,6 UV-I 191 W/m -0,6 C -2,4 C 14,5 km/h (3 Bft) 96,00 %
29.01.2019 13:02 1,2 C 3,3 C 3,3 C 88 % 1008,2 hPa 0,0 l/m 12,7 km/h (3 Bft) W 274 0 min 0,000 mm 0,6 UV-I 147 W/m -0,6 C -4,1 C 24,1 km/h (4 Bft) 97,87 %
29.01.2019 13:04 1,1 C 3,3 C 2,8 C 87 % 1008,2 hPa 0,0 l/m 14,2 km/h (3 Bft) W 271 0 min 0,000 mm 0,5 UV-I 135 W/m -0,8 C -5,2 C 20,9 km/h (4 Bft) 97,87 %
29.01.2019 13:06 1,1 C 3,3 C 2,8 C 87 % 1008,2 hPa 0,0 l/m 10,7 km/h (2 Bft) W-NW 300 0 min 0,000 mm 0,5 UV-I 136 W/m -0,8 C -2,8 C 16,1 km/h (3 Bft) 95,83 %
29.01.2019 13:08 1,0 C 3,3 C 2,8 C 87 % 1008,3 hPa 0,0 l/m 8,1 km/h (2 Bft) W-NW 288 0 min 0,000 mm 0,5 UV-I 155 W/m -0,9 C -0,7 C 12,9 km/h (3 Bft) 97,87 %
29.01.2019 13:10 1,1 C 3,3 C 2,8 C 87 % 1008,2 hPa 0,0 l/m 11,6 km/h (2 Bft) W-NW 286 0 min 0,000 mm 0,1 UV-I 152 W/m -0,8 C -3,5 C 17,7 km/h (3 Bft) 95,74 %
29.01.2019 13:12 1,1 C 3,3 C 2,8 C 87 % 1008,2 hPa 0,0 l/m 10,6 km/h (2 Bft) W 279 0 min 0,000 mm 0,0 UV-I 132 W/m -0,8 C -2,7 C 17,7 km/h (3 Bft) 96,00 %
29.01.2019 13:14 1,1 C 3,3 C 2,8 C 87 % 1008,2 hPa 0,0 l/m 2,9 km/h (1 Bft) NO 40 0 min 0,000 mm 0,0 UV-I 119 W/m -0,8 C 1,1 C 8,0 km/h (2 Bft) 97,87 %
29.01.2019 13:16 1,1 C 3,3 C 2,8 C 87 % 1008,2 hPa 0,0 l/m 5,7 km/h (1 Bft) NW 316 0 min 0,000 mm 0,0 UV-I 137 W/m -0,8 C 1,1 C 11,3 km/h (2 Bft) 91,49 %
29.01.2019 13:18 1,1 C 3,3 C 2,8 C 87 % 1008,2 hPa 0,0 l/m 5,1 km/h (1 Bft) W-NW 301 0 min 0,000 mm 0,0 UV-I 124 W/m -0,8 C 1,1 C 11,3 km/h (2 Bft) 97,87 %
29.01.2019 13:20 1,1 C 3,3 C 2,8 C 88 % 1008,1 hPa 0,0 l/m 6,2 km/h (2 Bft) W 262 0 min 0,000 mm 0,0 UV-I 101 W/m -0,7 C 1,1 C 11,3 km/h (2 Bft) 93,62 %
29.01.2019 13:22 1,0 C 3,3 C 2,2 C 88 % 1008,1 hPa 0,0 l/m 5,2 km/h (1 Bft) W-NW 294 0 min 0,000 mm 0,0 UV-I 93 W/m -0,8 C 1,0 C 8,0 km/h (2 Bft) 100,00 %
29.01.2019 13:24 0,9 C 3,3 C 2,2 C 88 % 1008,0 hPa 0,0 l/m 5,2 km/h (1 Bft) W-NW 286 0 min 0,000 mm 0,0 UV-I 102 W/m -0,9 C 0,9 C 9,7 km/h (2 Bft) 92,45 %
29.01.2019 13:26 0,8 C 3,3 C 2,2 C 88 % 1008,1 hPa 0,0 l/m 7,9 km/h (2 Bft) W 278 0 min 0,000 mm 0,0 UV-I 105 W/m -1,0 C -0,7 C 12,9 km/h (3 Bft) 96,00 %
29.01.2019 13:28 0,8 C 3,3 C 2,2 C 87 % 1008,0 hPa 0,0 l/m 6,7 km/h (2 Bft) W 273 0 min 0,000 mm 0,0 UV-I 105 W/m -1,1 C 0,5 C 11,3 km/h (2 Bft) 93,62 %
29.01.2019 13:30 0,8 C 3,3 C 2,2 C 87 % 1008,0 hPa 0,0 l/m 3,5 km/h (1 Bft) W 272 0 min 0,000 mm 0,0 UV-I 78 W/m -1,1 C 0,8 C 9,7 km/h (2 Bft) 95,74 %
29.01.2019 13:32 0,7 C 3,3 C 1,7 C 87 % 1008,0 hPa 0,0 l/m 5,0 km/h (1 Bft) W 274 0 min 0,000 mm 0,0 UV-I 66 W/m -1,2 C 0,7 C 9,7 km/h (2 Bft) 91,49 %
29.01.2019 13:34 0,7 C 3,3 C 1,1 C 87 % 1008,0 hPa 0,0 l/m 4,9 km/h (1 Bft) W-SW 244 0 min 0,000 mm 0,0 UV-I 62 W/m -1,2 C 0,7 C 6,4 km/h (2 Bft) 92,11 %
29.01.2019 13:36 0,7 C 3,3 C 1,1 C 87 % 1007,9 hPa 0,0 l/m 5,0 km/h (1 Bft) W-NW 300 0 min 0,000 mm 0,0 UV-I 63 W/m -1,2 C 0,7 C 9,7 km/h (2 Bft) 93,62 %
29.01.2019 13:38 0,7 C 3,3 C 1,1 C 87 % 1007,9 hPa 0,0 l/m 5,0 km/h (1 Bft) W-SW 246 0 min 0,000 mm 0,0 UV-I 64 W/m -1,2 C 0,7 C 11,3 km/h (2 Bft) 89,36 %
29.01.2019 13:40 0,7 C 3,3 C 1,1 C 86 % 1007,9 hPa 0,0 l/m 4,5 km/h (1 Bft) W 266 0 min 0,000 mm 0,0 UV-I 75 W/m -1,4 C 0,7 C 9,7 km/h (2 Bft) 91,67 %
29.01.2019 13:42 0,6 C 3,3 C 1,1 C 86 % 1007,9 hPa 0,0 l/m 2,8 km/h (1 Bft) N-NW 331 0 min 0,000 mm 0,0 UV-I 74 W/m -1,5 C 0,6 C 6,4 km/h (2 Bft) 89,09 %
29.01.2019 13:44 0,6 C 3,3 C 1,1 C 86 % 1007,9 hPa 0,0 l/m 5,4 km/h (1 Bft) W-NW 295 0 min 0,000 mm 0,0 UV-I 69 W/m -1,5 C 0,6 C 8,0 km/h (2 Bft) 93,75 %
29.01.2019 13:46 0,6 C 3,3 C 1,1 C 85 % 1007,9 hPa 0,0 l/m 4,0 km/h (1 Bft) NW 314 0 min 0,000 mm 0,0 UV-I 78 W/m -1,6 C 0,6 C 6,4 km/h (2 Bft) 92,11 %
29.01.2019 13:48 0,7 C 3,3 C 1,1 C 85 % 1007,9 hPa 0,0 l/m 4,3 km/h (1 Bft) W-NW 299 0 min 0,000 mm 0,0 UV-I 75 W/m -1,5 C 0,7 C 6,4 km/h (2 Bft) 91,49 %
29.01.2019 13:50 0,6 C 3,3 C 1,1 C 85 % 1007,9 hPa 0,0 l/m 4,1 km/h (1 Bft) W 271 0 min 0,000 mm 0,0 UV-I 74 W/m -1,6 C 0,6 C 6,4 km/h (2 Bft) 91,49 %
29.01.2019 13:52 0,6 C 3,3 C 1,1 C 85 % 1007,9 hPa 0,0 l/m 4,6 km/h (1 Bft) W 273 0 min 0,000 mm 0,0 UV-I 77 W/m -1,6 C 0,6 C 6,4 km/h (2 Bft) 93,62 %
29.01.2019 13:54 0,7 C 3,3 C 1,1 C 85 % 1007,9 hPa 0,0 l/m 3,2 km/h (1 Bft) W 277 0 min 0,000 mm 0,0 UV-I 73 W/m -1,5 C 0,7 C 4,8 km/h (1 Bft) 95,74 %
29.01.2019 13:56 0,7 C 3,3 C 1,1 C 85 % 1007,8 hPa 0,0 l/m 3,3 km/h (1 Bft) W 273 0 min 0,000 mm 0,0 UV-I 71 W/m -1,5 C 0,7 C 4,8 km/h (1 Bft) 97,87 %
29.01.2019 13:58 0,7 C 3,3 C 1,1 C 85 % 1007,8 hPa 0,0 l/m 3,5 km/h (1 Bft) W 262 0 min 0,000 mm 0,0 UV-I 62 W/m -1,5 C 0,7 C 4,8 km/h (1 Bft) 93,62 %
29.01.2019 14:00 0,7 C 3,3 C 1,1 C 85 % 1007,8 hPa 0,0 l/m 5,5 km/h (1 Bft) W-SW 254 0 min 0,051 mm 0,0 UV-I 61 W/m -1,5 C 0,7 C 8,0 km/h (2 Bft) 98,00 %
29.01.2019 14:02 0,7 C 3,3 C 0,6 C 85 % 1007,8 hPa 0,0 l/m 3,7 km/h (1 Bft) W 264 0 min 0,000 mm 0,0 UV-I 62 W/m -1,5 C 0,7 C 4,8 km/h (1 Bft) 98,00 %
29.01.2019 14:04 0,7 C 3,3 C 0,6 C 85 % 1007,8 hPa 0,0 l/m 3,1 km/h (1 Bft) W 263 0 min 0,000 mm 0,0 UV-I 62 W/m -1,5 C 0,7 C 4,8 km/h (1 Bft) 93,62 %
29.01.2019 14:06 0,7 C 3,3 C 0,6 C 85 % 1007,8 hPa 0,0 l/m 3,8 km/h (1 Bft) W-SW 248 0 min 0,000 mm 0,0 UV-I 58 W/m -1,5 C 0,7 C 6,4 km/h (2 Bft) 93,62 %
29.01.2019 14:08 0,7 C 3,3 C 0,6 C 85 % 1007,7 hPa 0,0 l/m 4,5 km/h (1 Bft) W-SW 247 0 min 0,000 mm 0,0 UV-I 58 W/m -1,5 C 0,7 C 6,4 km/h (2 Bft) 93,62 %
29.01.2019 14:10 0,6 C 3,3 C 0,6 C 85 % 1007,7 hPa 0,0 l/m 4,5 km/h (1 Bft) SW 234 0 min 0,000 mm 0,0 UV-I 58 W/m -1,6 C 0,6 C 6,4 km/h (2 Bft) 97,37 %
29.01.2019 14:12 0,6 C 3,3 C 0,6 C 85 % 1007,7 hPa 0,0 l/m 3,3 km/h (1 Bft) SW 234 0 min 0,000 mm 0,0 UV-I 60 W/m -1,6 C 0,6 C 4,8 km/h (1 Bft) 100,00 %
29.01.2019 14:14 0,6 C 3,3 C 0,6 C 85 % 1007,7 hPa 0,0 l/m 5,0 km/h (1 Bft) W-SW 247 0 min 0,000 mm 0,0 UV-I 64 W/m -1,6 C 0,6 C 6,4 km/h (2 Bft) 100,00 %
29.01.2019 14:16 0,6 C 3,3 C 0,6 C 85 % 1007,7 hPa 0,0 l/m 4,2 km/h (1 Bft) W-SW 250 0 min 0,000 mm 0,0 UV-I 75 W/m -1,6 C 0,6 C 6,4 km/h (2 Bft) 100,00 %
29.01.2019 14:18 0,6 C 3,3 C 0,6 C 86 % 1007,6 hPa 0,0 l/m 3,5 km/h (1 Bft) W 263 0 min 0,000 mm 0,0 UV-I 121 W/m -1,5 C 0,6 C 4,8 km/h (1 Bft) 97,87 %
29.01.2019 14:20 0,7 C 3,3 C 1,1 C 86 % 1007,7 hPa 0,0 l/m 2,5 km/h (1 Bft) W 263 2 min 0,000 mm 0,0 UV-I 217 W/m -1,4 C 0,7 C 4,8 km/h (1 Bft) 100,00 %
29.01.2019 14:22 0,8 C 3,3 C 1,7 C 86 % 1007,7 hPa 0,0 l/m 2,4 km/h (1 Bft) W 261 2 min 0,000 mm 0,0 UV-I 279 W/m -1,3 C 0,8 C 4,8 km/h (1 Bft) 100,00 %
29.01.2019 14:24 1,0 C 3,3 C 2,2 C 86 % 1007,6 hPa 0,0 l/m 3,7 km/h (1 Bft) W-SW 238 2 min 0,000 mm 0,0 UV-I 276 W/m -1,1 C 1,0 C 6,4 km/h (2 Bft) 100,00 %
29.01.2019 14:26 1,1 C 3,3 C 2,2 C 85 % 1007,6 hPa 0,0 l/m 3,1 km/h (1 Bft) W-SW 238 2 min 0,000 mm 0,0 UV-I 272 W/m -1,1 C 1,1 C 4,8 km/h (1 Bft) 97,92 %
29.01.2019 14:28 1,3 C 3,3 C 2,2 C 85 % 1007,6 hPa 0,0 l/m 2,7 km/h (1 Bft) W-SW 238 2 min 0,000 mm 0,0 UV-I 271 W/m -0,9 C 1,3 C 6,4 km/h (2 Bft) 97,87 %
29.01.2019 14:30 1,6 C 3,3 C 2,8 C 85 % 1007,6 hPa 0,0 l/m 2,5 km/h (1 Bft) W-SW 238 2 min 0,000 mm 0,0 UV-I 267 W/m -0,6 C 1,6 C 4,8 km/h (1 Bft) 100,00 %
29.01.2019 14:32 1,6 C 3,3 C 2,8 C 83 % 1007,6 hPa 0,0 l/m 4,9 km/h (1 Bft) W-SW 246 2 min 0,000 mm 0,0 UV-I 265 W/m -1,0 C 1,6 C 8,0 km/h (2 Bft) 100,00 %
29.01.2019 14:34 1,6 C 3,3 C 3,3 C 83 % 1007,5 hPa 0,0 l/m 3,3 km/h (1 Bft) SW 233 2 min 0,000 mm 0,0 UV-I 273 W/m -1,0 C 1,6 C 6,4 km/h (2 Bft) 100,00 %
29.01.2019 14:36 1,7 C 3,3 C 4,4 C 82 % 1007,5 hPa 0,0 l/m 3,5 km/h (1 Bft) SW 232 2 min 0,000 mm 0,0 UV-I 294 W/m -1,0 C 1,7 C 4,8 km/h (1 Bft) 100,00 %
29.01.2019 14:38 1,9 C 3,3 C 5,0 C 83 % 1007,5 hPa 0,0 l/m 3,0 km/h (1 Bft) SW 234 2 min 0,000 mm 0,0 UV-I 315 W/m -0,7 C 1,9 C 4,8 km/h (1 Bft) 100,00 %
29.01.2019 14:40 2,1 C 3,3 C 5,0 C 83 % 1007,4 hPa 0,0 l/m 2,4 km/h (1 Bft) W-SW 244 2 min 0,000 mm 0,0 UV-I 320 W/m -0,5 C 2,1 C 4,8 km/h (1 Bft) 97,87 %
29.01.2019 14:42 2,2 C 3,3 C 4,4 C 81 % 1007,4 hPa 0,0 l/m 4,5 km/h (1 Bft) SW 226 2 min 0,000 mm 0,0 UV-I 307 W/m -0,7 C 2,2 C 8,0 km/h (2 Bft) 100,00 %
29.01.2019 14:44 2,2 C 3,3 C 3,9 C 81 % 1007,4 hPa 0,0 l/m 4,3 km/h (1 Bft) SW 222 2 min 0,000 mm 0,0 UV-I 270 W/m -0,7 C 2,2 C 6,4 km/h (2 Bft) 98,11 %
29.01.2019 14:46 2,1 C 3,3 C 3,3 C 81 % 1007,3 hPa 0,0 l/m 4,8 km/h (1 Bft) W-SW 252 2 min 0,000 mm 0,0 UV-I 184 W/m -0,8 C 2,1 C 8,0 km/h (2 Bft) 97,14 %
29.01.2019 14:48 2,1 C 3,3 C 2,8 C 80 % 1007,3 hPa 0,0 l/m 3,1 km/h (1 Bft) W-NW 302 2 min 0,000 mm 0,0 UV-I 159 W/m -1,0 C 2,1 C 4,8 km/h (1 Bft) 97,87 %
29.01.2019 14:50 2,0 C 3,3 C 2,2 C 81 % 1007,3 hPa 0,0 l/m 4,7 km/h (1 Bft) NW 314 2 min 0,000 mm 0,0 UV-I 232 W/m -0,9 C 2,0 C 8,0 km/h (2 Bft) 97,87 %
29.01.2019 14:52 1,9 C 3,3 C 2,2 C 80 % 1007,3 hPa 0,0 l/m 7,5 km/h (2 Bft) W-SW 258 2 min 0,000 mm 0,0 UV-I 227 W/m -1,2 C 0,8 C 12,9 km/h (3 Bft) 97,87 %
29.01.2019 14:54 1,9 C 3,3 C 2,2 C 78 % 1007,3 hPa 0,0 l/m 4,2 km/h (1 Bft) W-SW 255 2 min 0,000 mm 0,0 UV-I 229 W/m -1,5 C 1,9 C 8,0 km/h (2 Bft) 97,87 %
29.01.2019 14:56 2,0 C 3,3 C 2,2 C 77 % 1007,2 hPa 0,0 l/m 5,1 km/h (1 Bft) NW 309 2 min 0,000 mm 0,0 UV-I 246 W/m -1,6 C 2,0 C 8,0 km/h (2 Bft) 97,87 %
29.01.2019 14:58 2,1 C 3,3 C 2,2 C 77 % 1007,2 hPa 0,0 l/m 3,6 km/h (1 Bft) NW 308 2 min 0,000 mm 0,0 UV-I 258 W/m -1,5 C 2,1 C 8,0 km/h (2 Bft) 95,83 %
29.01.2019 15:00 2,2 C 3,3 C 2,8 C 76 % 1007,2 hPa 0,0 l/m 2,2 km/h (1 Bft) NW 309 2 min 0,076 mm 0,0 UV-I 240 W/m -1,6 C 2,2 C 4,8 km/h (1 Bft) 91,49 %
29.01.2019 15:02 2,2 C 3,3 C 2,8 C 76 % 1007,2 hPa 0,0 l/m 1,6 km/h (1 Bft) NW 309 2 min 0,000 mm 0,0 UV-I 197 W/m -1,6 C 2,2 C 4,8 km/h (1 Bft) 100,00 %
29.01.2019 15:04 2,2 C 3,3 C 2,8 C 77 % 1007,1 hPa 0,0 l/m 2,4 km/h (1 Bft) NW 317 2 min 0,000 mm 0,0 UV-I 230 W/m -1,4 C 2,2 C 4,8 km/h (1 Bft) 100,00 %
29.01.2019 15:06 2,2 C 3,3 C 3,3 C 76 % 1007,1 hPa 0,0 l/m 2,3 km/h (1 Bft) NW 316 2 min 0,000 mm 0,0 UV-I 287 W/m -1,6 C 2,2 C 4,8 km/h (1 Bft) 97,87 %
29.01.2019 15:08 2,3 C 3,3 C 3,9 C 77 % 1007,1 hPa 0,0 l/m 2,0 km/h (1 Bft) NW 316 2 min 0,000 mm 0,0 UV-I 305 W/m -1,3 C 2,3 C 3,2 km/h (1 Bft) 100,00 %
29.01.2019 15:10 2,3 C 3,3 C 3,9 C 76 % 1007,1 hPa 0,0 l/m 2,6 km/h (1 Bft) NW 316 2 min 0,000 mm 0,0 UV-I 311 W/m -1,5 C 2,3 C 4,8 km/h (1 Bft) 100,00 %
29.01.2019 15:12 2,4 C 3,3 C 4,4 C 76 % 1007,1 hPa 0,0 l/m 0,6 km/h (0 Bft) NW 316 2 min 0,000 mm 0,0 UV-I 296 W/m -1,4 C 2,4 C 1,6 km/h (1 Bft) 97,87 %
29.01.2019 15:15 2,4 C 3,3 C 3,9 C 76 % 1007,0 hPa 0,0 l/m 3,2 km/h (1 Bft) W-SW 257 3 min 0,000 mm 0,0 UV-I 218 W/m -1,4 C 2,4 C 11,3 km/h (2 Bft) 98,68 %
29.01.2019 15:16 2,4 C 3,3 C 3,9 C 75 % 1007,0 hPa 0,0 l/m 8,8 km/h (2 Bft) W 263 1 min 0,000 mm 0,0 UV-I 150 W/m -1,6 C 0,2 C 12,9 km/h (3 Bft) 100,00 %
29.01.2019 15:18 2,4 C 3,3 C 3,3 C 74 % 1007,0 hPa 0,0 l/m 6,9 km/h (2 Bft) W-SW 250 0 min 0,000 mm 0,0 UV-I 121 W/m -1,7 C 1,9 C 12,9 km/h (3 Bft) 100,00 %
29.01.2019 15:20 2,3 C 3,3 C 2,8 C 71 % 1007,0 hPa 0,0 l/m 9,4 km/h (2 Bft) SW 224 0 min 0,000 mm 0,0 UV-I 88 W/m -2,4 C -0,4 C 12,9 km/h (3 Bft) 97,87 %
29.01.2019 15:22 2,2 C 3,3 C 2,2 C 71 % 1007,0 hPa 0,0 l/m 8,5 km/h (2 Bft) W-SW 238 0 min 0,000 mm 0,0 UV-I 76 W/m -2,5 C 0,2 C 12,9 km/h (3 Bft) 97,37 %
29.01.2019 15:24 2,1 C 3,3 C 2,2 C 71 % 1007,0 hPa 0,0 l/m 7,6 km/h (2 Bft) W-SW 257 0 min 0,000 mm 0,0 UV-I 82 W/m -2,6 C 0,9 C 12,9 km/h (3 Bft) 93,62 %
29.01.2019 15:26 2,1 C 3,3 C 1,7 C 72 % 1007,0 hPa 0,0 l/m 7,9 km/h (2 Bft) W-SW 250 0 min 0,000 mm 0,0 UV-I 89 W/m -2,4 C 0,7 C 12,9 km/h (3 Bft) 92,00 %
29.01.2019 15:28 2,0 C 3,3 C 1,7 C 73 % 1007,0 hPa 0,0 l/m 5,8 km/h (2 Bft) W-SW 246 0 min 0,000 mm 0,0 UV-I 75 W/m -2,3 C 2,0 C 9,7 km/h (2 Bft) 97,87 %
29.01.2019 15:30 1,9 C 3,3 C 1,1 C 73 % 1006,9 hPa 0,0 l/m 6,8 km/h (2 Bft) SW 236 0 min 0,000 mm 0,0 UV-I 69 W/m -2,4 C 1,5 C 11,3 km/h (2 Bft) 97,87 %
29.01.2019 15:32 1,8 C 3,3 C 1,1 C 73 % 1006,9 hPa 0,0 l/m 7,6 km/h (2 Bft) S-SW 211 0 min 0,000 mm 0,0 UV-I 70 W/m -2,5 C 0,6 C 12,9 km/h (3 Bft) 96,00 %
29.01.2019 15:34 1,8 C 3,3 C 1,1 C 73 % 1006,9 hPa 0,0 l/m 7,0 km/h (2 Bft) SW 234 0 min 0,000 mm 0,0 UV-I 79 W/m -2,5 C 1,2 C 11,3 km/h (2 Bft) 97,87 %
29.01.2019 15:36 1,7 C 3,3 C 1,1 C 74 % 1006,9 hPa 0,0 l/m 5,8 km/h (2 Bft) S-SW 200 0 min 0,000 mm 0,0 UV-I 84 W/m -2,4 C 1,7 C 9,7 km/h (2 Bft) 97,87 %
29.01.2019 15:38 1,7 C 3,3 C 1,1 C 74 % 1006,9 hPa 0,0 l/m 6,0 km/h (2 Bft) SW 236 2 min 0,000 mm 0,0 UV-I 118 W/m -2,4 C 1,7 C 9,7 km/h (2 Bft) 97,44 %
29.01.2019 15:40 1,7 C 3,3 C 1,1 C 74 % 1006,9 hPa 0,0 l/m 5,0 km/h (1 Bft) S-SW 213 2 min 0,000 mm 0,0 UV-I 147 W/m -2,4 C 1,7 C 8,0 km/h (2 Bft) 98,00 %
29.01.2019 15:42 1,6 C 3,3 C 1,1 C 75 % 1006,9 hPa 0,0 l/m 5,5 km/h (1 Bft) SW 236 0 min 0,000 mm 0,0 UV-I 74 W/m -2,3 C 1,6 C 9,7 km/h (2 Bft) 93,62 %
29.01.2019 15:44 1,6 C 3,3 C 1,1 C 74 % 1006,9 hPa 0,0 l/m 5,5 km/h (1 Bft) SW 236 0 min 0,000 mm 0,0 UV-I 91 W/m -2,5 C 1,6 C 11,3 km/h (2 Bft) 95,74 %
29.01.2019 15:46 1,6 C 3,3 C 1,1 C 75 % 1006,9 hPa 0,0 l/m 5,6 km/h (1 Bft) SW 214 0 min 0,000 mm 0,0 UV-I 72 W/m -2,3 C 1,6 C 8,0 km/h (2 Bft) 97,87 %
29.01.2019 15:48 1,6 C 3,3 C 0,6 C 75 % 1006,9 hPa 0,0 l/m 3,3 km/h (1 Bft) SW 221 0 min 0,000 mm 0,0 UV-I 53 W/m -2,3 C 1,6 C 6,4 km/h (2 Bft) 97,87 %
29.01.2019 15:50 1,6 C 3,3 C 0,6 C 75 % 1006,9 hPa 0,0 l/m 4,4 km/h (1 Bft) SW 228 0 min 0,000 mm 0,0 UV-I 58 W/m -2,3 C 1,6 C 6,4 km/h (2 Bft) 97,87 %
29.01.2019 15:52 1,5 C 3,3 C 0,6 C 76 % 1006,9 hPa 0,0 l/m 5,0 km/h (1 Bft) SW 225 0 min 0,000 mm 0,0 UV-I 62 W/m -2,3 C 1,5 C 6,4 km/h (2 Bft) 98,00 %
29.01.2019 15:54 1,4 C 3,3 C 0,6 C 76 % 1006,9 hPa 0,0 l/m 3,5 km/h (1 Bft) SW 215 0 min 0,000 mm 0,0 UV-I 59 W/m -2,4 C 1,4 C 8,0 km/h (2 Bft) 95,74 %
29.01.2019 15:56 1,4 C 3,3 C 0,6 C 77 % 1006,9 hPa 0,0 l/m 3,6 km/h (1 Bft) SW 215 0 min 0,000 mm 0,0 UV-I 61 W/m -2,2 C 1,4 C 6,4 km/h (2 Bft) 95,74 %
29.01.2019 15:58 1,4 C 3,3 C 0,6 C 77 % 1006,9 hPa 0,0 l/m 5,1 km/h (1 Bft) SW 218 0 min 0,000 mm 0,0 UV-I 60 W/m -2,2 C 1,4 C 6,4 km/h (2 Bft) 91,49 %
29.01.2019 16:00 1,4 C 3,3 C 0,6 C 77 % 1006,9 hPa 0,0 l/m 5,0 km/h (1 Bft) S-SW 205 0 min 0,000 mm 0,0 UV-I 54 W/m -2,2 C 1,4 C 8,0 km/h (2 Bft) 97,37 %
29.01.2019 16:02 1,4 C 3,3 C 0,6 C 76 % 1006,9 hPa 0,0 l/m 5,0 km/h (1 Bft) S-SW 211 0 min 0,051 mm 0,0 UV-I 55 W/m -2,4 C 1,4 C 8,0 km/h (2 Bft) 94,23 %
29.01.2019 16:04 1,4 C 3,3 C 0,6 C 77 % 1006,9 hPa 0,0 l/m 4,1 km/h (1 Bft) S-SW 213 0 min 0,000 mm 0,0 UV-I 56 W/m -2,2 C 1,4 C 6,4 km/h (2 Bft) 95,74 %
29.01.2019 16:06 1,3 C 3,3 C 0,6 C 78 % 1006,9 hPa 0,0 l/m 3,8 km/h (1 Bft) S-SW 213 0 min 0,000 mm 0,0 UV-I 60 W/m -2,1 C 1,3 C 6,4 km/h (2 Bft) 97,87 %
29.01.2019 16:08 1,3 C 3,3 C 0,6 C 78 % 1006,9 hPa 0,0 l/m 4,1 km/h (1 Bft) S-SW 213 0 min 0,000 mm 0,0 UV-I 58 W/m -2,1 C 1,3 C 6,4 km/h (2 Bft) 95,74 %
29.01.2019 16:10 1,3 C 3,3 C 0,6 C 78 % 1006,9 hPa 0,0 l/m 3,7 km/h (1 Bft) S-SW 213 0 min 0,000 mm 0,0 UV-I 43 W/m -2,1 C 1,3 C 4,8 km/h (1 Bft) 97,87 %
29.01.2019 16:12 1,3 C 3,3 C 0,6 C 78 % 1006,9 hPa 0,0 l/m 3,4 km/h (1 Bft) S-SW 213 0 min 0,000 mm 0,0 UV-I 34 W/m -2,1 C 1,3 C 4,8 km/h (1 Bft) 97,87 %
29.01.2019 16:15 1,2 C 3,3 C 0,0 C 77 % 1006,9 hPa 0,0 l/m 3,5 km/h (1 Bft) SW 214 0 min 0,000 mm 0,0 UV-I 33 W/m -2,4 C 1,2 C 4,8 km/h (1 Bft) 97,14 %
29.01.2019 16:16 1,2 C 3,3 C 0,0 C 78 % 1006,9 hPa 0,0 l/m 2,7 km/h (1 Bft) SW 214 0 min 0,000 mm 0,0 UV-I 33 W/m -2,2 C 1,2 C 3,2 km/h (1 Bft) 100,00 %
29.01.2019 16:18 1,1 C 3,3 C 0,0 C 78 % 1006,9 hPa 0,0 l/m 1,8 km/h (1 Bft) SW 214 0 min 0,000 mm 0,0 UV-I 46 W/m -2,3 C 1,1 C 3,2 km/h (1 Bft) 100,00 %
29.01.2019 16:20 1,1 C 3,3 C -0,6 C 78 % 1006,8 hPa 0,0 l/m 2,0 km/h (1 Bft) SW 214 2 min 0,000 mm 0,0 UV-I 63 W/m -2,3 C 1,1 C 3,2 km/h (1 Bft) 95,83 %
29.01.2019 16:22 1,1 C 3,3 C -0,6 C 79 % 1006,8 hPa 0,0 l/m 1,5 km/h (1 Bft) SW 214 2 min 0,000 mm 0,0 UV-I 63 W/m -2,1 C 1,1 C 3,2 km/h (1 Bft) 100,00 %
29.01.2019 16:24 1,1 C 3,3 C -0,6 C 79 % 1006,8 hPa 0,0 l/m 1,2 km/h (1 Bft) S-SW 213 2 min 0,000 mm 0,0 UV-I 59 W/m -2,1 C 1,1 C 3,2 km/h (1 Bft) 98,00 %
29.01.2019 16:26 0,9 C 3,3 C -0,6 C 80 % 1006,8 hPa 0,0 l/m 1,6 km/h (1 Bft) S-SW 213 2 min 0,000 mm 0,0 UV-I 49 W/m -2,2 C 0,9 C 3,2 km/h (1 Bft) 97,37 %
29.01.2019 16:28 0,8 C 3,3 C -1,1 C 81 % 1006,8 hPa 0,0 l/m 1,1 km/h (1 Bft) S-SW 213 2 min 0,000 mm 0,0 UV-I 46 W/m -2,1 C 0,8 C 3,2 km/h (1 Bft) 100,00 %
29.01.2019 16:30 0,7 C 3,3 C -1,1 C 81 % 1006,7 hPa 0,0 l/m 1,4 km/h (1 Bft) S-SW 213 2 min 0,000 mm 0,0 UV-I 43 W/m -2,2 C 0,7 C 3,2 km/h (1 Bft) 100,00 %
29.01.2019 16:32 0,7 C 3,3 C -1,1 C 81 % 1006,7 hPa 0,0 l/m 1,6 km/h (1 Bft) S-SW 213 2 min 0,000 mm 0,0 UV-I 40 W/m -2,2 C 0,7 C 3,2 km/h (1 Bft) 100,00 %
29.01.2019 16:35 0,6 C 3,3 C -1,7 C 82 % 1006,7 hPa 0,0 l/m 1,4 km/h (1 Bft) S-SW 213 3 min 0,000 mm 0,0 UV-I 37 W/m -2,1 C 0,6 C 3,2 km/h (1 Bft) 98,31 %
29.01.2019 16:36 0,6 C 3,3 C -1,7 C 83 % 1006,7 hPa 0,0 l/m 1,7 km/h (1 Bft) S-SW 213 1 min 0,000 mm 0,0 UV-I 35 W/m -1,9 C 0,6 C 3,2 km/h (1 Bft) 100,00 %
29.01.2019 16:38 0,5 C 3,3 C -2,2 C 83 % 1006,7 hPa 0,0 l/m 1,4 km/h (1 Bft) S-SW 213 2 min 0,000 mm 0,0 UV-I 34 W/m -2,0 C 0,5 C 1,6 km/h (1 Bft) 97,87 %
29.01.2019 16:40 0,5 C 3,3 C -2,2 C 83 % 1006,7 hPa 0,0 l/m 1,4 km/h (1 Bft) S-SW 213 2 min 0,000 mm 0,0 UV-I 32 W/m -2,0 C 0,5 C 3,2 km/h (1 Bft) 100,00 %
29.01.2019 16:42 0,4 C 3,3 C -2,2 C 84 % 1006,8 hPa 0,0 l/m 1,0 km/h (0 Bft) S-SW 213 2 min 0,000 mm 0,0 UV-I 28 W/m -2,0 C 0,4 C 3,2 km/h (1 Bft) 97,14 %
29.01.2019 16:44 0,4 C 3,3 C -2,2 C 84 % 1006,7 hPa 0,0 l/m 1,2 km/h (1 Bft) S-SW 213 2 min 0,000 mm 0,0 UV-I 26 W/m -2,0 C 0,4 C 1,6 km/h (1 Bft) 100,00 %
29.01.2019 16:46 0,4 C 3,3 C -2,2 C 83 % 1006,7 hPa 0,0 l/m 0,8 km/h (0 Bft) S-SW 213 2 min 0,000 mm 0,0 UV-I 17 W/m -2,1 C 0,4 C 1,6 km/h (1 Bft) 100,00 %
29.01.2019 16:48 0,3 C 3,3 C -2,8 C 83 % 1006,7 hPa 0,0 l/m 0,0 km/h (0 Bft) S-SW 213 0 min 0,000 mm 0,0 UV-I 12 W/m -2,2 C 0,3 C 0,0 km/h (0 Bft) 100,00 %
29.01.2019 16:50 0,2 C 3,3 C -3,3 C 84 % 1006,7 hPa 0,0 l/m 0,0 km/h (0 Bft) S-SW 213 0 min 0,000 mm 0,0 UV-I 6 W/m -2,2 C 0,2 C 0,0 km/h (0 Bft) 100,00 %
29.01.2019 16:52 0,1 C 3,3 C -3,3 C 84 % 1006,7 hPa 0,0 l/m 0,0 km/h (0 Bft) S-SW 213 0 min 0,000 mm 0,0 UV-I 18 W/m -2,3 C 0,1 C 0,0 km/h (0 Bft) 97,87 %
29.01.2019 16:54 -0,1 C 3,3 C -3,3 C 84 % 1006,6 hPa 0,0 l/m 0,0 km/h (0 Bft) S-SW 213 0 min 0,000 mm 0,0 UV-I 13 W/m -2,5 C -0,1 C 0,0 km/h (0 Bft) 98,00 %
29.01.2019 16:56 -0,2 C 3,3 C -3,3 C 84 % 1006,7 hPa 0,0 l/m 0,7 km/h (0 Bft) S-SW 213 0 min 0,000 mm 0,0 UV-I 11 W/m -2,6 C -0,2 C 1,6 km/h (1 Bft) 100,00 %
29.01.2019 16:58 -0,4 C 3,3 C -3,9 C 84 % 1006,7 hPa 0,0 l/m 2,3 km/h (1 Bft) S-SW 213 0 min 0,000 mm 0,0 UV-I 9 W/m -2,8 C -0,4 C 3,2 km/h (1 Bft) 100,00 %
29.01.2019 17:00 -0,5 C 3,3 C -3,3 C 85 % 1006,6 hPa 0,0 l/m 3,7 km/h (1 Bft) S-SW 213 0 min 0,025 mm 0,0 UV-I 7 W/m -2,7 C -0,5 C 4,8 km/h (1 Bft) 98,00 %
29.01.2019 17:02 -0,6 C 3,3 C -3,3 C 85 % 1006,6 hPa 0,0 l/m 4,4 km/h (1 Bft) S-SW 213 0 min 0,000 mm 0,0 UV-I 7 W/m -2,8 C -0,6 C 4,8 km/h (1 Bft) 97,87 %
29.01.2019 17:04 -0,8 C 3,3 C -3,3 C 86 % 1006,6 hPa 0,0 l/m 4,3 km/h (1 Bft) S-SW 213 0 min 0,000 mm 0,0 UV-I 6 W/m -2,8 C -0,8 C 4,8 km/h (1 Bft) 100,00 %
29.01.2019 17:06 -0,9 C 3,3 C -3,3 C 86 % 1006,6 hPa 0,0 l/m 3,4 km/h (1 Bft) S-SW 213 0 min 0,000 mm 0,0 UV-I 5 W/m -2,9 C -0,9 C 4,8 km/h (1 Bft) 100,00 %
29.01.2019 17:08 -1,1 C 3,3 C -3,3 C 87 % 1006,6 hPa 0,0 l/m 3,2 km/h (1 Bft) S-SW 213 0 min 0,000 mm 0,0 UV-I 5 W/m -3,0 C -1,1 C 4,8 km/h (1 Bft) 97,87 %
29.01.2019 17:10 -1,1 C 3,3 C -3,3 C 88 % 1006,6 hPa 0,0 l/m 2,9 km/h (1 Bft) S-SW 213 0 min 0,000 mm 0,0 UV-I 5 W/m -2,8 C -1,1 C 3,2 km/h (1 Bft) 96,00 %
29.01.2019 17:12 -1,1 C 3,3 C -3,9 C 88 % 1006,6 hPa 0,0 l/m 3,0 km/h (1 Bft) S-SW 213 0 min 0,000 mm 0,0 UV-I 0 W/m -2,8 C -1,1 C 3,2 km/h (1 Bft) 97,87 %
29.01.2019 17:14 -0,9 C 3,3 C -3,9 C 88 % 1006,6 hPa 0,0 l/m 2,5 km/h (1 Bft) S-SW 213 0 min 0,000 mm 0,0 UV-I 0 W/m -2,6 C -0,9 C 3,2 km/h (1 Bft) 97,87 %
29.01.2019 17:16 -0,8 C 3,3 C -3,9 C 88 % 1006,6 hPa 0,0 l/m 2,3 km/h (1 Bft) S-SW 213 0 min 0,000 mm 0,0 UV-I 0 W/m -2,5 C -0,8 C 3,2 km/h (1 Bft) 97,87 %
29.01.2019 17:18 -0,9 C 3,3 C -3,9 C 88 % 1006,6 hPa 0,0 l/m 2,3 km/h (1 Bft) S-SW 213 0 min 0,000 mm 0,0 UV-I 0 W/m -2,6 C -0,9 C 3,2 km/h (1 Bft) 95,74 %
29.01.2019 17:20 -0,9 C 3,3 C -4,4 C 88 % 1006,6 hPa 0,0 l/m 1,6 km/h (1 Bft) S-SW 213 0 min 0,000 mm 0,0 UV-I 0 W/m -2,6 C -0,9 C 3,2 km/h (1 Bft) 92,11 %
29.01.2019 17:22 -0,9 C 3,3 C -4,4 C 88 % 1006,6 hPa 0,0 l/m 1,4 km/h (1 Bft) S-SW 213 0 min 0,000 mm 0,0 UV-I 0 W/m -2,6 C -0,9 C 1,6 km/h (1 Bft) 97,87 %
29.01.2019 17:24 -0,9 C 3,3 C -4,4 C 88 % 1006,6 hPa 0,0 l/m 1,4 km/h (1 Bft) S-SW 213 0 min 0,000 mm 0,0 UV-I 0 W/m -2,6 C -0,9 C 1,6 km/h (1 Bft) 97,87 %
29.01.2019 17:26 -0,9 C 3,3 C -4,4 C 88 % 1006,6 hPa 0,0 l/m 1,4 km/h (1 Bft) S-SW 213 0 min 0,000 mm 0,0 UV-I 0 W/m -2,6 C -0,9 C 1,6 km/h (1 Bft) 100,00 %
29.01.2019 17:28 -1,0 C 3,3 C -5,0 C 88 % 1006,6 hPa 0,0 l/m 1,0 km/h (0 Bft) S-SW 213 0 min 0,000 mm 0,0 UV-I 0 W/m -2,7 C -1,0 C 3,2 km/h (1 Bft) 97,87 %
29.01.2019 17:30 -1,1 C 3,3 C -5,0 C 88 % 1006,6 hPa 0,0 l/m 2,0 km/h (1 Bft) SW 214 0 min 0,000 mm 0,0 UV-I 0 W/m -2,8 C -1,1 C 3,2 km/h (1 Bft) 98,00 %
29.01.2019 17:32 -1,1 C 3,3 C -5,0 C 88 % 1006,6 hPa 0,0 l/m 1,2 km/h (1 Bft) SW 214 0 min 0,000 mm 0,0 UV-I 0 W/m -2,8 C -1,1 C 3,2 km/h (1 Bft) 100,00 %
29.01.2019 17:34 -1,1 C 3,3 C -5,0 C 88 % 1006,6 hPa 0,0 l/m 2,1 km/h (1 Bft) SW 214 0 min 0,000 mm 0,0 UV-I 0 W/m -2,8 C -1,1 C 3,2 km/h (1 Bft) 100,00 %
29.01.2019 17:36 -1,1 C 3,3 C -5,0 C 88 % 1006,6 hPa 0,0 l/m 1,7 km/h (1 Bft) SW 215 0 min 0,000 mm 0,0 UV-I 0 W/m -2,8 C -1,1 C 3,2 km/h (1 Bft) 97,87 %
29.01.2019 17:38 -1,2 C 3,3 C -5,0 C 88 % 1006,6 hPa 0,0 l/m 2,2 km/h (1 Bft) SW 215 0 min 0,000 mm 0,0 UV-I 0 W/m -2,9 C -1,2 C 3,2 km/h (1 Bft) 100,00 %
29.01.2019 17:40 -1,3 C 3,3 C -5,6 C 88 % 1006,5 hPa 0,0 l/m 2,1 km/h (1 Bft) SW 215 0 min 0,000 mm 0,0 UV-I 0 W/m -3,0 C -1,3 C 3,2 km/h (1 Bft) 100,00 %
29.01.2019 17:42 -1,4 C 3,3 C -5,6 C 88 % 1006,5 hPa 0,0 l/m 3,6 km/h (1 Bft) S-SW 213 0 min 0,000 mm 0,0 UV-I 0 W/m -3,1 C -1,4 C 4,8 km/h (1 Bft) 100,00 %
29.01.2019 17:44 -1,3 C 3,3 C -5,0 C 89 % 1006,5 hPa 0,0 l/m 4,8 km/h (1 Bft) NO 48 0 min 0,000 mm 0,0 UV-I 0 W/m -2,9 C -1,3 C 6,4 km/h (2 Bft) 93,62 %
29.01.2019 17:46 -1,2 C 3,3 C -5,0 C 89 % 1006,5 hPa 0,0 l/m 4,1 km/h (1 Bft) NO 48 0 min 0,000 mm 0,0 UV-I 0 W/m -2,8 C -1,2 C 4,8 km/h (1 Bft) 97,37 %
29.01.2019 17:48 -1,0 C 3,3 C -4,4 C 89 % 1006,4 hPa 0,0 l/m 4,2 km/h (1 Bft) NO 51 0 min 0,000 mm 0,0 UV-I 0 W/m -2,6 C -1,0 C 4,8 km/h (1 Bft) 97,87 %
29.01.2019 17:50 -0,8 C 3,3 C -4,4 C 88 % 1006,5 hPa 0,0 l/m 4,4 km/h (1 Bft) O-NO 59 0 min 0,000 mm 0,0 UV-I 0 W/m -2,5 C -0,8 C 4,8 km/h (1 Bft) 96,00 %
29.01.2019 17:52 -0,7 C 3,3 C -4,4 C 88 % 1006,5 hPa 0,0 l/m 4,1 km/h (1 Bft) O-NO 59 0 min 0,000 mm 0,0 UV-I 0 W/m -2,4 C -0,7 C 4,8 km/h (1 Bft) 95,74 %
29.01.2019 17:54 -0,7 C 3,3 C -4,4 C 87 % 1006,5 hPa 0,0 l/m 3,8 km/h (1 Bft) O-NO 59 0 min 0,000 mm 0,0 UV-I 0 W/m -2,6 C -0,7 C 4,8 km/h (1 Bft) 97,87 %
29.01.2019 17:56 -0,6 C 3,3 C -4,4 C 87 % 1006,5 hPa 0,0 l/m 3,6 km/h (1 Bft) O-NO 59 0 min 0,000 mm 0,0 UV-I 0 W/m -2,5 C -0,6 C 4,8 km/h (1 Bft) 98,00 %
29.01.2019 17:58 -0,6 C 3,3 C -5,0 C 86 % 1006,4 hPa 0,0 l/m 3,8 km/h (1 Bft) O-NO 59 0 min 0,000 mm 0,0 UV-I 0 W/m -2,6 C -0,6 C 4,8 km/h (1 Bft) 97,87 %
29.01.2019 18:00 -0,6 C 3,3 C -5,0 C 86 % 1006,4 hPa 0,0 l/m 3,6 km/h (1 Bft) O-NO 59 0 min 0,000 mm 0,0 UV-I 0 W/m -2,6 C -0,6 C 4,8 km/h (1 Bft) 97,87 %
29.01.2019 18:02 -0,6 C 3,3 C -5,6 C 85 % 1006,4 hPa 0,0 l/m 3,3 km/h (1 Bft) O-NO 61 0 min 0,000 mm 0,0 UV-I 0 W/m -2,8 C -0,6 C 4,8 km/h (1 Bft) 97,37 %
29.01.2019 18:04 -0,7 C 3,3 C -6,1 C 86 % 1006,4 hPa 0,0 l/m 4,0 km/h (1 Bft) O-NO 63 0 min 0,000 mm 0,0 UV-I 0 W/m -2,7 C -0,7 C 4,8 km/h (1 Bft) 93,62 %
29.01.2019 18:06 -0,8 C 3,3 C -6,1 C 86 % 1006,4 hPa 0,0 l/m 4,7 km/h (1 Bft) O-NO 78 0 min 0,000 mm 0,0 UV-I 0 W/m -2,8 C -0,8 C 6,4 km/h (2 Bft) 93,62 %
29.01.2019 18:08 -0,9 C 3,3 C -5,6 C 86 % 1006,4 hPa 0,0 l/m 4,7 km/h (1 Bft) O 84 0 min 0,000 mm 0,0 UV-I 0 W/m -2,9 C -0,9 C 6,4 km/h (2 Bft) 95,74 %
29.01.2019 18:10 -1,1 C 3,3 C -5,6 C 86 % 1006,3 hPa 0,0 l/m 4,7 km/h (1 Bft) O 84 0 min 0,000 mm 0,0 UV-I 0 W/m -3,1 C -1,1 C 6,4 km/h (2 Bft) 95,83 %
29.01.2019 18:12 -1,3 C 3,3 C -5,6 C 87 % 1006,3 hPa 0,0 l/m 5,3 km/h (1 Bft) O-SO 109 0 min 0,000 mm 0,0 UV-I 0 W/m -3,2 C -1,3 C 6,4 km/h (2 Bft) 95,74 %
29.01.2019 18:14 -1,4 C 3,3 C -5,0 C 88 % 1006,3 hPa 0,0 l/m 7,3 km/h (2 Bft) O-SO 119 0 min 0,000 mm 0,0 UV-I 0 W/m -3,1 C -2,4 C 11,3 km/h (2 Bft) 95,74 %
29.01.2019 18:16 -1,3 C 3,3 C -4,4 C 89 % 1006,3 hPa 0,0 l/m 6,1 km/h (2 Bft) O-SO 118 0 min 0,000 mm 0,0 UV-I 0 W/m -2,9 C -1,3 C 8,0 km/h (2 Bft) 93,62 %
29.01.2019 18:18 -1,2 C 3,3 C -4,4 C 88 % 1006,3 hPa 0,0 l/m 5,4 km/h (1 Bft) O-SO 119 0 min 0,000 mm 0,0 UV-I 0 W/m -2,9 C -1,2 C 9,7 km/h (2 Bft) 91,49 %
29.01.2019 18:20 -1,0 C 3,3 C -4,4 C 88 % 1006,2 hPa 0,0 l/m 4,8 km/h (1 Bft) SO 126 0 min 0,000 mm 0,0 UV-I 0 W/m -2,7 C -1,0 C 8,0 km/h (2 Bft) 91,49 %
29.01.2019 18:22 -0,8 C 3,3 C -4,4 C 88 % 1006,3 hPa 0,0 l/m 6,1 km/h (2 Bft) O-SO 113 0 min 0,000 mm 0,0 UV-I 0 W/m -2,5 C -0,8 C 9,7 km/h (2 Bft) 91,49 %
29.01.2019 18:24 -0,8 C 3,3 C -4,4 C 87 % 1006,2 hPa 0,0 l/m 4,5 km/h (1 Bft) O-SO 114 0 min 0,000 mm 0,0 UV-I 0 W/m -2,7 C -0,8 C 6,4 km/h (2 Bft) 93,62 %
29.01.2019 18:26 -0,9 C 3,3 C -5,0 C 86 % 1006,2 hPa 0,0 l/m 4,0 km/h (1 Bft) O-SO 115 0 min 0,000 mm 0,0 UV-I 0 W/m -2,9 C -0,9 C 6,4 km/h (2 Bft) 91,49 %
29.01.2019 18:28 -1,0 C 3,3 C -5,0 C 87 % 1006,1 hPa 0,0 l/m 3,9 km/h (1 Bft) O-SO 115 0 min 0,000 mm 0,0 UV-I 0 W/m -2,9 C -1,0 C 6,4 km/h (2 Bft) 91,49 %
29.01.2019 18:30 -1,0 C 3,3 C -5,6 C 87 % 1006,1 hPa 0,0 l/m 5,2 km/h (1 Bft) O-SO 109 0 min 0,000 mm 0,0 UV-I 0 W/m -2,9 C -1,0 C 6,4 km/h (2 Bft) 93,62 %
29.01.2019 18:32 -0,8 C 3,3 C -5,0 C 88 % 1006,1 hPa 0,0 l/m 5,1 km/h (1 Bft) O 90 0 min 0,000 mm 0,0 UV-I 0 W/m -2,5 C -0,8 C 9,7 km/h (2 Bft) 91,49 %
29.01.2019 18:34 -0,6 C 3,3 C -4,4 C 88 % 1006,1 hPa 0,0 l/m 4,6 km/h (1 Bft) O 96 0 min 0,000 mm 0,0 UV-I 0 W/m -2,3 C -0,6 C 9,7 km/h (2 Bft) 92,45 %
29.01.2019 18:36 -0,4 C 3,3 C -4,4 C 87 % 1006,1 hPa 0,0 l/m 4,5 km/h (1 Bft) O 95 0 min 0,000 mm 0,0 UV-I 0 W/m -2,3 C -0,4 C 6,4 km/h (2 Bft) 93,62 %
29.01.2019 18:38 -0,3 C 3,3 C -4,4 C 85 % 1006,1 hPa 0,0 l/m 5,0 km/h (1 Bft) O-SO 107 0 min 0,000 mm 0,0 UV-I 0 W/m -2,5 C -0,3 C 9,7 km/h (2 Bft) 95,74 %
29.01.2019 18:40 -0,2 C 3,3 C -3,9 C 85 % 1006,0 hPa 0,0 l/m 6,0 km/h (2 Bft) O-SO 108 0 min 0,000 mm 0,0 UV-I 0 W/m -2,4 C -0,2 C 9,7 km/h (2 Bft) 93,62 %
29.01.2019 18:42 -0,2 C 3,3 C -3,9 C 85 % 1006,0 hPa 0,0 l/m 5,4 km/h (1 Bft) O-SO 109 0 min 0,000 mm 0,0 UV-I 0 W/m -2,4 C -0,2 C 9,7 km/h (2 Bft) 92,11 %
29.01.2019 18:44 -0,3 C 3,3 C -4,4 C 85 % 1005,9 hPa 0,0 l/m 6,2 km/h (2 Bft) O-SO 103 0 min 0,000 mm 0,0 UV-I 0 W/m -2,5 C -0,3 C 9,7 km/h (2 Bft) 95,74 %
29.01.2019 18:46 -0,3 C 3,3 C -4,4 C 85 % 1005,9 hPa 0,0 l/m 6,1 km/h (2 Bft) O-SO 104 0 min 0,000 mm 0,0 UV-I 0 W/m -2,5 C -0,3 C 11,3 km/h (2 Bft) 95,74 %
29.01.2019 18:48 -0,3 C 3,3 C -4,4 C 85 % 1005,8 hPa 0,0 l/m 7,9 km/h (2 Bft) O-SO 113 0 min 0,000 mm 0,0 UV-I 0 W/m -2,5 C -1,9 C 11,3 km/h (2 Bft) 97,87 %
29.01.2019 18:50 -0,3 C 3,3 C -3,9 C 85 % 1005,8 hPa 0,0 l/m 6,6 km/h (2 Bft) O-SO 111 0 min 0,000 mm 0,0 UV-I 0 W/m -2,5 C -0,5 C 11,3 km/h (2 Bft) 93,62 %
29.01.2019 18:52 -0,3 C 3,3 C -3,9 C 85 % 1005,8 hPa 0,0 l/m 7,0 km/h (2 Bft) O-SO 113 0 min 0,000 mm 0,0 UV-I 0 W/m -2,5 C -0,9 C 11,3 km/h (2 Bft) 97,92 %
29.01.2019 18:54 -0,3 C 3,3 C -3,9 C 85 % 1005,8 hPa 0,0 l/m 5,4 km/h (1 Bft) O-SO 119 0 min 0,000 mm 0,0 UV-I 0 W/m -2,5 C -0,3 C 8,0 km/h (2 Bft) 96,00 %
29.01.2019 18:56 -0,3 C 3,3 C -3,9 C 85 % 1005,8 hPa 0,0 l/m 6,4 km/h (2 Bft) SO 124 0 min 0,000 mm 0,0 UV-I 0 W/m -2,5 C -0,3 C 11,3 km/h (2 Bft) 98,00 %
29.01.2019 18:58 -0,3 C 3,3 C -3,9 C 85 % 1005,8 hPa 0,0 l/m 6,3 km/h (2 Bft) SO 125 0 min 0,000 mm 0,0 UV-I 0 W/m -2,5 C -0,3 C 8,0 km/h (2 Bft) 100,00 %
29.01.2019 19:00 -0,4 C 3,3 C -3,9 C 85 % 1005,7 hPa 0,0 l/m 6,8 km/h (2 Bft) SO 126 0 min 0,000 mm 0,0 UV-I 0 W/m -2,6 C -0,8 C 11,3 km/h (2 Bft) 100,00 %
29.01.2019 19:02 -0,6 C 3,3 C -3,3 C 85 % 1005,7 hPa 0,0 l/m 6,3 km/h (2 Bft) SO 125 0 min 0,000 mm 0,0 UV-I 0 W/m -2,8 C -0,6 C 11,3 km/h (2 Bft) 100,00 %
29.01.2019 19:04 -0,6 C 3,3 C -3,3 C 86 % 1005,7 hPa 0,0 l/m 8,4 km/h (2 Bft) O-SO 115 0 min 0,000 mm 0,0 UV-I 0 W/m -2,6 C -2,7 C 12,9 km/h (3 Bft) 97,87 %
29.01.2019 19:06 -0,5 C 3,3 C -3,3 C 86 % 1005,7 hPa 0,0 l/m 7,2 km/h (2 Bft) O 86 0 min 0,000 mm 0,0 UV-I 0 W/m -2,5 C -1,3 C 11,3 km/h (2 Bft) 100,00 %
29.01.2019 19:08 -0,5 C 3,3 C -3,9 C 86 % 1005,7 hPa 0,0 l/m 6,4 km/h (2 Bft) O-SO 111 0 min 0,000 mm 0,0 UV-I 0 W/m -2,5 C -0,5 C 9,7 km/h (2 Bft) 95,74 %
29.01.2019 19:10 -0,4 C 3,3 C -3,9 C 86 % 1005,6 hPa 0,0 l/m 6,7 km/h (2 Bft) O-SO 119 0 min 0,000 mm 0,0 UV-I 0 W/m -2,4 C -0,7 C 11,3 km/h (2 Bft) 100,00 %
29.01.2019 19:12 -0,4 C 3,3 C -3,9 C 85 % 1005,6 hPa 0,0 l/m 5,9 km/h (2 Bft) O-SO 123 0 min 0,000 mm 0,0 UV-I 0 W/m -2,6 C -0,4 C 9,7 km/h (2 Bft) 97,87 %
29.01.2019 19:14 -0,4 C 3,3 C -3,9 C 85 % 1005,6 hPa 0,0 l/m 5,6 km/h (1 Bft) O-SO 105 0 min 0,000 mm 0,0 UV-I 0 W/m -2,6 C -0,4 C 9,7 km/h (2 Bft) 100,00 %
29.01.2019 19:16 -0,4 C 3,3 C -3,9 C 86 % 1005,5 hPa 0,0 l/m 6,8 km/h (2 Bft) O-SO 106 0 min 0,000 mm 0,0 UV-I 0 W/m -2,4 C -0,8 C 12,9 km/h (3 Bft) 100,00 %
29.01.2019 19:19 -0,4 C 3,3 C -3,9 C 85 % 1005,5 hPa 0,0 l/m 7,3 km/h (2 Bft) SO 128 0 min 0,000 mm 0,0 UV-I 0 W/m -2,6 C -1,3 C 11,3 km/h (2 Bft) 98,59 %
29.01.2019 19:20 -0,4 C 3,3 C -3,9 C 85 % 1005,5 hPa 0,0 l/m 8,7 km/h (2 Bft) O 91 0 min 0,000 mm 0,0 UV-I 0 W/m -2,6 C -2,7 C 12,9 km/h (3 Bft) 91,30 %
29.01.2019 19:22 -0,4 C 3,3 C -3,9 C 85 % 1005,5 hPa 0,0 l/m 7,9 km/h (2 Bft) SO 126 0 min 0,000 mm 0,0 UV-I 0 W/m -2,6 C -2,0 C 12,9 km/h (3 Bft) 95,74 %
29.01.2019 19:24 -0,5 C 3,3 C -3,9 C 85 % 1005,5 hPa 0,0 l/m 6,8 km/h (2 Bft) O-SO 115 0 min 0,000 mm 0,0 UV-I 0 W/m -2,7 C -0,9 C 11,3 km/h (2 Bft) 98,00 %
29.01.2019 19:26 -0,6 C 3,3 C -3,9 C 85 % 1005,4 hPa 0,0 l/m 6,4 km/h (2 Bft) O-SO 111 0 min 0,000 mm 0,0 UV-I 0 W/m -2,8 C -0,6 C 11,3 km/h (2 Bft) 94,00 %
29.01.2019 19:28 -0,6 C 3,3 C -3,9 C 86 % 1005,4 hPa 0,0 l/m 5,9 km/h (2 Bft) O-SO 102 0 min 0,000 mm 0,0 UV-I 0 W/m -2,6 C -0,6 C 11,3 km/h (2 Bft) 95,74 %
29.01.2019 19:30 -0,6 C 3,3 C -3,9 C 86 % 1005,3 hPa 0,0 l/m 7,2 km/h (2 Bft) O-SO 105 0 min 0,000 mm 0,0 UV-I 0 W/m -2,6 C -1,4 C 12,9 km/h (3 Bft) 97,87 %
29.01.2019 19:32 -0,6 C 3,3 C -3,9 C 86 % 1005,3 hPa 0,0 l/m 7,6 km/h (2 Bft) O 99 0 min 0,000 mm 0,0 UV-I 0 W/m -2,6 C -1,9 C 11,3 km/h (2 Bft) 94,87 %
29.01.2019 19:35 -0,7 C 3,3 C -4,4 C 86 % 1005,2 hPa 0,0 l/m 7,8 km/h (2 Bft) O-SO 105 0 min 0,000 mm 0,0 UV-I 0 W/m -2,7 C -2,2 C 12,9 km/h (3 Bft) 97,56 %
29.01.2019 19:36 -0,7 C 3,3 C -4,4 C 86 % 1005,2 hPa 0,0 l/m 7,8 km/h (2 Bft) O-SO 107 0 min 0,000 mm 0,0 UV-I 0 W/m -2,7 C -2,2 C 11,3 km/h (2 Bft) 91,67 %
29.01.2019 19:38 -0,7 C 3,3 C -4,4 C 86 % 1005,2 hPa 0,0 l/m 7,5 km/h (2 Bft) O-SO 121 0 min 0,000 mm 0,0 UV-I 0 W/m -2,7 C -1,9 C 11,3 km/h (2 Bft) 93,62 %
29.01.2019 19:40 -0,8 C 3,3 C -4,4 C 86 % 1005,2 hPa 0,0 l/m 6,8 km/h (2 Bft) O 92 0 min 0,000 mm 0,0 UV-I 0 W/m -2,8 C -1,2 C 11,3 km/h (2 Bft) 96,00 %
29.01.2019 19:42 -0,8 C 3,3 C -3,9 C 86 % 1005,1 hPa 0,0 l/m 7,8 km/h (2 Bft) O-SO 103 0 min 0,000 mm 0,0 UV-I 0 W/m -2,8 C -2,3 C 11,3 km/h (2 Bft) 98,00 %
29.01.2019 19:44 -0,8 C 3,3 C -3,9 C 86 % 1005,1 hPa 0,0 l/m 6,3 km/h (2 Bft) O-SO 114 0 min 0,000 mm 0,0 UV-I 0 W/m -2,8 C -0,8 C 9,7 km/h (2 Bft) 100,00 %
29.01.2019 19:46 -0,8 C 3,3 C -3,9 C 86 % 1005,1 hPa 0,0 l/m 5,9 km/h (2 Bft) O-SO 107 0 min 0,000 mm 0,0 UV-I 0 W/m -2,8 C -0,8 C 9,7 km/h (2 Bft) 97,87 %
29.01.2019 19:48 -0,9 C 3,3 C -3,9 C 86 % 1005,1 hPa 0,0 l/m 7,4 km/h (2 Bft) O-SO 105 0 min 0,000 mm 0,0 UV-I 0 W/m -2,9 C -2,0 C 11,3 km/h (2 Bft) 97,87 %
29.01.2019 19:50 -1,0 C 3,3 C -3,9 C 86 % 1005,1 hPa 0,0 l/m 7,1 km/h (2 Bft) O-SO 104 0 min 0,000 mm 0,0 UV-I 0 W/m -3,0 C -1,7 C 11,3 km/h (2 Bft) 95,74 %
29.01.2019 19:52 -1,1 C 3,3 C -4,4 C 87 % 1005,1 hPa 0,0 l/m 8,0 km/h (2 Bft) O 101 0 min 0,000 mm 0,0 UV-I 0 W/m -3,0 C -2,8 C 11,3 km/h (2 Bft) 100,00 %
29.01.2019 19:54 -1,1 C 3,3 C -4,4 C 87 % 1005,1 hPa 0,0 l/m 8,5 km/h (2 Bft) O-SO 102 0 min 0,000 mm 0,0 UV-I 0 W/m -3,0 C -3,3 C 12,9 km/h (3 Bft) 96,00 %
29.01.2019 19:56 -1,1 C 3,3 C -4,4 C 87 % 1005,1 hPa 0,0 l/m 7,4 km/h (2 Bft) SO 130 0 min 0,000 mm 0,0 UV-I 0 W/m -3,0 C -2,2 C 12,9 km/h (3 Bft) 100,00 %
29.01.2019 19:58 -1,2 C 3,3 C -4,4 C 87 % 1005,1 hPa 0,0 l/m 8,3 km/h (2 Bft) O-SO 118 0 min 0,000 mm 0,0 UV-I 0 W/m -3,1 C -3,2 C 12,9 km/h (3 Bft) 100,00 %
29.01.2019 20:00 -1,2 C 3,3 C -3,9 C 88 % 1005,0 hPa 0,0 l/m 10,2 km/h (2 Bft) O-SO 120 0 min 0,000 mm 0,0 UV-I 0 W/m -2,9 C -4,9 C 14,5 km/h (3 Bft) 100,00 %
29.01.2019 20:02 -1,2 C 3,3 C -3,9 C 88 % 1005,0 hPa 0,0 l/m 8,4 km/h (2 Bft) SO 129 0 min 0,000 mm 0,0 UV-I 0 W/m -2,9 C -3,3 C 12,9 km/h (3 Bft) 100,00 %
29.01.2019 20:04 -1,2 C 3,3 C -3,9 C 88 % 1005,0 hPa 0,0 l/m 9,3 km/h (2 Bft) SO 125 0 min 0,000 mm 0,0 UV-I 0 W/m -2,9 C -4,2 C 12,9 km/h (3 Bft) 100,00 %
29.01.2019 20:06 -1,3 C 3,3 C -3,3 C 88 % 1005,0 hPa 0,0 l/m 9,5 km/h (2 Bft) SO 124 0 min 0,000 mm 0,0 UV-I 0 W/m -3,0 C -4,4 C 12,9 km/h (3 Bft) 96,88 %
29.01.2019 20:08 -1,3 C 3,3 C -3,3 C 88 % 1005,0 hPa 0,0 l/m 6,2 km/h (2 Bft) SO 132 0 min 0,000 mm 0,0 UV-I 0 W/m -3,0 C -1,3 C 11,3 km/h (2 Bft) 100,00 %
29.01.2019 20:10 -1,3 C 3,3 C -3,3 C 88 % 1005,0 hPa 0,0 l/m 6,8 km/h (2 Bft) SO 134 0 min 0,000 mm 0,0 UV-I 0 W/m -3,0 C -1,7 C 11,3 km/h (2 Bft) 100,00 %
29.01.2019 20:12 -1,4 C 3,3 C -3,9 C 88 % 1005,0 hPa 0,0 l/m 5,6 km/h (1 Bft) O-SO 122 0 min 0,000 mm 0,0 UV-I 0 W/m -3,1 C -1,4 C 9,7 km/h (2 Bft) 97,92 %
29.01.2019 20:14 -1,4 C 3,3 C -3,9 C 89 % 1004,9 hPa 0,0 l/m 7,3 km/h (2 Bft) O-SO 122 0 min 0,000 mm 0,0 UV-I 0 W/m -3,0 C -2,4 C 11,3 km/h (2 Bft) 100,00 %
29.01.2019 20:16 -1,5 C 3,3 C -3,9 C 89 % 1004,9 hPa 0,0 l/m 6,5 km/h (2 Bft) SO 124 0 min 0,000 mm 0,0 UV-I 0 W/m -3,1 C -1,6 C 11,3 km/h (2 Bft) 100,00 %
29.01.2019 20:18 -1,5 C 3,3 C -3,9 C 89 % 1004,9 hPa 0,0 l/m 8,3 km/h (2 Bft) SO 133 0 min 0,000 mm 0,0 UV-I 0 W/m -3,1 C -3,5 C 12,9 km/h (3 Bft) 97,87 %
29.01.2019 20:20 -1,5 C 3,3 C -3,9 C 89 % 1004,9 hPa 0,0 l/m 8,5 km/h (2 Bft) O-SO 122 0 min 0,000 mm 0,0 UV-I 0 W/m -3,1 C -3,7 C 12,9 km/h (3 Bft) 98,00 %
29.01.2019 20:22 -1,5 C 3,3 C -3,9 C 89 % 1004,8 hPa 0,0 l/m 7,4 km/h (2 Bft) SO 144 0 min 0,000 mm 0,0 UV-I 0 W/m -3,1 C -2,6 C 14,5 km/h (3 Bft) 98,00 %
29.01.2019 20:24 -1,5 C 3,3 C -3,9 C 89 % 1004,8 hPa 0,0 l/m 9,1 km/h (2 Bft) SO 132 0 min 0,000 mm 0,0 UV-I 0 W/m -3,1 C -4,3 C 12,9 km/h (3 Bft) 96,00 %
29.01.2019 20:26 -1,5 C 3,3 C -3,3 C 89 % 1004,8 hPa 0,0 l/m 9,9 km/h (2 Bft) SO 130 0 min 0,000 mm 0,0 UV-I 0 W/m -3,1 C -5,0 C 14,5 km/h (3 Bft) 95,74 %
29.01.2019 20:29 -1,5 C 3,3 C -3,9 C 89 % 1004,8 hPa 0,0 l/m 7,5 km/h (2 Bft) O-SO 121 0 min 0,000 mm 0,0 UV-I 0 W/m -3,1 C -2,7 C 11,3 km/h (2 Bft) 97,26 %
29.01.2019 20:30 -1,6 C 3,3 C -3,9 C 89 % 1004,8 hPa 0,0 l/m 8,3 km/h (2 Bft) O-SO 118 0 min 0,000 mm 0,0 UV-I 0 W/m -3,2 C -3,6 C 11,3 km/h (2 Bft) 100,00 %
29.01.2019 20:32 -1,6 C 3,3 C -3,9 C 89 % 1004,7 hPa 0,0 l/m 8,0 km/h (2 Bft) SO 128 0 min 0,000 mm 0,0 UV-I 0 W/m -3,2 C -3,3 C 12,9 km/h (3 Bft) 94,00 %
29.01.2019 20:34 -1,6 C 3,3 C -3,9 C 89 % 1004,8 hPa 0,0 l/m 8,9 km/h (2 Bft) SO 132 0 min 0,000 mm 0,0 UV-I 0 W/m -3,2 C -4,2 C 14,5 km/h (3 Bft) 96,00 %
29.01.2019 20:36 -1,6 C 3,3 C -3,9 C 89 % 1004,7 hPa 0,0 l/m 8,1 km/h (2 Bft) SO 134 0 min 0,000 mm 0,0 UV-I 0 W/m -3,2 C -3,4 C 12,9 km/h (3 Bft) 93,62 %
29.01.2019 20:38 -1,6 C 3,3 C -3,9 C 89 % 1004,8 hPa 0,0 l/m 8,5 km/h (2 Bft) SO 128 0 min 0,000 mm 0,0 UV-I 0 W/m -3,2 C -3,8 C 12,9 km/h (3 Bft) 92,00 %
29.01.2019 20:40 -1,6 C 3,3 C -3,9 C 89 % 1004,7 hPa 0,0 l/m 8,6 km/h (2 Bft) SO 126 0 min 0,000 mm 0,0 UV-I 0 W/m -3,2 C -3,9 C 12,9 km/h (3 Bft) 95,12 %
29.01.2019 20:42 -1,7 C 3,3 C -3,9 C 89 % 1004,7 hPa 0,0 l/m 8,3 km/h (2 Bft) O-SO 113 0 min 0,000 mm 0,0 UV-I 0 W/m -3,3 C -3,7 C 12,9 km/h (3 Bft) 95,74 %
29.01.2019 20:44 -1,7 C 3,3 C -4,4 C 89 % 1004,6 hPa 0,0 l/m 8,0 km/h (2 Bft) SO 131 0 min 0,000 mm 0,0 UV-I 0 W/m -3,3 C -3,4 C 11,3 km/h (2 Bft) 96,00 %
29.01.2019 20:46 -1,7 C 3,3 C -4,4 C 89 % 1004,7 hPa 0,0 l/m 8,0 km/h (2 Bft) SO 130 0 min 0,000 mm 0,0 UV-I 0 W/m -3,3 C -3,4 C 12,9 km/h (3 Bft) 93,62 %
29.01.2019 20:48 -1,7 C 3,3 C -4,4 C 89 % 1004,6 hPa 0,0 l/m 7,5 km/h (2 Bft) O-SO 114 0 min 0,000 mm 0,0 UV-I 0 W/m -3,3 C -2,9 C 11,3 km/h (2 Bft) 93,62 %
29.01.2019 20:50 -1,7 C 3,3 C -4,4 C 89 % 1004,5 hPa 0,0 l/m 5,7 km/h (1 Bft) O-SO 120 0 min 0,000 mm 0,0 UV-I 0 W/m -3,3 C -1,7 C 11,3 km/h (2 Bft) 97,92 %
29.01.2019 20:52 -1,7 C 3,3 C -4,4 C 89 % 1004,5 hPa 0,0 l/m 8,2 km/h (2 Bft) SO 128 0 min 0,000 mm 0,0 UV-I 0 W/m -3,3 C -3,6 C 12,9 km/h (3 Bft) 95,74 %
29.01.2019 20:54 -1,7 C 3,3 C -4,4 C 89 % 1004,5 hPa 0,0 l/m 8,8 km/h (2 Bft) SO 126 0 min 0,000 mm 0,0 UV-I 0 W/m -3,3 C -4,2 C 14,5 km/h (3 Bft) 95,74 %
29.01.2019 20:56 -1,7 C 3,3 C -4,4 C 89 % 1004,4 hPa 0,0 l/m 5,0 km/h (1 Bft) SO 133 0 min 0,000 mm 0,0 UV-I 0 W/m -3,3 C -1,7 C 8,0 km/h (2 Bft) 97,37 %
29.01.2019 20:58 -1,7 C 3,3 C -4,4 C 89 % 1004,4 hPa 0,0 l/m 7,4 km/h (2 Bft) O-SO 123 0 min 0,000 mm 0,0 UV-I 0 W/m -3,3 C -2,8 C 11,3 km/h (2 Bft) 95,74 %
29.01.2019 21:00 -1,7 C 3,3 C -4,4 C 89 % 1004,4 hPa 0,0 l/m 4,5 km/h (1 Bft) O-SO 119 0 min 0,000 mm 0,0 UV-I 0 W/m -3,3 C -1,7 C 6,4 km/h (2 Bft) 95,74 %
29.01.2019 21:02 -1,8 C 3,3 C -4,4 C 89 % 1004,4 hPa 0,0 l/m 4,0 km/h (1 Bft) O-SO 119 0 min 0,000 mm 0,0 UV-I 0 W/m -3,4 C -1,8 C 6,4 km/h (2 Bft) 98,00 %
29.01.2019 21:04 -1,8 C 3,3 C -4,4 C 89 % 1004,3 hPa 0,0 l/m 3,7 km/h (1 Bft) O-SO 119 0 min 0,000 mm 0,0 UV-I 0 W/m -3,4 C -1,8 C 6,4 km/h (2 Bft) 100,00 %
29.01.2019 21:06 -1,8 C 3,3 C -4,4 C 89 % 1004,4 hPa 0,0 l/m 5,0 km/h (1 Bft) O 98 0 min 0,000 mm 0,0 UV-I 0 W/m -3,4 C -1,8 C 6,4 km/h (2 Bft) 100,00 %
29.01.2019 21:08 -1,9 C 3,3 C -4,4 C 89 % 1004,4 hPa 0,0 l/m 5,4 km/h (1 Bft) O 98 0 min 0,000 mm 0,0 UV-I 0 W/m -3,5 C -1,9 C 9,7 km/h (2 Bft) 100,00 %
29.01.2019 21:10 -2,0 C 3,3 C -4,4 C 90 % 1004,3 hPa 0,0 l/m 5,6 km/h (1 Bft) O 101 0 min 0,000 mm 0,0 UV-I 0 W/m -3,4 C -2,0 C 6,4 km/h (2 Bft) 98,00 %
29.01.2019 21:12 -2,1 C 3,3 C -4,4 C 90 % 1004,3 hPa 0,0 l/m 4,4 km/h (1 Bft) O 101 0 min 0,000 mm 0,0 UV-I 0 W/m -3,5 C -2,1 C 6,4 km/h (2 Bft) 98,11 %
29.01.2019 21:14 -2,2 C 3,3 C -4,4 C 90 % 1004,3 hPa 0,0 l/m 4,4 km/h (1 Bft) O 100 0 min 0,000 mm 0,0 UV-I 0 W/m -3,6 C -2,2 C 6,4 km/h (2 Bft) 95,74 %
29.01.2019 21:16 -2,3 C 3,3 C -5,0 C 90 % 1004,3 hPa 0,0 l/m 3,0 km/h (1 Bft) O 100 0 min 0,000 mm 0,0 UV-I 0 W/m -3,7 C -2,3 C 4,8 km/h (1 Bft) 97,87 %
29.01.2019 21:18 -2,3 C 3,3 C -5,0 C 90 % 1004,2 hPa 0,0 l/m 3,7 km/h (1 Bft) O 97 0 min 0,000 mm 0,0 UV-I 0 W/m -3,7 C -2,3 C 4,8 km/h (1 Bft) 93,62 %
29.01.2019 21:20 -2,4 C 3,3 C -5,6 C 90 % 1004,2 hPa 0,0 l/m 3,6 km/h (1 Bft) O 97 0 min 0,000 mm 0,0 UV-I 0 W/m -3,8 C -2,4 C 6,4 km/h (2 Bft) 97,87 %
29.01.2019 21:22 -2,4 C 3,3 C -5,6 C 91 % 1004,2 hPa 0,0 l/m 3,9 km/h (1 Bft) O 97 0 min 0,000 mm 0,0 UV-I 0 W/m -3,7 C -2,4 C 4,8 km/h (1 Bft) 93,62 %
29.01.2019 21:24 -2,4 C 3,3 C -5,6 C 91 % 1004,2 hPa 0,0 l/m 2,1 km/h (1 Bft) O 97 0 min 0,000 mm 0,0 UV-I 0 W/m -3,7 C -2,4 C 3,2 km/h (1 Bft) 97,87 %
29.01.2019 21:26 -2,5 C 3,3 C -5,6 C 91 % 1004,2 hPa 0,0 l/m 3,0 km/h (1 Bft) O 97 0 min 0,000 mm 0,0 UV-I 0 W/m -3,8 C -2,5 C 4,8 km/h (1 Bft) 97,87 %
29.01.2019 21:28 -2,5 C 3,3 C -6,1 C 91 % 1004,1 hPa 0,0 l/m 4,0 km/h (1 Bft) O 97 0 min 0,000 mm 0,0 UV-I 0 W/m -3,8 C -2,5 C 4,8 km/h (1 Bft) 100,00 %
29.01.2019 21:30 -2,5 C 3,3 C -6,1 C 91 % 1004,1 hPa 0,0 l/m 4,4 km/h (1 Bft) O 96 0 min 0,000 mm 0,0 UV-I 0 W/m -3,8 C -2,5 C 6,4 km/h (2 Bft) 97,87 %
29.01.2019 21:32 -2,5 C 3,3 C -5,6 C 91 % 1004,1 hPa 0,0 l/m 5,0 km/h (1 Bft) O 84 0 min 0,000 mm 0,0 UV-I 0 W/m -3,8 C -2,5 C 6,4 km/h (2 Bft) 97,92 %
29.01.2019 21:34 -2,5 C 3,3 C -5,6 C 91 % 1004,1 hPa 0,0 l/m 5,0 km/h (1 Bft) O 84 0 min 0,000 mm 0,0 UV-I 0 W/m -3,8 C -2,5 C 6,4 km/h (2 Bft) 100,00 %
29.01.2019 21:36 -2,5 C 3,3 C -5,6 C 91 % 1004,1 hPa 0,0 l/m 3,7 km/h (1 Bft) O 90 0 min 0,000 mm 0,0 UV-I 0 W/m -3,8 C -2,5 C 6,4 km/h (2 Bft) 98,00 %
29.01.2019 21:38 -2,6 C 3,3 C -6,1 C 91 % 1004,1 hPa 0,0 l/m 4,3 km/h (1 Bft) O 90 0 min 0,000 mm 0,0 UV-I 0 W/m -3,9 C -2,6 C 6,4 km/h (2 Bft) 97,87 %
29.01.2019 21:40 -2,6 C 3,3 C -5,6 C 91 % 1004,1 hPa 0,0 l/m 3,5 km/h (1 Bft) O 90 0 min 0,000 mm 0,0 UV-I 0 W/m -3,9 C -2,6 C 4,8 km/h (1 Bft) 98,00 %
29.01.2019 21:42 -2,7 C 3,3 C -6,1 C 92 % 1004,1 hPa 0,0 l/m 3,0 km/h (1 Bft) O 90 0 min 0,000 mm 0,0 UV-I 0 W/m -3,8 C -2,7 C 4,8 km/h (1 Bft) 97,87 %
29.01.2019 21:44 -2,7 C 3,3 C -5,6 C 92 % 1004,0 hPa 0,0 l/m 1,9 km/h (1 Bft) O 90 0 min 0,000 mm 0,0 UV-I 0 W/m -3,8 C -2,7 C 4,8 km/h (1 Bft) 93,62 %
29.01.2019 21:46 -2,7 C 3,3 C -5,6 C 92 % 1004,0 hPa 0,0 l/m 2,1 km/h (1 Bft) O 92 0 min 0,000 mm 0,0 UV-I 0 W/m -3,8 C -2,7 C 4,8 km/h (1 Bft) 91,49 %
29.01.2019 21:48 -2,6 C 3,3 C -5,0 C 92 % 1004,0 hPa 0,0 l/m 5,4 km/h (1 Bft) O 80 0 min 0,000 mm 0,0 UV-I 0 W/m -3,7 C -2,6 C 8,0 km/h (2 Bft) 95,74 %
29.01.2019 21:50 -2,6 C 3,3 C -5,0 C 92 % 1004,0 hPa 0,0 l/m 7,0 km/h (2 Bft) O-NO 73 0 min 0,000 mm 0,0 UV-I 0 W/m -3,7 C -3,3 C 11,3 km/h (2 Bft) 94,74 %
29.01.2019 21:52 -2,4 C 3,3 C -4,4 C 92 % 1003,8 hPa 0,0 l/m 7,4 km/h (2 Bft) O 81 0 min 0,000 mm 0,0 UV-I 0 W/m -3,5 C -3,5 C 11,3 km/h (2 Bft) 96,00 %
29.01.2019 21:54 -2,4 C 3,3 C -4,4 C 92 % 1003,8 hPa 0,0 l/m 8,0 km/h (2 Bft) O-NO 70 0 min 0,000 mm 0,0 UV-I 0 W/m -3,5 C -4,2 C 9,7 km/h (2 Bft) 94,00 %
29.01.2019 21:56 -2,4 C 3,3 C -4,4 C 92 % 1003,8 hPa 0,0 l/m 8,8 km/h (2 Bft) O-NO 61 0 min 0,000 mm 0,0 UV-I 0 W/m -3,5 C -5,0 C 12,9 km/h (3 Bft) 95,74 %
29.01.2019 21:58 -2,4 C 3,3 C -4,4 C 92 % 1003,7 hPa 0,0 l/m 8,6 km/h (2 Bft) O-NO 67 0 min 0,000 mm 0,0 UV-I 0 W/m -3,5 C -4,8 C 12,9 km/h (3 Bft) 91,49 %
29.01.2019 22:00 -2,4 C 3,3 C -4,4 C 92 % 1003,7 hPa 0,0 l/m 8,9 km/h (2 Bft) O-NO 66 0 min 0,000 mm 0,0 UV-I 0 W/m -3,5 C -5,1 C 14,5 km/h (3 Bft) 97,87 %
29.01.2019 22:02 -2,3 C 3,3 C -3,9 C 92 % 1003,7 hPa 0,0 l/m 8,1 km/h (2 Bft) O 89 0 min 0,000 mm 0,0 UV-I 0 W/m -3,4 C -4,2 C 12,9 km/h (3 Bft) 93,62 %
29.01.2019 22:04 -2,3 C 3,3 C -4,4 C 91 % 1003,7 hPa 0,0 l/m 8,3 km/h (2 Bft) O-NO 61 0 min 0,000 mm 0,0 UV-I 0 W/m -3,6 C -4,4 C 12,9 km/h (3 Bft) 93,62 %
29.01.2019 22:06 -2,3 C 3,3 C -3,9 C 91 % 1003,6 hPa 0,0 l/m 6,1 km/h (2 Bft) O-NO 76 0 min 0,000 mm 0,0 UV-I 0 W/m -3,6 C -2,3 C 8,0 km/h (2 Bft) 97,44 %
29.01.2019 22:08 -2,3 C 3,3 C -3,9 C 91 % 1003,6 hPa 0,0 l/m 8,3 km/h (2 Bft) O 82 0 min 0,000 mm 0,0 UV-I 0 W/m -3,6 C -4,4 C 12,9 km/h (3 Bft) 98,00 %
29.01.2019 22:10 -2,3 C 3,3 C -3,9 C 91 % 1003,5 hPa 0,0 l/m 8,5 km/h (2 Bft) O-NO 78 0 min 0,000 mm 0,0 UV-I 0 W/m -3,6 C -4,6 C 12,9 km/h (3 Bft) 97,87 %
29.01.2019 22:12 -2,4 C 3,3 C -3,9 C 91 % 1003,5 hPa 0,0 l/m 8,7 km/h (2 Bft) O-NO 67 0 min 0,000 mm 0,0 UV-I 0 W/m -3,7 C -4,9 C 14,5 km/h (3 Bft) 93,62 %
29.01.2019 22:14 -2,4 C 3,3 C -3,9 C 91 % 1003,4 hPa 0,0 l/m 8,7 km/h (2 Bft) NO 49 0 min 0,000 mm 0,0 UV-I 0 W/m -3,7 C -4,9 C 14,5 km/h (3 Bft) 97,87 %
29.01.2019 22:16 -2,4 C 3,3 C -3,9 C 91 % 1003,4 hPa 0,0 l/m 6,9 km/h (2 Bft) O-NO 74 0 min 0,000 mm 0,0 UV-I 0 W/m -3,7 C -2,9 C 11,3 km/h (2 Bft) 95,74 %
29.01.2019 22:18 -2,4 C 3,3 C -3,9 C 91 % 1003,4 hPa 0,0 l/m 8,9 km/h (2 Bft) O-NO 71 0 min 0,000 mm 0,0 UV-I 0 W/m -3,7 C -5,1 C 12,9 km/h (3 Bft) 100,00 %
29.01.2019 22:20 -2,4 C 3,3 C -3,9 C 91 % 1003,4 hPa 0,0 l/m 9,2 km/h (2 Bft) O 84 0 min 0,000 mm 0,0 UV-I 0 W/m -3,7 C -5,4 C 14,5 km/h (3 Bft) 91,49 %
29.01.2019 22:22 -2,4 C 3,3 C -3,9 C 91 % 1003,3 hPa 0,0 l/m 11,0 km/h (2 Bft) O 94 0 min 0,000 mm 0,0 UV-I 0 W/m -3,7 C -7,0 C 16,1 km/h (3 Bft) 91,49 %
29.01.2019 22:24 -2,5 C 3,3 C -3,9 C 91 % 1003,3 hPa 0,0 l/m 11,0 km/h (2 Bft) O-NO 69 0 min 0,000 mm 0,0 UV-I 0 W/m -3,8 C -7,1 C 16,1 km/h (3 Bft) 95,74 %
29.01.2019 22:26 -2,5 C 3,3 C -3,9 C 91 % 1003,3 hPa 0,0 l/m 9,2 km/h (2 Bft) O-NO 77 0 min 0,000 mm 0,0 UV-I 0 W/m -3,8 C -5,5 C 12,9 km/h (3 Bft) 95,74 %
29.01.2019 22:28 -2,5 C 3,3 C -3,9 C 91 % 1003,1 hPa 0,0 l/m 10,8 km/h (2 Bft) O 84 0 min 0,000 mm 0,0 UV-I 0 W/m -3,8 C -6,9 C 12,9 km/h (3 Bft) 96,00 %
29.01.2019 22:30 -2,6 C 3,3 C -3,9 C 91 % 1003,1 hPa 0,0 l/m 10,4 km/h (2 Bft) O 84 0 min 0,000 mm 0,0 UV-I 0 W/m -3,9 C -6,7 C 14,5 km/h (3 Bft) 93,62 %
29.01.2019 22:32 -2,6 C 3,3 C -3,9 C 91 % 1003,1 hPa 0,0 l/m 10,2 km/h (2 Bft) O-NO 76 0 min 0,000 mm 0,0 UV-I 0 W/m -3,9 C -6,5 C 14,5 km/h (3 Bft) 95,74 %
29.01.2019 22:34 -2,6 C 3,3 C -3,9 C 91 % 1003,1 hPa 0,0 l/m 10,4 km/h (2 Bft) O 88 0 min 0,000 mm 0,0 UV-I 0 W/m -3,9 C -6,7 C 16,1 km/h (3 Bft) 92,11 %
29.01.2019 22:36 -2,7 C 3,3 C -3,9 C 91 % 1003,0 hPa 0,0 l/m 7,7 km/h (2 Bft) O 82 0 min 0,000 mm 0,0 UV-I 0 W/m -4,0 C -4,2 C 12,9 km/h (3 Bft) 94,00 %
29.01.2019 22:38 -2,7 C 3,3 C -4,4 C 91 % 1003,0 hPa 0,0 l/m 7,2 km/h (2 Bft) O-NO 76 0 min 0,000 mm 0,0 UV-I 0 W/m -4,0 C -3,6 C 11,3 km/h (2 Bft) 94,00 %
29.01.2019 22:40 -2,7 C 3,3 C -4,4 C 91 % 1002,9 hPa 0,0 l/m 6,7 km/h (2 Bft) O-NO 78 0 min 0,000 mm 0,0 UV-I 0 W/m -4,0 C -3,0 C 12,9 km/h (3 Bft) 95,74 %
29.01.2019 22:42 -2,7 C 3,3 C -4,4 C 91 % 1002,9 hPa 0,0 l/m 7,2 km/h (2 Bft) O-NO 66 0 min 0,000 mm 0,0 UV-I 0 W/m -4,0 C -3,6 C 11,3 km/h (2 Bft) 95,74 %
29.01.2019 22:44 -2,7 C 3,3 C -4,4 C 91 % 1002,9 hPa 0,0 l/m 7,9 km/h (2 Bft) NO 55 0 min 0,000 mm 0,0 UV-I 0 W/m -4,0 C -4,4 C 11,3 km/h (2 Bft) 90,00 %
29.01.2019 22:46 -2,7 C 3,3 C -4,4 C 91 % 1002,8 hPa 0,0 l/m 8,3 km/h (2 Bft) O 86 0 min 0,000 mm 0,0 UV-I 0 W/m -4,0 C -4,8 C 14,5 km/h (3 Bft) 91,49 %
29.01.2019 22:48 -2,7 C 3,3 C -4,4 C 91 % 1002,8 hPa 0,0 l/m 6,9 km/h (2 Bft) NO 55 0 min 0,000 mm 0,0 UV-I 0 W/m -4,0 C -3,3 C 11,3 km/h (2 Bft) 93,75 %
29.01.2019 22:50 -2,8 C 3,3 C -4,4 C 91 % 1002,8 hPa 0,0 l/m 8,3 km/h (2 Bft) O 80 0 min 0,000 mm 0,0 UV-I 0 W/m -4,1 C -4,9 C 12,9 km/h (3 Bft) 93,62 %
29.01.2019 22:52 -2,8 C 3,3 C -4,4 C 91 % 1002,7 hPa 0,0 l/m 8,8 km/h (2 Bft) NO 53 0 min 0,000 mm 0,0 UV-I 0 W/m -4,1 C -5,4 C 12,9 km/h (3 Bft) 93,62 %
29.01.2019 22:54 -2,8 C 3,3 C -4,4 C 91 % 1002,7 hPa 0,0 l/m 6,3 km/h (2 Bft) O-NO 69 0 min 0,000 mm 0,0 UV-I 0 W/m -4,1 C -2,8 C 9,7 km/h (2 Bft) 89,36 %
29.01.2019 22:56 -2,8 C 3,3 C -4,4 C 91 % 1002,7 hPa 0,0 l/m 6,5 km/h (2 Bft) O-NO 78 0 min 0,000 mm 0,0 UV-I 0 W/m -4,1 C -2,9 C 9,7 km/h (2 Bft) 97,14 %
29.01.2019 22:58 -2,8 C 3,3 C -4,4 C 92 % 1002,6 hPa 0,0 l/m 7,5 km/h (2 Bft) O-NO 62 0 min 0,000 mm 0,0 UV-I 0 W/m -3,9 C -4,0 C 11,3 km/h (2 Bft) 91,49 %
29.01.2019 23:00 -2,7 C 3,3 C -4,4 C 92 % 1002,5 hPa 0,0 l/m 8,2 km/h (2 Bft) O-NO 59 0 min 0,000 mm 0,0 UV-I 0 W/m -3,8 C -4,7 C 12,9 km/h (3 Bft) 93,62 %
29.01.2019 23:02 -2,7 C 3,3 C -4,4 C 91 % 1002,5 hPa 0,0 l/m 8,5 km/h (2 Bft) NO 44 0 min 0,000 mm 0,0 UV-I 0 W/m -4,0 C -5,0 C 12,9 km/h (3 Bft) 97,87 %
29.01.2019 23:04 -2,7 C 3,3 C -4,4 C 92 % 1002,5 hPa 0,0 l/m 9,9 km/h (2 Bft) O 79 0 min 0,000 mm 0,0 UV-I 0 W/m -3,8 C -6,3 C 16,1 km/h (3 Bft) 98,00 %
29.01.2019 23:06 -2,7 C 3,3 C -4,4 C 91 % 1002,5 hPa 0,0 l/m 9,6 km/h (2 Bft) NO 40 0 min 0,000 mm 0,0 UV-I 0 W/m -4,0 C -6,1 C 16,1 km/h (3 Bft) 91,49 %
29.01.2019 23:08 -2,7 C 3,3 C -4,4 C 91 % 1002,5 hPa 0,0 l/m 7,0 km/h (2 Bft) NO 51 0 min 0,000 mm 0,0 UV-I 0 W/m -4,0 C -3,4 C 11,3 km/h (2 Bft) 100,00 %
29.01.2019 23:10 -2,7 C 3,3 C -4,4 C 91 % 1002,5 hPa 0,0 l/m 10,2 km/h (2 Bft) O-NO 76 0 min 0,000 mm 0,0 UV-I 0 W/m -4,0 C -6,6 C 14,5 km/h (3 Bft) 100,00 %
29.01.2019 23:12 -2,7 C 3,3 C -4,4 C 91 % 1002,4 hPa 0,0 l/m 10,5 km/h (2 Bft) O-NO 74 0 min 0,000 mm 0,0 UV-I 0 W/m -4,0 C -6,9 C 16,1 km/h (3 Bft) 98,11 %
29.01.2019 23:14 -2,7 C 3,3 C -4,4 C 91 % 1002,4 hPa 0,0 l/m 11,0 km/h (2 Bft) O 82 0 min 0,000 mm 0,0 UV-I 0 W/m -4,0 C -7,3 C 17,7 km/h (3 Bft) 95,74 %
29.01.2019 23:16 -2,7 C 3,3 C -4,4 C 92 % 1002,4 hPa 0,0 l/m 10,6 km/h (2 Bft) O 82 0 min 0,000 mm 0,0 UV-I 0 W/m -3,8 C -7,0 C 16,1 km/h (3 Bft) 97,87 %
29.01.2019 23:18 -2,7 C 3,3 C -4,4 C 92 % 1002,4 hPa 0,0 l/m 8,5 km/h (2 Bft) O-NO 68 0 min 0,000 mm 0,0 UV-I 0 W/m -3,8 C -5,0 C 12,9 km/h (3 Bft) 100,00 %
29.01.2019 23:20 -2,7 C 3,3 C -4,4 C 92 % 1002,4 hPa 0,0 l/m 9,0 km/h (2 Bft) O 79 0 min 0,000 mm 0,0 UV-I 0 W/m -3,8 C -5,5 C 14,5 km/h (3 Bft) 97,87 %
29.01.2019 23:22 -2,8 C 3,3 C -4,4 C 92 % 1002,3 hPa 0,0 l/m 9,7 km/h (2 Bft) O-NO 78 0 min 0,000 mm 0,0 UV-I 0 W/m -3,9 C -6,3 C 14,5 km/h (3 Bft) 100,00 %
29.01.2019 23:24 -2,8 C 3,3 C -4,4 C 91 % 1002,3 hPa 0,0 l/m 9,6 km/h (2 Bft) O 92 0 min 0,000 mm 0,0 UV-I 0 W/m -4,1 C -6,2 C 17,7 km/h (3 Bft) 98,08 %
29.01.2019 23:26 -2,8 C 3,3 C -4,4 C 92 % 1002,3 hPa 0,0 l/m 12,2 km/h (2 Bft) O-NO 77 0 min 0,000 mm 0,0 UV-I 0 W/m -3,9 C -8,4 C 14,5 km/h (3 Bft) 97,87 %
29.01.2019 23:28 -2,8 C 3,3 C -4,4 C 92 % 1002,2 hPa 0,0 l/m 11,9 km/h (2 Bft) NO 55 0 min 0,000 mm 0,0 UV-I 0 W/m -3,9 C -8,1 C 16,1 km/h (3 Bft) 98,00 %
29.01.2019 23:30 -2,8 C 3,3 C -4,4 C 92 % 1002,2 hPa 0,0 l/m 10,6 km/h (2 Bft) O-NO 78 0 min 0,000 mm 0,0 UV-I 0 W/m -3,9 C -7,1 C 16,1 km/h (3 Bft) 100,00 %
29.01.2019 23:32 -2,8 C 3,3 C -4,4 C 92 % 1002,1 hPa 0,0 l/m 11,9 km/h (2 Bft) O-NO 78 0 min 0,000 mm 0,0 UV-I 0 W/m -3,9 C -8,1 C 16,1 km/h (3 Bft) 97,87 %
29.01.2019 23:34 -2,8 C 3,3 C -4,4 C 92 % 1002,1 hPa 0,0 l/m 12,3 km/h (3 Bft) O 92 0 min 0,000 mm 0,0 UV-I 0 W/m -3,9 C -8,5 C 16,1 km/h (3 Bft) 100,00 %
29.01.2019 23:36 -2,9 C 3,3 C -4,4 C 92 % 1002,1 hPa 0,0 l/m 10,4 km/h (2 Bft) O-NO 72 0 min 0,000 mm 0,0 UV-I 0 W/m -4,0 C -7,0 C 14,5 km/h (3 Bft) 100,00 %
29.01.2019 23:38 -2,9 C 3,3 C -4,4 C 92 % 1002,1 hPa 0,0 l/m 7,3 km/h (2 Bft) O-NO 70 0 min 0,000 mm 0,0 UV-I 0 W/m -4,0 C -3,9 C 12,9 km/h (3 Bft) 97,87 %
29.01.2019 23:40 -2,9 C 3,3 C -4,4 C 92 % 1002,0 hPa 0,0 l/m 10,7 km/h (2 Bft) O-NO 74 0 min 0,000 mm 0,0 UV-I 0 W/m -4,0 C -7,3 C 16,1 km/h (3 Bft) 97,87 %
29.01.2019 23:42 -2,9 C 3,3 C -4,4 C 92 % 1001,9 hPa 0,0 l/m 11,0 km/h (2 Bft) O-NO 68 0 min 0,000 mm 0,0 UV-I 0 W/m -4,0 C -7,5 C 14,5 km/h (3 Bft) 100,00 %
29.01.2019 23:44 -3,0 C 3,3 C -4,4 C 92 % 1001,9 hPa 0,0 l/m 12,0 km/h (2 Bft) O-NO 65 0 min 0,000 mm 0,0 UV-I 0 W/m -4,1 C -8,5 C 17,7 km/h (3 Bft) 97,87 %
29.01.2019 23:46 -3,0 C 3,3 C -4,4 C 92 % 1001,8 hPa 0,0 l/m 11,2 km/h (2 Bft) O-NO 59 0 min 0,000 mm 0,0 UV-I 0 W/m -4,1 C -7,8 C 16,1 km/h (3 Bft) 100,00 %
29.01.2019 23:48 -2,9 C 3,3 C -4,4 C 92 % 1001,8 hPa 0,0 l/m 11,3 km/h (2 Bft) O-NO 58 0 min 0,000 mm 0,0 UV-I 0 W/m -4,0 C -7,8 C 16,1 km/h (3 Bft) 100,00 %
29.01.2019 23:50 -2,9 C 3,3 C -4,4 C 92 % 1001,8 hPa 0,0 l/m 12,4 km/h (3 Bft) O 84 0 min 0,000 mm 0,0 UV-I 0 W/m -4,0 C -8,7 C 17,7 km/h (3 Bft) 96,23 %
29.01.2019 23:52 -2,9 C 3,3 C -4,4 C 92 % 1001,8 hPa 0,0 l/m 11,2 km/h (2 Bft) O-SO 104 0 min 0,000 mm 0,0 UV-I 0 W/m -4,0 C -7,7 C 16,1 km/h (3 Bft) 97,83 %
29.01.2019 23:54 -2,9 C 3,3 C -4,4 C 91 % 1001,7 hPa 0,0 l/m 13,1 km/h (3 Bft) O 86 0 min 0,000 mm 0,0 UV-I 0 W/m -4,2 C -9,2 C 17,7 km/h (3 Bft) 100,00 %
29.01.2019 23:56 -2,9 C 3,3 C -4,4 C 91 % 1001,7 hPa 0,0 l/m 11,4 km/h (2 Bft) O 84 0 min 0,000 mm 0,0 UV-I 0 W/m -4,2 C -7,9 C 14,5 km/h (3 Bft) 97,87 %
29.01.2019 23:58 -2,9 C 3,3 C -4,4 C 91 % 1001,7 hPa 0,0 l/m 10,3 km/h (2 Bft) O-NO 65 0 min 0,000 mm 0,0 UV-I 0 W/m -4,2 C -6,9 C 14,5 km/h (3 Bft) 97,92 %
_ Min-Zeit 23:42 00:00 18:04 15:20 23:54 - 16:48 - - - - - - 23:54 01:02 16:48 13:42
Minimum _ -3,0 C 3,3 C -6,1 C 71 % 1001,7 hPa - 0,0 km/h (0 Bft) - - - - - - -4,2 C -11,4 C 0,0 km/h (0 Bft) 89,09 %
_ Max-Zeit 15:10 00:00 11:38 03:04 10:40 11:40 01:02 - - 15:15 10:00 11:18 11:38 11:42 15:12 00:04 00:14
Maximum _ 2,4 C 3,3 C 5,0 C 94 % 1009,2 hPa 0,2 l/m 27,7 km/h
SW (4 Bft)
- - 3 min 0,102 mm 0,7 UV-I 549 W/m 0,2 C 2,4 C 45,1 km/h
W-SW (6 Bft)
100,00 %
Durchschnitt _ 0,3 C 3,3 C -0,6 C 86 % 1005,9 hPa #0,2 l/m 12,0 km/h (2 Bft) W-SW - #4:30 h #0,762 mm 0,5 UV-I 139 W/m -1,8 C -4,4 C 18,4 km/h (3 Bft) 97,13 %